<?xml version="1.0" encoding="UTF-8" standalone="no" ?>
<gpx xmlns="http://www.topografix.com/GPX/1/1" xmlns:xsi="http://www.w3.org/2001/XMLSchema-instance" xsi:schemaLocation="http://www.topografix.com/GPX/1/1 http://www.topografix.com/GPX/1/1/gpx.xsd" version="1.1" creator="VisuGPX - https://www.visugpx.com">
  <metadata>
    <name>Pointe de Sans Bet</name>
    <desc><![CDATA[En ski de randonnée                                      ]]></desc>
  </metadata>
  <trk>
    <name><![CDATA[20180321201817-jZFdu]]></name>
    <trkseg>
      <trkpt lat="46.06088" lon="6.78576">
        <ele>843</ele>
        <time>2018-03-04T11:11:06Z</time>
      </trkpt>
      <trkpt lat="46.06088" lon="6.78576">
        <ele>842</ele>
        <time>2018-03-04T11:11:07Z</time>
      </trkpt>
      <trkpt lat="46.0609" lon="6.78575">
        <ele>844</ele>
        <time>2018-03-04T11:11:08Z</time>
      </trkpt>
      <trkpt lat="46.06093" lon="6.78577">
        <ele>846</ele>
        <time>2018-03-04T11:11:11Z</time>
      </trkpt>
      <trkpt lat="46.06094" lon="6.78577">
        <ele>847</ele>
        <time>2018-03-04T11:11:12Z</time>
      </trkpt>
      <trkpt lat="46.06099" lon="6.7858">
        <ele>850</ele>
        <time>2018-03-04T11:11:18Z</time>
      </trkpt>
      <trkpt lat="46.06103" lon="6.78583">
        <ele>853</ele>
        <time>2018-03-04T11:11:24Z</time>
      </trkpt>
      <trkpt lat="46.06106" lon="6.78588">
        <ele>848</ele>
        <time>2018-03-04T11:11:30Z</time>
      </trkpt>
      <trkpt lat="46.06107" lon="6.78593">
        <ele>849</ele>
        <time>2018-03-04T11:11:34Z</time>
      </trkpt>
      <trkpt lat="46.06108" lon="6.78596">
        <ele>850</ele>
        <time>2018-03-04T11:11:37Z</time>
      </trkpt>
      <trkpt lat="46.06109" lon="6.78604">
        <ele>851</ele>
        <time>2018-03-04T11:11:43Z</time>
      </trkpt>
      <trkpt lat="46.06114" lon="6.78609">
        <ele>853</ele>
        <time>2018-03-04T11:11:47Z</time>
      </trkpt>
      <trkpt lat="46.06118" lon="6.78611">
        <ele>855</ele>
        <time>2018-03-04T11:11:51Z</time>
      </trkpt>
      <trkpt lat="46.06119" lon="6.78612">
        <ele>855</ele>
        <time>2018-03-04T11:11:52Z</time>
      </trkpt>
      <trkpt lat="46.0612" lon="6.78613">
        <ele>855</ele>
        <time>2018-03-04T11:11:57Z</time>
      </trkpt>
      <trkpt lat="46.06122" lon="6.78615">
        <ele>856</ele>
        <time>2018-03-04T11:12:00Z</time>
      </trkpt>
      <trkpt lat="46.06123" lon="6.78615">
        <ele>856</ele>
        <time>2018-03-04T11:12:01Z</time>
      </trkpt>
      <trkpt lat="46.06125" lon="6.78615">
        <ele>857</ele>
        <time>2018-03-04T11:12:02Z</time>
      </trkpt>
      <trkpt lat="46.06126" lon="6.78616">
        <ele>857</ele>
        <time>2018-03-04T11:12:03Z</time>
      </trkpt>
      <trkpt lat="46.06127" lon="6.78617">
        <ele>857</ele>
        <time>2018-03-04T11:12:04Z</time>
      </trkpt>
      <trkpt lat="46.06128" lon="6.78618">
        <ele>857</ele>
        <time>2018-03-04T11:12:05Z</time>
      </trkpt>
      <trkpt lat="46.06128" lon="6.78619">
        <ele>858</ele>
        <time>2018-03-04T11:12:06Z</time>
      </trkpt>
      <trkpt lat="46.06129" lon="6.78622">
        <ele>858</ele>
        <time>2018-03-04T11:12:08Z</time>
      </trkpt>
      <trkpt lat="46.0613" lon="6.78623">
        <ele>858</ele>
        <time>2018-03-04T11:12:10Z</time>
      </trkpt>
      <trkpt lat="46.06132" lon="6.78622">
        <ele>858</ele>
        <time>2018-03-04T11:12:11Z</time>
      </trkpt>
      <trkpt lat="46.06141" lon="6.78627">
        <ele>860</ele>
        <time>2018-03-04T11:12:26Z</time>
      </trkpt>
      <trkpt lat="46.06147" lon="6.78644">
        <ele>861</ele>
        <time>2018-03-04T11:12:40Z</time>
      </trkpt>
      <trkpt lat="46.06152" lon="6.78661">
        <ele>862</ele>
        <time>2018-03-04T11:12:53Z</time>
      </trkpt>
      <trkpt lat="46.06153" lon="6.78664">
        <ele>863</ele>
        <time>2018-03-04T11:12:55Z</time>
      </trkpt>
      <trkpt lat="46.06156" lon="6.78671">
        <ele>863</ele>
        <time>2018-03-04T11:13:00Z</time>
      </trkpt>
      <trkpt lat="46.06159" lon="6.78691">
        <ele>861</ele>
        <time>2018-03-04T11:13:13Z</time>
      </trkpt>
      <trkpt lat="46.0616" lon="6.78692">
        <ele>861</ele>
        <time>2018-03-04T11:13:15Z</time>
      </trkpt>
      <trkpt lat="46.06164" lon="6.78707">
        <ele>861</ele>
        <time>2018-03-04T11:13:27Z</time>
      </trkpt>
      <trkpt lat="46.06164" lon="6.78712">
        <ele>861</ele>
        <time>2018-03-04T11:13:31Z</time>
      </trkpt>
      <trkpt lat="46.06162" lon="6.78724">
        <ele>862</ele>
        <time>2018-03-04T11:13:36Z</time>
      </trkpt>
      <trkpt lat="46.06162" lon="6.78727">
        <ele>862</ele>
        <time>2018-03-04T11:13:37Z</time>
      </trkpt>
      <trkpt lat="46.0616" lon="6.78736">
        <ele>864</ele>
        <time>2018-03-04T11:13:42Z</time>
      </trkpt>
      <trkpt lat="46.06164" lon="6.78744">
        <ele>867</ele>
        <time>2018-03-04T11:13:53Z</time>
      </trkpt>
      <trkpt lat="46.06165" lon="6.78746">
        <ele>868</ele>
        <time>2018-03-04T11:13:55Z</time>
      </trkpt>
      <trkpt lat="46.06164" lon="6.78747">
        <ele>868</ele>
        <time>2018-03-04T11:13:56Z</time>
      </trkpt>
      <trkpt lat="46.06164" lon="6.78749">
        <ele>869</ele>
        <time>2018-03-04T11:13:57Z</time>
      </trkpt>
      <trkpt lat="46.06166" lon="6.7875">
        <ele>870</ele>
        <time>2018-03-04T11:13:59Z</time>
      </trkpt>
      <trkpt lat="46.06174" lon="6.78754">
        <ele>874</ele>
        <time>2018-03-04T11:14:08Z</time>
      </trkpt>
      <trkpt lat="46.06175" lon="6.78755">
        <ele>875</ele>
        <time>2018-03-04T11:14:11Z</time>
      </trkpt>
      <trkpt lat="46.06179" lon="6.7876">
        <ele>876</ele>
        <time>2018-03-04T11:14:18Z</time>
      </trkpt>
      <trkpt lat="46.06182" lon="6.78763">
        <ele>878</ele>
        <time>2018-03-04T11:14:21Z</time>
      </trkpt>
      <trkpt lat="46.06183" lon="6.78765">
        <ele>878</ele>
        <time>2018-03-04T11:14:23Z</time>
      </trkpt>
      <trkpt lat="46.06184" lon="6.78766">
        <ele>878</ele>
        <time>2018-03-04T11:14:24Z</time>
      </trkpt>
      <trkpt lat="46.06188" lon="6.78769">
        <ele>880</ele>
        <time>2018-03-04T11:14:30Z</time>
      </trkpt>
      <trkpt lat="46.06189" lon="6.78769">
        <ele>880</ele>
        <time>2018-03-04T11:14:31Z</time>
      </trkpt>
      <trkpt lat="46.06192" lon="6.78772">
        <ele>880</ele>
        <time>2018-03-04T11:14:35Z</time>
      </trkpt>
      <trkpt lat="46.06193" lon="6.78772">
        <ele>881</ele>
        <time>2018-03-04T11:14:36Z</time>
      </trkpt>
      <trkpt lat="46.06197" lon="6.78772">
        <ele>881</ele>
        <time>2018-03-04T11:14:40Z</time>
      </trkpt>
      <trkpt lat="46.06211" lon="6.78766">
        <ele>884</ele>
        <time>2018-03-04T11:14:55Z</time>
      </trkpt>
      <trkpt lat="46.0622" lon="6.78768">
        <ele>885</ele>
        <time>2018-03-04T11:15:07Z</time>
      </trkpt>
      <trkpt lat="46.06234" lon="6.78784">
        <ele>886</ele>
        <time>2018-03-04T11:15:24Z</time>
      </trkpt>
      <trkpt lat="46.06246" lon="6.78815">
        <ele>887</ele>
        <time>2018-03-04T11:15:43Z</time>
      </trkpt>
      <trkpt lat="46.06249" lon="6.78821">
        <ele>888</ele>
        <time>2018-03-04T11:15:49Z</time>
      </trkpt>
      <trkpt lat="46.06249" lon="6.78823">
        <ele>888</ele>
        <time>2018-03-04T11:15:50Z</time>
      </trkpt>
      <trkpt lat="46.0625" lon="6.78843">
        <ele>888</ele>
        <time>2018-03-04T11:16:02Z</time>
      </trkpt>
      <trkpt lat="46.0625" lon="6.78846">
        <ele>895</ele>
        <time>2018-03-04T11:16:04Z</time>
      </trkpt>
      <trkpt lat="46.0625" lon="6.78848">
        <ele>887</ele>
        <time>2018-03-04T11:16:05Z</time>
      </trkpt>
      <trkpt lat="46.0625" lon="6.7885">
        <ele>887</ele>
        <time>2018-03-04T11:16:06Z</time>
      </trkpt>
      <trkpt lat="46.0625" lon="6.78851">
        <ele>897</ele>
        <time>2018-03-04T11:16:07Z</time>
      </trkpt>
      <trkpt lat="46.06251" lon="6.78852">
        <ele>897</ele>
        <time>2018-03-04T11:16:08Z</time>
      </trkpt>
      <trkpt lat="46.06251" lon="6.78855">
        <ele>898</ele>
        <time>2018-03-04T11:16:10Z</time>
      </trkpt>
      <trkpt lat="46.06251" lon="6.78856">
        <ele>898</ele>
        <time>2018-03-04T11:16:11Z</time>
      </trkpt>
      <trkpt lat="46.06251" lon="6.78857">
        <ele>898</ele>
        <time>2018-03-04T11:16:12Z</time>
      </trkpt>
      <trkpt lat="46.06251" lon="6.78859">
        <ele>898</ele>
        <time>2018-03-04T11:16:13Z</time>
      </trkpt>
      <trkpt lat="46.06251" lon="6.7886">
        <ele>898</ele>
        <time>2018-03-04T11:16:14Z</time>
      </trkpt>
      <trkpt lat="46.06249" lon="6.78866">
        <ele>886</ele>
        <time>2018-03-04T11:16:19Z</time>
      </trkpt>
      <trkpt lat="46.06251" lon="6.7887">
        <ele>899</ele>
        <time>2018-03-04T11:16:22Z</time>
      </trkpt>
      <trkpt lat="46.06256" lon="6.78876">
        <ele>900</ele>
        <time>2018-03-04T11:16:27Z</time>
      </trkpt>
      <trkpt lat="46.06258" lon="6.78879">
        <ele>900</ele>
        <time>2018-03-04T11:16:30Z</time>
      </trkpt>
      <trkpt lat="46.06262" lon="6.78883">
        <ele>900</ele>
        <time>2018-03-04T11:16:35Z</time>
      </trkpt>
      <trkpt lat="46.06268" lon="6.78886">
        <ele>901</ele>
        <time>2018-03-04T11:16:43Z</time>
      </trkpt>
      <trkpt lat="46.06274" lon="6.78889">
        <ele>901</ele>
        <time>2018-03-04T11:16:51Z</time>
      </trkpt>
      <trkpt lat="46.06276" lon="6.78891">
        <ele>902</ele>
        <time>2018-03-04T11:17:03Z</time>
      </trkpt>
      <trkpt lat="46.06276" lon="6.78892">
        <ele>902</ele>
        <time>2018-03-04T11:17:07Z</time>
      </trkpt>
      <trkpt lat="46.06277" lon="6.78893">
        <ele>902</ele>
        <time>2018-03-04T11:17:11Z</time>
      </trkpt>
      <trkpt lat="46.06278" lon="6.78893">
        <ele>902</ele>
        <time>2018-03-04T11:17:14Z</time>
      </trkpt>
      <trkpt lat="46.06279" lon="6.78894">
        <ele>902</ele>
        <time>2018-03-04T11:17:16Z</time>
      </trkpt>
      <trkpt lat="46.06281" lon="6.78894">
        <ele>902</ele>
        <time>2018-03-04T11:17:19Z</time>
      </trkpt>
      <trkpt lat="46.06286" lon="6.78894">
        <ele>903</ele>
        <time>2018-03-04T11:17:25Z</time>
      </trkpt>
      <trkpt lat="46.0629" lon="6.78892">
        <ele>904</ele>
        <time>2018-03-04T11:17:35Z</time>
      </trkpt>
      <trkpt lat="46.06288" lon="6.78893">
        <ele>904</ele>
        <time>2018-03-04T11:17:41Z</time>
      </trkpt>
      <trkpt lat="46.06286" lon="6.78893">
        <ele>903</ele>
        <time>2018-03-04T11:17:45Z</time>
      </trkpt>
      <trkpt lat="46.06285" lon="6.78893">
        <ele>903</ele>
        <time>2018-03-04T11:17:47Z</time>
      </trkpt>
      <trkpt lat="46.06281" lon="6.78894">
        <ele>902</ele>
        <time>2018-03-04T11:17:51Z</time>
      </trkpt>
      <trkpt lat="46.06279" lon="6.78896">
        <ele>902</ele>
        <time>2018-03-04T11:17:54Z</time>
      </trkpt>
      <trkpt lat="46.06278" lon="6.78896">
        <ele>902</ele>
        <time>2018-03-04T11:17:55Z</time>
      </trkpt>
      <trkpt lat="46.06276" lon="6.78896">
        <ele>902</ele>
        <time>2018-03-04T11:18:00Z</time>
      </trkpt>
      <trkpt lat="46.06275" lon="6.78896">
        <ele>901</ele>
        <time>2018-03-04T11:18:01Z</time>
      </trkpt>
      <trkpt lat="46.06273" lon="6.78895">
        <ele>901</ele>
        <time>2018-03-04T11:18:08Z</time>
      </trkpt>
      <trkpt lat="46.06267" lon="6.78896">
        <ele>900</ele>
        <time>2018-03-04T11:18:16Z</time>
      </trkpt>
      <trkpt lat="46.06266" lon="6.78896">
        <ele>900</ele>
        <time>2018-03-04T11:18:17Z</time>
      </trkpt>
      <trkpt lat="46.06269" lon="6.78897">
        <ele>900</ele>
        <time>2018-03-04T11:18:36Z</time>
      </trkpt>
      <trkpt lat="46.06272" lon="6.78895">
        <ele>901</ele>
        <time>2018-03-04T11:18:39Z</time>
      </trkpt>
      <trkpt lat="46.06273" lon="6.78895">
        <ele>901</ele>
        <time>2018-03-04T11:18:40Z</time>
      </trkpt>
      <trkpt lat="46.06276" lon="6.7889">
        <ele>902</ele>
        <time>2018-03-04T11:18:45Z</time>
      </trkpt>
      <trkpt lat="46.06283" lon="6.78879">
        <ele>903</ele>
        <time>2018-03-04T11:18:56Z</time>
      </trkpt>
      <trkpt lat="46.06286" lon="6.78876">
        <ele>903</ele>
        <time>2018-03-04T11:18:59Z</time>
      </trkpt>
      <trkpt lat="46.06289" lon="6.78873">
        <ele>904</ele>
        <time>2018-03-04T11:19:02Z</time>
      </trkpt>
      <trkpt lat="46.06291" lon="6.7887">
        <ele>904</ele>
        <time>2018-03-04T11:19:04Z</time>
      </trkpt>
      <trkpt lat="46.06293" lon="6.78869">
        <ele>904</ele>
        <time>2018-03-04T11:19:06Z</time>
      </trkpt>
      <trkpt lat="46.06294" lon="6.78868">
        <ele>905</ele>
        <time>2018-03-04T11:19:08Z</time>
      </trkpt>
      <trkpt lat="46.06296" lon="6.78868">
        <ele>905</ele>
        <time>2018-03-04T11:19:11Z</time>
      </trkpt>
      <trkpt lat="46.06299" lon="6.78868">
        <ele>905</ele>
        <time>2018-03-04T11:19:14Z</time>
      </trkpt>
      <trkpt lat="46.06303" lon="6.78868">
        <ele>906</ele>
        <time>2018-03-04T11:19:16Z</time>
      </trkpt>
      <trkpt lat="46.06306" lon="6.78868">
        <ele>906</ele>
        <time>2018-03-04T11:19:19Z</time>
      </trkpt>
      <trkpt lat="46.0631" lon="6.7887">
        <ele>907</ele>
        <time>2018-03-04T11:19:23Z</time>
      </trkpt>
      <trkpt lat="46.06314" lon="6.78873">
        <ele>907</ele>
        <time>2018-03-04T11:19:29Z</time>
      </trkpt>
      <trkpt lat="46.06323" lon="6.78888">
        <ele>909</ele>
        <time>2018-03-04T11:19:44Z</time>
      </trkpt>
      <trkpt lat="46.06334" lon="6.78889">
        <ele>924</ele>
        <time>2018-03-04T11:19:58Z</time>
      </trkpt>
      <trkpt lat="46.06337" lon="6.78888">
        <ele>925</ele>
        <time>2018-03-04T11:20:01Z</time>
      </trkpt>
      <trkpt lat="46.06348" lon="6.78886">
        <ele>926</ele>
        <time>2018-03-04T11:20:14Z</time>
      </trkpt>
      <trkpt lat="46.06363" lon="6.7888">
        <ele>929</ele>
        <time>2018-03-04T11:20:30Z</time>
      </trkpt>
      <trkpt lat="46.06366" lon="6.78876">
        <ele>929</ele>
        <time>2018-03-04T11:20:33Z</time>
      </trkpt>
      <trkpt lat="46.0637" lon="6.78872">
        <ele>930</ele>
        <time>2018-03-04T11:20:38Z</time>
      </trkpt>
      <trkpt lat="46.0637" lon="6.78871">
        <ele>930</ele>
        <time>2018-03-04T11:20:39Z</time>
      </trkpt>
      <trkpt lat="46.06371" lon="6.78871">
        <ele>930</ele>
        <time>2018-03-04T11:20:40Z</time>
      </trkpt>
      <trkpt lat="46.06372" lon="6.78871">
        <ele>931</ele>
        <time>2018-03-04T11:20:41Z</time>
      </trkpt>
      <trkpt lat="46.06384" lon="6.7886">
        <ele>933</ele>
        <time>2018-03-04T11:20:55Z</time>
      </trkpt>
      <trkpt lat="46.06385" lon="6.78861">
        <ele>933</ele>
        <time>2018-03-04T11:20:56Z</time>
      </trkpt>
      <trkpt lat="46.06385" lon="6.7886">
        <ele>934</ele>
        <time>2018-03-04T11:20:57Z</time>
      </trkpt>
      <trkpt lat="46.06397" lon="6.78867">
        <ele>935</ele>
        <time>2018-03-04T11:21:10Z</time>
      </trkpt>
      <trkpt lat="46.06407" lon="6.78873">
        <ele>936</ele>
        <time>2018-03-04T11:21:24Z</time>
      </trkpt>
      <trkpt lat="46.06409" lon="6.78874">
        <ele>936</ele>
        <time>2018-03-04T11:21:26Z</time>
      </trkpt>
      <trkpt lat="46.06418" lon="6.78872">
        <ele>950</ele>
        <time>2018-03-04T11:21:41Z</time>
      </trkpt>
      <trkpt lat="46.06426" lon="6.78868">
        <ele>951</ele>
        <time>2018-03-04T11:21:54Z</time>
      </trkpt>
      <trkpt lat="46.06427" lon="6.78865">
        <ele>951</ele>
        <time>2018-03-04T11:21:58Z</time>
      </trkpt>
      <trkpt lat="46.06433" lon="6.78863">
        <ele>952</ele>
        <time>2018-03-04T11:22:04Z</time>
      </trkpt>
      <trkpt lat="46.06434" lon="6.78863">
        <ele>952</ele>
        <time>2018-03-04T11:22:05Z</time>
      </trkpt>
      <trkpt lat="46.06446" lon="6.78871">
        <ele>952</ele>
        <time>2018-03-04T11:22:22Z</time>
      </trkpt>
      <trkpt lat="46.0645" lon="6.78872">
        <ele>953</ele>
        <time>2018-03-04T11:22:27Z</time>
      </trkpt>
      <trkpt lat="46.06451" lon="6.78872">
        <ele>953</ele>
        <time>2018-03-04T11:22:28Z</time>
      </trkpt>
      <trkpt lat="46.06459" lon="6.78878">
        <ele>953</ele>
        <time>2018-03-04T11:22:41Z</time>
      </trkpt>
      <trkpt lat="46.06472" lon="6.78881">
        <ele>955</ele>
        <time>2018-03-04T11:22:57Z</time>
      </trkpt>
      <trkpt lat="46.06478" lon="6.78873">
        <ele>956</ele>
        <time>2018-03-04T11:23:10Z</time>
      </trkpt>
      <trkpt lat="46.06482" lon="6.78871">
        <ele>956</ele>
        <time>2018-03-04T11:23:12Z</time>
      </trkpt>
      <trkpt lat="46.06496" lon="6.7886">
        <ele>958</ele>
        <time>2018-03-04T11:23:26Z</time>
      </trkpt>
      <trkpt lat="46.06507" lon="6.78861">
        <ele>971</ele>
        <time>2018-03-04T11:23:39Z</time>
      </trkpt>
      <trkpt lat="46.06518" lon="6.78863">
        <ele>972</ele>
        <time>2018-03-04T11:23:51Z</time>
      </trkpt>
      <trkpt lat="46.06518" lon="6.78863">
        <ele>972</ele>
        <time>2018-03-04T11:23:52Z</time>
      </trkpt>
      <trkpt lat="46.06519" lon="6.78862">
        <ele>972</ele>
        <time>2018-03-04T11:23:53Z</time>
      </trkpt>
      <trkpt lat="46.06532" lon="6.78857">
        <ele>974</ele>
        <time>2018-03-04T11:24:09Z</time>
      </trkpt>
      <trkpt lat="46.06536" lon="6.78862">
        <ele>975</ele>
        <time>2018-03-04T11:24:14Z</time>
      </trkpt>
      <trkpt lat="46.06544" lon="6.78878">
        <ele>975</ele>
        <time>2018-03-04T11:24:27Z</time>
      </trkpt>
      <trkpt lat="46.06543" lon="6.7888">
        <ele>975</ele>
        <time>2018-03-04T11:24:28Z</time>
      </trkpt>
      <trkpt lat="46.06537" lon="6.78895">
        <ele>973</ele>
        <time>2018-03-04T11:24:46Z</time>
      </trkpt>
      <trkpt lat="46.06537" lon="6.78905">
        <ele>972</ele>
        <time>2018-03-04T11:24:54Z</time>
      </trkpt>
      <trkpt lat="46.06546" lon="6.7892">
        <ele>968</ele>
        <time>2018-03-04T11:25:13Z</time>
      </trkpt>
      <trkpt lat="46.06549" lon="6.78922">
        <ele>968</ele>
        <time>2018-03-04T11:25:17Z</time>
      </trkpt>
      <trkpt lat="46.0655" lon="6.78923">
        <ele>968</ele>
        <time>2018-03-04T11:25:18Z</time>
      </trkpt>
      <trkpt lat="46.06557" lon="6.78939">
        <ele>969</ele>
        <time>2018-03-04T11:25:33Z</time>
      </trkpt>
      <trkpt lat="46.06572" lon="6.78947">
        <ele>969</ele>
        <time>2018-03-04T11:25:49Z</time>
      </trkpt>
      <trkpt lat="46.0658" lon="6.78944">
        <ele>970</ele>
        <time>2018-03-04T11:25:59Z</time>
      </trkpt>
      <trkpt lat="46.06589" lon="6.78938">
        <ele>988</ele>
        <time>2018-03-04T11:26:11Z</time>
      </trkpt>
      <trkpt lat="46.0659" lon="6.78936">
        <ele>988</ele>
        <time>2018-03-04T11:26:12Z</time>
      </trkpt>
      <trkpt lat="46.0659" lon="6.78935">
        <ele>988</ele>
        <time>2018-03-04T11:26:13Z</time>
      </trkpt>
      <trkpt lat="46.06591" lon="6.78934">
        <ele>988</ele>
        <time>2018-03-04T11:26:14Z</time>
      </trkpt>
      <trkpt lat="46.06592" lon="6.78934">
        <ele>988</ele>
        <time>2018-03-04T11:26:15Z</time>
      </trkpt>
      <trkpt lat="46.06598" lon="6.78931">
        <ele>989</ele>
        <time>2018-03-04T11:26:22Z</time>
      </trkpt>
      <trkpt lat="46.06599" lon="6.78931">
        <ele>989</ele>
        <time>2018-03-04T11:26:23Z</time>
      </trkpt>
      <trkpt lat="46.06616" lon="6.78941">
        <ele>996</ele>
        <time>2018-03-04T11:26:45Z</time>
      </trkpt>
      <trkpt lat="46.06622" lon="6.78956">
        <ele>996</ele>
        <time>2018-03-04T11:26:58Z</time>
      </trkpt>
      <trkpt lat="46.06629" lon="6.78968">
        <ele>997</ele>
        <time>2018-03-04T11:27:07Z</time>
      </trkpt>
      <trkpt lat="46.06629" lon="6.7897">
        <ele>997</ele>
        <time>2018-03-04T11:27:08Z</time>
      </trkpt>
      <trkpt lat="46.06638" lon="6.78984">
        <ele>999</ele>
        <time>2018-03-04T11:27:20Z</time>
      </trkpt>
      <trkpt lat="46.06641" lon="6.78991">
        <ele>999</ele>
        <time>2018-03-04T11:27:27Z</time>
      </trkpt>
      <trkpt lat="46.06647" lon="6.79">
        <ele>1001</ele>
        <time>2018-03-04T11:27:35Z</time>
      </trkpt>
      <trkpt lat="46.06653" lon="6.79004">
        <ele>996</ele>
        <time>2018-03-04T11:27:44Z</time>
      </trkpt>
      <trkpt lat="46.06665" lon="6.79018">
        <ele>994</ele>
        <time>2018-03-04T11:28:02Z</time>
      </trkpt>
      <trkpt lat="46.06671" lon="6.79035">
        <ele>1015</ele>
        <time>2018-03-04T11:28:19Z</time>
      </trkpt>
      <trkpt lat="46.06674" lon="6.79036">
        <ele>1015</ele>
        <time>2018-03-04T11:28:23Z</time>
      </trkpt>
      <trkpt lat="46.06675" lon="6.79037">
        <ele>1015</ele>
        <time>2018-03-04T11:28:24Z</time>
      </trkpt>
      <trkpt lat="46.06676" lon="6.79037">
        <ele>1016</ele>
        <time>2018-03-04T11:28:26Z</time>
      </trkpt>
      <trkpt lat="46.06679" lon="6.79038">
        <ele>1016</ele>
        <time>2018-03-04T11:28:30Z</time>
      </trkpt>
      <trkpt lat="46.06679" lon="6.79039">
        <ele>1016</ele>
        <time>2018-03-04T11:28:31Z</time>
      </trkpt>
      <trkpt lat="46.0668" lon="6.7904">
        <ele>1016</ele>
        <time>2018-03-04T11:28:32Z</time>
      </trkpt>
      <trkpt lat="46.06683" lon="6.79043">
        <ele>1016</ele>
        <time>2018-03-04T11:28:37Z</time>
      </trkpt>
      <trkpt lat="46.06695" lon="6.79048">
        <ele>1018</ele>
        <time>2018-03-04T11:28:49Z</time>
      </trkpt>
      <trkpt lat="46.06696" lon="6.7905">
        <ele>1019</ele>
        <time>2018-03-04T11:28:50Z</time>
      </trkpt>
      <trkpt lat="46.06702" lon="6.79066">
        <ele>1019</ele>
        <time>2018-03-04T11:29:03Z</time>
      </trkpt>
      <trkpt lat="46.06704" lon="6.79068">
        <ele>1019</ele>
        <time>2018-03-04T11:29:06Z</time>
      </trkpt>
      <trkpt lat="46.06706" lon="6.79068">
        <ele>1020</ele>
        <time>2018-03-04T11:29:07Z</time>
      </trkpt>
      <trkpt lat="46.06706" lon="6.79069">
        <ele>1020</ele>
        <time>2018-03-04T11:29:08Z</time>
      </trkpt>
      <trkpt lat="46.06708" lon="6.79078">
        <ele>1020</ele>
        <time>2018-03-04T11:29:16Z</time>
      </trkpt>
      <trkpt lat="46.06709" lon="6.79081">
        <ele>1021</ele>
        <time>2018-03-04T11:29:18Z</time>
      </trkpt>
      <trkpt lat="46.0671" lon="6.79083">
        <ele>1021</ele>
        <time>2018-03-04T11:29:19Z</time>
      </trkpt>
      <trkpt lat="46.0671" lon="6.79085">
        <ele>1012</ele>
        <time>2018-03-04T11:29:21Z</time>
      </trkpt>
      <trkpt lat="46.06714" lon="6.79087">
        <ele>1013</ele>
        <time>2018-03-04T11:29:25Z</time>
      </trkpt>
      <trkpt lat="46.06715" lon="6.79088">
        <ele>1014</ele>
        <time>2018-03-04T11:29:26Z</time>
      </trkpt>
      <trkpt lat="46.0672" lon="6.79096">
        <ele>1016</ele>
        <time>2018-03-04T11:29:36Z</time>
      </trkpt>
      <trkpt lat="46.06729" lon="6.79109">
        <ele>1017</ele>
        <time>2018-03-04T11:29:50Z</time>
      </trkpt>
      <trkpt lat="46.06736" lon="6.7912">
        <ele>1016</ele>
        <time>2018-03-04T11:30:04Z</time>
      </trkpt>
      <trkpt lat="46.06738" lon="6.79121">
        <ele>1017</ele>
        <time>2018-03-04T11:30:05Z</time>
      </trkpt>
      <trkpt lat="46.06738" lon="6.79122">
        <ele>1017</ele>
        <time>2018-03-04T11:30:06Z</time>
      </trkpt>
      <trkpt lat="46.06744" lon="6.79126">
        <ele>1017</ele>
        <time>2018-03-04T11:30:13Z</time>
      </trkpt>
      <trkpt lat="46.06746" lon="6.79128">
        <ele>1017</ele>
        <time>2018-03-04T11:30:14Z</time>
      </trkpt>
      <trkpt lat="46.06752" lon="6.79136">
        <ele>1037</ele>
        <time>2018-03-04T11:30:28Z</time>
      </trkpt>
      <trkpt lat="46.06755" lon="6.79143">
        <ele>1035</ele>
        <time>2018-03-04T11:30:36Z</time>
      </trkpt>
      <trkpt lat="46.06761" lon="6.79154">
        <ele>1034</ele>
        <time>2018-03-04T11:30:50Z</time>
      </trkpt>
      <trkpt lat="46.06761" lon="6.79165">
        <ele>1032</ele>
        <time>2018-03-04T11:30:57Z</time>
      </trkpt>
      <trkpt lat="46.06766" lon="6.79171">
        <ele>1030</ele>
        <time>2018-03-04T11:31:10Z</time>
      </trkpt>
      <trkpt lat="46.06772" lon="6.7918">
        <ele>1031</ele>
        <time>2018-03-04T11:31:26Z</time>
      </trkpt>
      <trkpt lat="46.06778" lon="6.79188">
        <ele>1032</ele>
        <time>2018-03-04T11:31:39Z</time>
      </trkpt>
      <trkpt lat="46.06782" lon="6.7919">
        <ele>1032</ele>
        <time>2018-03-04T11:31:45Z</time>
      </trkpt>
      <trkpt lat="46.06789" lon="6.79198">
        <ele>1033</ele>
        <time>2018-03-04T11:31:58Z</time>
      </trkpt>
      <trkpt lat="46.06795" lon="6.79201">
        <ele>1034</ele>
        <time>2018-03-04T11:32:05Z</time>
      </trkpt>
      <trkpt lat="46.06805" lon="6.79209">
        <ele>1036</ele>
        <time>2018-03-04T11:32:20Z</time>
      </trkpt>
      <trkpt lat="46.0681" lon="6.79217">
        <ele>1036</ele>
        <time>2018-03-04T11:32:33Z</time>
      </trkpt>
      <trkpt lat="46.06815" lon="6.79216">
        <ele>1037</ele>
        <time>2018-03-04T11:32:49Z</time>
      </trkpt>
      <trkpt lat="46.06815" lon="6.79218">
        <ele>1037</ele>
        <time>2018-03-04T11:33:00Z</time>
      </trkpt>
      <trkpt lat="46.06815" lon="6.79218">
        <ele>1037</ele>
        <time>2018-03-04T11:33:08Z</time>
      </trkpt>
      <trkpt lat="46.06817" lon="6.79217">
        <ele>1037</ele>
        <time>2018-03-04T11:33:12Z</time>
      </trkpt>
      <trkpt lat="46.06817" lon="6.79216">
        <ele>1037</ele>
        <time>2018-03-04T11:33:16Z</time>
      </trkpt>
      <trkpt lat="46.06816" lon="6.79215">
        <ele>1037</ele>
        <time>2018-03-04T11:33:20Z</time>
      </trkpt>
      <trkpt lat="46.06816" lon="6.79215">
        <ele>1037</ele>
        <time>2018-03-04T11:33:22Z</time>
      </trkpt>
      <trkpt lat="46.06816" lon="6.79216">
        <ele>1037</ele>
        <time>2018-03-04T11:33:24Z</time>
      </trkpt>
      <trkpt lat="46.06816" lon="6.79218">
        <ele>1037</ele>
        <time>2018-03-04T11:33:26Z</time>
      </trkpt>
      <trkpt lat="46.06814" lon="6.79218">
        <ele>1037</ele>
        <time>2018-03-04T11:33:35Z</time>
      </trkpt>
      <trkpt lat="46.06813" lon="6.79219">
        <ele>1037</ele>
        <time>2018-03-04T11:33:42Z</time>
      </trkpt>
      <trkpt lat="46.06811" lon="6.79218">
        <ele>1036</ele>
        <time>2018-03-04T11:33:51Z</time>
      </trkpt>
      <trkpt lat="46.06811" lon="6.79218">
        <ele>1036</ele>
        <time>2018-03-04T11:33:53Z</time>
      </trkpt>
      <trkpt lat="46.06811" lon="6.79218">
        <ele>1036</ele>
        <time>2018-03-04T11:33:56Z</time>
      </trkpt>
      <trkpt lat="46.06812" lon="6.79216">
        <ele>1037</ele>
        <time>2018-03-04T11:34:02Z</time>
      </trkpt>
      <trkpt lat="46.06812" lon="6.79215">
        <ele>1037</ele>
        <time>2018-03-04T11:34:08Z</time>
      </trkpt>
      <trkpt lat="46.06812" lon="6.79215">
        <ele>1037</ele>
        <time>2018-03-04T11:34:16Z</time>
      </trkpt>
      <trkpt lat="46.06811" lon="6.79217">
        <ele>1036</ele>
        <time>2018-03-04T11:34:18Z</time>
      </trkpt>
      <trkpt lat="46.06811" lon="6.79217">
        <ele>1036</ele>
        <time>2018-03-04T11:34:20Z</time>
      </trkpt>
      <trkpt lat="46.06811" lon="6.79218">
        <ele>1036</ele>
        <time>2018-03-04T11:34:21Z</time>
      </trkpt>
      <trkpt lat="46.0681" lon="6.79218">
        <ele>1036</ele>
        <time>2018-03-04T11:34:25Z</time>
      </trkpt>
      <trkpt lat="46.0681" lon="6.79217">
        <ele>1036</ele>
        <time>2018-03-04T11:34:29Z</time>
      </trkpt>
      <trkpt lat="46.06811" lon="6.79215">
        <ele>1036</ele>
        <time>2018-03-04T11:34:36Z</time>
      </trkpt>
      <trkpt lat="46.0681" lon="6.79215">
        <ele>1036</ele>
        <time>2018-03-04T11:34:43Z</time>
      </trkpt>
      <trkpt lat="46.0681" lon="6.79212">
        <ele>1036</ele>
        <time>2018-03-04T11:35:02Z</time>
      </trkpt>
      <trkpt lat="46.06811" lon="6.7921">
        <ele>1037</ele>
        <time>2018-03-04T11:35:08Z</time>
      </trkpt>
      <trkpt lat="46.06813" lon="6.79208">
        <ele>1037</ele>
        <time>2018-03-04T11:35:12Z</time>
      </trkpt>
      <trkpt lat="46.0681" lon="6.79205">
        <ele>1037</ele>
        <time>2018-03-04T11:35:37Z</time>
      </trkpt>
      <trkpt lat="46.06808" lon="6.79204">
        <ele>1037</ele>
        <time>2018-03-04T11:35:41Z</time>
      </trkpt>
      <trkpt lat="46.06806" lon="6.79195">
        <ele>1037</ele>
        <time>2018-03-04T11:35:51Z</time>
      </trkpt>
      <trkpt lat="46.06806" lon="6.79194">
        <ele>1037</ele>
        <time>2018-03-04T11:35:52Z</time>
      </trkpt>
      <trkpt lat="46.06805" lon="6.79191">
        <ele>1038</ele>
        <time>2018-03-04T11:35:55Z</time>
      </trkpt>
      <trkpt lat="46.06805" lon="6.79188">
        <ele>1038</ele>
        <time>2018-03-04T11:35:58Z</time>
      </trkpt>
      <trkpt lat="46.06801" lon="6.79188">
        <ele>1037</ele>
        <time>2018-03-04T11:36:02Z</time>
      </trkpt>
      <trkpt lat="46.068" lon="6.79187">
        <ele>1037</ele>
        <time>2018-03-04T11:36:05Z</time>
      </trkpt>
      <trkpt lat="46.06799" lon="6.79181">
        <ele>1037</ele>
        <time>2018-03-04T11:36:10Z</time>
      </trkpt>
      <trkpt lat="46.06799" lon="6.79179">
        <ele>1037</ele>
        <time>2018-03-04T11:36:12Z</time>
      </trkpt>
      <trkpt lat="46.06797" lon="6.79174">
        <ele>1037</ele>
        <time>2018-03-04T11:36:18Z</time>
      </trkpt>
      <trkpt lat="46.06801" lon="6.7917">
        <ele>1038</ele>
        <time>2018-03-04T11:36:26Z</time>
      </trkpt>
      <trkpt lat="46.06801" lon="6.7917">
        <ele>1038</ele>
        <time>2018-03-04T11:36:27Z</time>
      </trkpt>
      <trkpt lat="46.06811" lon="6.79169">
        <ele>1041</ele>
        <time>2018-03-04T11:36:46Z</time>
      </trkpt>
      <trkpt lat="46.0682" lon="6.79171">
        <ele>1045</ele>
        <time>2018-03-04T11:37:00Z</time>
      </trkpt>
      <trkpt lat="46.06825" lon="6.79178">
        <ele>1046</ele>
        <time>2018-03-04T11:37:10Z</time>
      </trkpt>
      <trkpt lat="46.06831" lon="6.79196">
        <ele>1041</ele>
        <time>2018-03-04T11:37:27Z</time>
      </trkpt>
      <trkpt lat="46.06841" lon="6.79205">
        <ele>1035</ele>
        <time>2018-03-04T11:37:42Z</time>
      </trkpt>
      <trkpt lat="46.06848" lon="6.79209">
        <ele>1034</ele>
        <time>2018-03-04T11:37:59Z</time>
      </trkpt>
      <trkpt lat="46.06851" lon="6.7921">
        <ele>1033</ele>
        <time>2018-03-04T11:38:03Z</time>
      </trkpt>
      <trkpt lat="46.06857" lon="6.79216">
        <ele>1031</ele>
        <time>2018-03-04T11:38:14Z</time>
      </trkpt>
      <trkpt lat="46.06862" lon="6.79221">
        <ele>1030</ele>
        <time>2018-03-04T11:38:22Z</time>
      </trkpt>
      <trkpt lat="46.0687" lon="6.79232">
        <ele>1027</ele>
        <time>2018-03-04T11:38:35Z</time>
      </trkpt>
      <trkpt lat="46.06878" lon="6.79245">
        <ele>1022</ele>
        <time>2018-03-04T11:38:50Z</time>
      </trkpt>
      <trkpt lat="46.06879" lon="6.7927">
        <ele>1013</ele>
        <time>2018-03-04T11:39:11Z</time>
      </trkpt>
      <trkpt lat="46.0688" lon="6.7928">
        <ele>1012</ele>
        <time>2018-03-04T11:39:20Z</time>
      </trkpt>
      <trkpt lat="46.0688" lon="6.79282">
        <ele>1012</ele>
        <time>2018-03-04T11:39:21Z</time>
      </trkpt>
      <trkpt lat="46.06884" lon="6.79298">
        <ele>1011</ele>
        <time>2018-03-04T11:39:35Z</time>
      </trkpt>
      <trkpt lat="46.06886" lon="6.79314">
        <ele>1011</ele>
        <time>2018-03-04T11:39:48Z</time>
      </trkpt>
      <trkpt lat="46.06885" lon="6.79324">
        <ele>1011</ele>
        <time>2018-03-04T11:39:58Z</time>
      </trkpt>
      <trkpt lat="46.06885" lon="6.79327">
        <ele>1011</ele>
        <time>2018-03-04T11:40:00Z</time>
      </trkpt>
      <trkpt lat="46.06886" lon="6.79347">
        <ele>1003</ele>
        <time>2018-03-04T11:40:19Z</time>
      </trkpt>
      <trkpt lat="46.06891" lon="6.79368">
        <ele>1002</ele>
        <time>2018-03-04T11:40:36Z</time>
      </trkpt>
      <trkpt lat="46.06893" lon="6.79373">
        <ele>1002</ele>
        <time>2018-03-04T11:40:40Z</time>
      </trkpt>
      <trkpt lat="46.06894" lon="6.79374">
        <ele>1002</ele>
        <time>2018-03-04T11:40:41Z</time>
      </trkpt>
      <trkpt lat="46.06894" lon="6.79376">
        <ele>1002</ele>
        <time>2018-03-04T11:40:42Z</time>
      </trkpt>
      <trkpt lat="46.06902" lon="6.79384">
        <ele>1003</ele>
        <time>2018-03-04T11:40:55Z</time>
      </trkpt>
      <trkpt lat="46.06906" lon="6.79394">
        <ele>1004</ele>
        <time>2018-03-04T11:41:07Z</time>
      </trkpt>
      <trkpt lat="46.06907" lon="6.79404">
        <ele>1006</ele>
        <time>2018-03-04T11:41:22Z</time>
      </trkpt>
      <trkpt lat="46.06907" lon="6.79404">
        <ele>1007</ele>
        <time>2018-03-04T11:41:25Z</time>
      </trkpt>
      <trkpt lat="46.06907" lon="6.79405">
        <ele>1006</ele>
        <time>2018-03-04T11:41:32Z</time>
      </trkpt>
      <trkpt lat="46.06909" lon="6.7941">
        <ele>1009</ele>
        <time>2018-03-04T11:41:55Z</time>
      </trkpt>
      <trkpt lat="46.0691" lon="6.79413">
        <ele>1010</ele>
        <time>2018-03-04T11:42:01Z</time>
      </trkpt>
      <trkpt lat="46.06908" lon="6.79421">
        <ele>1005</ele>
        <time>2018-03-04T11:42:26Z</time>
      </trkpt>
      <trkpt lat="46.06909" lon="6.79422">
        <ele>1006</ele>
        <time>2018-03-04T11:42:32Z</time>
      </trkpt>
      <trkpt lat="46.06909" lon="6.79424">
        <ele>1005</ele>
        <time>2018-03-04T11:42:34Z</time>
      </trkpt>
      <trkpt lat="46.06917" lon="6.79429">
        <ele>1016</ele>
        <time>2018-03-04T11:42:43Z</time>
      </trkpt>
      <trkpt lat="46.0692" lon="6.79433">
        <ele>1016</ele>
        <time>2018-03-04T11:42:50Z</time>
      </trkpt>
      <trkpt lat="46.06921" lon="6.79435">
        <ele>1016</ele>
        <time>2018-03-04T11:42:51Z</time>
      </trkpt>
      <trkpt lat="46.06921" lon="6.79438">
        <ele>1016</ele>
        <time>2018-03-04T11:42:54Z</time>
      </trkpt>
      <trkpt lat="46.06924" lon="6.79441">
        <ele>1016</ele>
        <time>2018-03-04T11:42:58Z</time>
      </trkpt>
      <trkpt lat="46.06926" lon="6.79444">
        <ele>1016</ele>
        <time>2018-03-04T11:43:02Z</time>
      </trkpt>
      <trkpt lat="46.06929" lon="6.79446">
        <ele>1016</ele>
        <time>2018-03-04T11:43:07Z</time>
      </trkpt>
      <trkpt lat="46.0693" lon="6.79448">
        <ele>1016</ele>
        <time>2018-03-04T11:43:12Z</time>
      </trkpt>
      <trkpt lat="46.06936" lon="6.79459">
        <ele>1017</ele>
        <time>2018-03-04T11:43:24Z</time>
      </trkpt>
      <trkpt lat="46.06941" lon="6.79475">
        <ele>1017</ele>
        <time>2018-03-04T11:43:37Z</time>
      </trkpt>
      <trkpt lat="46.06946" lon="6.7949">
        <ele>1017</ele>
        <time>2018-03-04T11:43:53Z</time>
      </trkpt>
      <trkpt lat="46.06949" lon="6.79497">
        <ele>1017</ele>
        <time>2018-03-04T11:43:59Z</time>
      </trkpt>
      <trkpt lat="46.06955" lon="6.79507">
        <ele>1021</ele>
        <time>2018-03-04T11:44:12Z</time>
      </trkpt>
      <trkpt lat="46.06963" lon="6.7951">
        <ele>1022</ele>
        <time>2018-03-04T11:44:24Z</time>
      </trkpt>
      <trkpt lat="46.06964" lon="6.79504">
        <ele>1021</ele>
        <time>2018-03-04T11:44:35Z</time>
      </trkpt>
      <trkpt lat="46.06963" lon="6.79496">
        <ele>1017</ele>
        <time>2018-03-04T11:44:43Z</time>
      </trkpt>
      <trkpt lat="46.06972" lon="6.79474">
        <ele>1017</ele>
        <time>2018-03-04T11:45:02Z</time>
      </trkpt>
      <trkpt lat="46.06972" lon="6.79451">
        <ele>1017</ele>
        <time>2018-03-04T11:45:19Z</time>
      </trkpt>
      <trkpt lat="46.0697" lon="6.79435">
        <ele>1017</ele>
        <time>2018-03-04T11:45:32Z</time>
      </trkpt>
      <trkpt lat="46.06968" lon="6.79416">
        <ele>1015</ele>
        <time>2018-03-04T11:45:48Z</time>
      </trkpt>
      <trkpt lat="46.06967" lon="6.79395">
        <ele>1014</ele>
        <time>2018-03-04T11:46:03Z</time>
      </trkpt>
      <trkpt lat="46.06971" lon="6.79378">
        <ele>1014</ele>
        <time>2018-03-04T11:46:16Z</time>
      </trkpt>
      <trkpt lat="46.06972" lon="6.79378">
        <ele>1014</ele>
        <time>2018-03-04T11:46:17Z</time>
      </trkpt>
      <trkpt lat="46.06973" lon="6.79377">
        <ele>1014</ele>
        <time>2018-03-04T11:46:18Z</time>
      </trkpt>
      <trkpt lat="46.06978" lon="6.79384">
        <ele>1014</ele>
        <time>2018-03-04T11:46:31Z</time>
      </trkpt>
      <trkpt lat="46.06979" lon="6.7939">
        <ele>1014</ele>
        <time>2018-03-04T11:46:39Z</time>
      </trkpt>
      <trkpt lat="46.06985" lon="6.79398">
        <ele>1015</ele>
        <time>2018-03-04T11:46:46Z</time>
      </trkpt>
      <trkpt lat="46.06994" lon="6.79409">
        <ele>1015</ele>
        <time>2018-03-04T11:47:01Z</time>
      </trkpt>
      <trkpt lat="46.07001" lon="6.79419">
        <ele>1017</ele>
        <time>2018-03-04T11:47:14Z</time>
      </trkpt>
      <trkpt lat="46.07008" lon="6.79432">
        <ele>1022</ele>
        <time>2018-03-04T11:47:28Z</time>
      </trkpt>
      <trkpt lat="46.07016" lon="6.79438">
        <ele>1024</ele>
        <time>2018-03-04T11:47:40Z</time>
      </trkpt>
      <trkpt lat="46.07031" lon="6.79445">
        <ele>1027</ele>
        <time>2018-03-04T11:47:57Z</time>
      </trkpt>
      <trkpt lat="46.07032" lon="6.79445">
        <ele>1027</ele>
        <time>2018-03-04T11:47:58Z</time>
      </trkpt>
      <trkpt lat="46.07039" lon="6.79449">
        <ele>1028</ele>
        <time>2018-03-04T11:48:07Z</time>
      </trkpt>
      <trkpt lat="46.07042" lon="6.79456">
        <ele>1028</ele>
        <time>2018-03-04T11:48:14Z</time>
      </trkpt>
      <trkpt lat="46.07046" lon="6.79462">
        <ele>1029</ele>
        <time>2018-03-04T11:48:19Z</time>
      </trkpt>
      <trkpt lat="46.07046" lon="6.79464">
        <ele>1029</ele>
        <time>2018-03-04T11:48:20Z</time>
      </trkpt>
      <trkpt lat="46.07056" lon="6.79481">
        <ele>1030</ele>
        <time>2018-03-04T11:48:35Z</time>
      </trkpt>
      <trkpt lat="46.0706" lon="6.79484">
        <ele>1031</ele>
        <time>2018-03-04T11:48:40Z</time>
      </trkpt>
      <trkpt lat="46.0706" lon="6.79486">
        <ele>1031</ele>
        <time>2018-03-04T11:48:41Z</time>
      </trkpt>
      <trkpt lat="46.07061" lon="6.79486">
        <ele>1032</ele>
        <time>2018-03-04T11:48:42Z</time>
      </trkpt>
      <trkpt lat="46.07071" lon="6.795">
        <ele>1034</ele>
        <time>2018-03-04T11:48:55Z</time>
      </trkpt>
      <trkpt lat="46.07072" lon="6.79501">
        <ele>1038</ele>
        <time>2018-03-04T11:48:56Z</time>
      </trkpt>
      <trkpt lat="46.0708" lon="6.7951">
        <ele>1038</ele>
        <time>2018-03-04T11:49:09Z</time>
      </trkpt>
      <trkpt lat="46.07082" lon="6.79516">
        <ele>1038</ele>
        <time>2018-03-04T11:49:14Z</time>
      </trkpt>
      <trkpt lat="46.07085" lon="6.79531">
        <ele>1056</ele>
        <time>2018-03-04T11:49:28Z</time>
      </trkpt>
      <trkpt lat="46.07089" lon="6.79532">
        <ele>1056</ele>
        <time>2018-03-04T11:49:31Z</time>
      </trkpt>
      <trkpt lat="46.0709" lon="6.79532">
        <ele>1057</ele>
        <time>2018-03-04T11:49:32Z</time>
      </trkpt>
      <trkpt lat="46.07091" lon="6.79525">
        <ele>1055</ele>
        <time>2018-03-04T11:49:44Z</time>
      </trkpt>
      <trkpt lat="46.07096" lon="6.79514">
        <ele>1052</ele>
        <time>2018-03-04T11:49:55Z</time>
      </trkpt>
      <trkpt lat="46.07097" lon="6.79503">
        <ele>1050</ele>
        <time>2018-03-04T11:50:06Z</time>
      </trkpt>
      <trkpt lat="46.07093" lon="6.79485">
        <ele>1047</ele>
        <time>2018-03-04T11:50:22Z</time>
      </trkpt>
      <trkpt lat="46.0709" lon="6.79481">
        <ele>1048</ele>
        <time>2018-03-04T11:50:28Z</time>
      </trkpt>
      <trkpt lat="46.07088" lon="6.79481">
        <ele>1047</ele>
        <time>2018-03-04T11:50:29Z</time>
      </trkpt>
      <trkpt lat="46.07082" lon="6.79472">
        <ele>1033</ele>
        <time>2018-03-04T11:50:39Z</time>
      </trkpt>
      <trkpt lat="46.07081" lon="6.79468">
        <ele>1032</ele>
        <time>2018-03-04T11:50:42Z</time>
      </trkpt>
      <trkpt lat="46.07081" lon="6.79462">
        <ele>1032</ele>
        <time>2018-03-04T11:50:45Z</time>
      </trkpt>
      <trkpt lat="46.07081" lon="6.7946">
        <ele>1032</ele>
        <time>2018-03-04T11:50:46Z</time>
      </trkpt>
      <trkpt lat="46.07081" lon="6.79458">
        <ele>1032</ele>
        <time>2018-03-04T11:50:47Z</time>
      </trkpt>
      <trkpt lat="46.0708" lon="6.79434">
        <ele>1034</ele>
        <time>2018-03-04T11:51:04Z</time>
      </trkpt>
      <trkpt lat="46.07081" lon="6.79421">
        <ele>1038</ele>
        <time>2018-03-04T11:51:19Z</time>
      </trkpt>
      <trkpt lat="46.07085" lon="6.79429">
        <ele>1046</ele>
        <time>2018-03-04T11:51:42Z</time>
      </trkpt>
      <trkpt lat="46.07093" lon="6.79439">
        <ele>1049</ele>
        <time>2018-03-04T11:51:56Z</time>
      </trkpt>
      <trkpt lat="46.07095" lon="6.79443">
        <ele>1050</ele>
        <time>2018-03-04T11:52:02Z</time>
      </trkpt>
      <trkpt lat="46.07106" lon="6.79452">
        <ele>1052</ele>
        <time>2018-03-04T11:52:18Z</time>
      </trkpt>
      <trkpt lat="46.07109" lon="6.79458">
        <ele>1053</ele>
        <time>2018-03-04T11:52:28Z</time>
      </trkpt>
      <trkpt lat="46.07127" lon="6.79462">
        <ele>1056</ele>
        <time>2018-03-04T11:52:48Z</time>
      </trkpt>
      <trkpt lat="46.07134" lon="6.7946">
        <ele>1058</ele>
        <time>2018-03-04T11:53:00Z</time>
      </trkpt>
      <trkpt lat="46.07135" lon="6.79465">
        <ele>1058</ele>
        <time>2018-03-04T11:53:04Z</time>
      </trkpt>
      <trkpt lat="46.07138" lon="6.79465">
        <ele>1059</ele>
        <time>2018-03-04T11:53:07Z</time>
      </trkpt>
      <trkpt lat="46.07143" lon="6.7947">
        <ele>1060</ele>
        <time>2018-03-04T11:53:17Z</time>
      </trkpt>
      <trkpt lat="46.0715" lon="6.79481">
        <ele>1063</ele>
        <time>2018-03-04T11:53:30Z</time>
      </trkpt>
      <trkpt lat="46.07152" lon="6.79484">
        <ele>1064</ele>
        <time>2018-03-04T11:53:31Z</time>
      </trkpt>
      <trkpt lat="46.0716" lon="6.7951">
        <ele>1071</ele>
        <time>2018-03-04T11:53:49Z</time>
      </trkpt>
      <trkpt lat="46.0717" lon="6.79518">
        <ele>1085</ele>
        <time>2018-03-04T11:54:05Z</time>
      </trkpt>
      <trkpt lat="46.07171" lon="6.79517">
        <ele>1085</ele>
        <time>2018-03-04T11:54:07Z</time>
      </trkpt>
      <trkpt lat="46.07171" lon="6.79515">
        <ele>1084</ele>
        <time>2018-03-04T11:54:09Z</time>
      </trkpt>
      <trkpt lat="46.07171" lon="6.79513">
        <ele>1083</ele>
        <time>2018-03-04T11:54:10Z</time>
      </trkpt>
      <trkpt lat="46.07172" lon="6.79504">
        <ele>1080</ele>
        <time>2018-03-04T11:54:19Z</time>
      </trkpt>
      <trkpt lat="46.07173" lon="6.79505">
        <ele>1081</ele>
        <time>2018-03-04T11:54:20Z</time>
      </trkpt>
      <trkpt lat="46.07175" lon="6.79509">
        <ele>1083</ele>
        <time>2018-03-04T11:54:24Z</time>
      </trkpt>
      <trkpt lat="46.07176" lon="6.7951">
        <ele>1083</ele>
        <time>2018-03-04T11:54:25Z</time>
      </trkpt>
      <trkpt lat="46.07176" lon="6.79511">
        <ele>1084</ele>
        <time>2018-03-04T11:54:26Z</time>
      </trkpt>
      <trkpt lat="46.07176" lon="6.79512">
        <ele>1084</ele>
        <time>2018-03-04T11:54:27Z</time>
      </trkpt>
      <trkpt lat="46.07185" lon="6.79523">
        <ele>1089</ele>
        <time>2018-03-04T11:54:43Z</time>
      </trkpt>
      <trkpt lat="46.07186" lon="6.79523">
        <ele>1089</ele>
        <time>2018-03-04T11:54:44Z</time>
      </trkpt>
      <trkpt lat="46.07188" lon="6.79523">
        <ele>1090</ele>
        <time>2018-03-04T11:54:45Z</time>
      </trkpt>
      <trkpt lat="46.07189" lon="6.79523">
        <ele>1090</ele>
        <time>2018-03-04T11:54:46Z</time>
      </trkpt>
      <trkpt lat="46.0719" lon="6.79524">
        <ele>1090</ele>
        <time>2018-03-04T11:54:47Z</time>
      </trkpt>
      <trkpt lat="46.0719" lon="6.79524">
        <ele>1090</ele>
        <time>2018-03-04T11:54:48Z</time>
      </trkpt>
      <trkpt lat="46.07191" lon="6.79525">
        <ele>1091</ele>
        <time>2018-03-04T11:54:49Z</time>
      </trkpt>
      <trkpt lat="46.07208" lon="6.79532">
        <ele>1094</ele>
        <time>2018-03-04T11:55:06Z</time>
      </trkpt>
      <trkpt lat="46.07219" lon="6.79543">
        <ele>1097</ele>
        <time>2018-03-04T11:55:23Z</time>
      </trkpt>
      <trkpt lat="46.0723" lon="6.79545">
        <ele>1099</ele>
        <time>2018-03-04T11:55:41Z</time>
      </trkpt>
      <trkpt lat="46.07227" lon="6.79539">
        <ele>1098</ele>
        <time>2018-03-04T11:55:52Z</time>
      </trkpt>
      <trkpt lat="46.07221" lon="6.79534">
        <ele>1097</ele>
        <time>2018-03-04T11:55:59Z</time>
      </trkpt>
      <trkpt lat="46.07213" lon="6.79511">
        <ele>1094</ele>
        <time>2018-03-04T11:56:16Z</time>
      </trkpt>
      <trkpt lat="46.07215" lon="6.79498">
        <ele>1090</ele>
        <time>2018-03-04T11:56:29Z</time>
      </trkpt>
      <trkpt lat="46.07216" lon="6.79497">
        <ele>1090</ele>
        <time>2018-03-04T11:56:30Z</time>
      </trkpt>
      <trkpt lat="46.07225" lon="6.79501">
        <ele>1096</ele>
        <time>2018-03-04T11:56:42Z</time>
      </trkpt>
      <trkpt lat="46.07225" lon="6.79503">
        <ele>1096</ele>
        <time>2018-03-04T11:56:43Z</time>
      </trkpt>
      <trkpt lat="46.0724" lon="6.79521">
        <ele>1099</ele>
        <time>2018-03-04T11:57:06Z</time>
      </trkpt>
      <trkpt lat="46.07241" lon="6.79522">
        <ele>1099</ele>
        <time>2018-03-04T11:57:07Z</time>
      </trkpt>
      <trkpt lat="46.07249" lon="6.79524">
        <ele>1099</ele>
        <time>2018-03-04T11:57:14Z</time>
      </trkpt>
      <trkpt lat="46.0726" lon="6.79526">
        <ele>1114</ele>
        <time>2018-03-04T11:57:26Z</time>
      </trkpt>
      <trkpt lat="46.0728" lon="6.79533">
        <ele>1118</ele>
        <time>2018-03-04T11:57:44Z</time>
      </trkpt>
      <trkpt lat="46.0729" lon="6.7954">
        <ele>1120</ele>
        <time>2018-03-04T11:58:04Z</time>
      </trkpt>
      <trkpt lat="46.07289" lon="6.79559">
        <ele>1121</ele>
        <time>2018-03-04T11:58:16Z</time>
      </trkpt>
      <trkpt lat="46.07284" lon="6.79596">
        <ele>1130</ele>
        <time>2018-03-04T11:58:38Z</time>
      </trkpt>
      <trkpt lat="46.07284" lon="6.79603">
        <ele>1131</ele>
        <time>2018-03-04T11:58:42Z</time>
      </trkpt>
      <trkpt lat="46.07284" lon="6.79605">
        <ele>1131</ele>
        <time>2018-03-04T11:58:43Z</time>
      </trkpt>
      <trkpt lat="46.07284" lon="6.79606">
        <ele>1132</ele>
        <time>2018-03-04T11:58:44Z</time>
      </trkpt>
      <trkpt lat="46.07287" lon="6.79609">
        <ele>1132</ele>
        <time>2018-03-04T11:58:47Z</time>
      </trkpt>
      <trkpt lat="46.07288" lon="6.7961">
        <ele>1132</ele>
        <time>2018-03-04T11:58:48Z</time>
      </trkpt>
      <trkpt lat="46.07288" lon="6.79611">
        <ele>1133</ele>
        <time>2018-03-04T11:58:49Z</time>
      </trkpt>
      <trkpt lat="46.07293" lon="6.79618">
        <ele>1134</ele>
        <time>2018-03-04T11:58:55Z</time>
      </trkpt>
      <trkpt lat="46.07295" lon="6.79622">
        <ele>1135</ele>
        <time>2018-03-04T11:58:59Z</time>
      </trkpt>
      <trkpt lat="46.07295" lon="6.79623">
        <ele>1135</ele>
        <time>2018-03-04T11:59:00Z</time>
      </trkpt>
      <trkpt lat="46.07296" lon="6.79624">
        <ele>1135</ele>
        <time>2018-03-04T11:59:01Z</time>
      </trkpt>
      <trkpt lat="46.07297" lon="6.79629">
        <ele>1136</ele>
        <time>2018-03-04T11:59:06Z</time>
      </trkpt>
      <trkpt lat="46.07298" lon="6.79631">
        <ele>1136</ele>
        <time>2018-03-04T11:59:07Z</time>
      </trkpt>
      <trkpt lat="46.07313" lon="6.79648">
        <ele>1140</ele>
        <time>2018-03-04T11:59:26Z</time>
      </trkpt>
      <trkpt lat="46.07313" lon="6.79649">
        <ele>1141</ele>
        <time>2018-03-04T11:59:27Z</time>
      </trkpt>
      <trkpt lat="46.07314" lon="6.79651">
        <ele>1141</ele>
        <time>2018-03-04T11:59:28Z</time>
      </trkpt>
      <trkpt lat="46.07318" lon="6.79677">
        <ele>1152</ele>
        <time>2018-03-04T11:59:46Z</time>
      </trkpt>
      <trkpt lat="46.07319" lon="6.79678">
        <ele>1152</ele>
        <time>2018-03-04T11:59:47Z</time>
      </trkpt>
      <trkpt lat="46.07313" lon="6.79704">
        <ele>1153</ele>
        <time>2018-03-04T12:00:08Z</time>
      </trkpt>
      <trkpt lat="46.07312" lon="6.79727">
        <ele>1157</ele>
        <time>2018-03-04T12:00:26Z</time>
      </trkpt>
      <trkpt lat="46.07315" lon="6.79748">
        <ele>1160</ele>
        <time>2018-03-04T12:00:38Z</time>
      </trkpt>
      <trkpt lat="46.07316" lon="6.79749">
        <ele>1161</ele>
        <time>2018-03-04T12:00:39Z</time>
      </trkpt>
      <trkpt lat="46.07317" lon="6.7975">
        <ele>1167</ele>
        <time>2018-03-04T12:00:40Z</time>
      </trkpt>
      <trkpt lat="46.07317" lon="6.79752">
        <ele>1167</ele>
        <time>2018-03-04T12:00:41Z</time>
      </trkpt>
      <trkpt lat="46.07317" lon="6.79755">
        <ele>1167</ele>
        <time>2018-03-04T12:00:43Z</time>
      </trkpt>
      <trkpt lat="46.07317" lon="6.79759">
        <ele>1167</ele>
        <time>2018-03-04T12:00:46Z</time>
      </trkpt>
      <trkpt lat="46.07317" lon="6.79763">
        <ele>1167</ele>
        <time>2018-03-04T12:00:49Z</time>
      </trkpt>
      <trkpt lat="46.07316" lon="6.79791">
        <ele>1167</ele>
        <time>2018-03-04T12:01:10Z</time>
      </trkpt>
      <trkpt lat="46.0731" lon="6.79808">
        <ele>1168</ele>
        <time>2018-03-04T12:01:28Z</time>
      </trkpt>
      <trkpt lat="46.07299" lon="6.79824">
        <ele>1167</ele>
        <time>2018-03-04T12:01:44Z</time>
      </trkpt>
      <trkpt lat="46.07287" lon="6.79839">
        <ele>1165</ele>
        <time>2018-03-04T12:01:59Z</time>
      </trkpt>
      <trkpt lat="46.07281" lon="6.79854">
        <ele>1164</ele>
        <time>2018-03-04T12:02:14Z</time>
      </trkpt>
      <trkpt lat="46.07271" lon="6.79874">
        <ele>1162</ele>
        <time>2018-03-04T12:02:31Z</time>
      </trkpt>
      <trkpt lat="46.07268" lon="6.79882">
        <ele>1162</ele>
        <time>2018-03-04T12:02:38Z</time>
      </trkpt>
      <trkpt lat="46.07268" lon="6.79883">
        <ele>1162</ele>
        <time>2018-03-04T12:02:39Z</time>
      </trkpt>
      <trkpt lat="46.07267" lon="6.79884">
        <ele>1162</ele>
        <time>2018-03-04T12:02:41Z</time>
      </trkpt>
      <trkpt lat="46.07267" lon="6.79887">
        <ele>1161</ele>
        <time>2018-03-04T12:02:46Z</time>
      </trkpt>
      <trkpt lat="46.07266" lon="6.79891">
        <ele>1161</ele>
        <time>2018-03-04T12:02:49Z</time>
      </trkpt>
      <trkpt lat="46.07266" lon="6.79892">
        <ele>1161</ele>
        <time>2018-03-04T12:02:50Z</time>
      </trkpt>
      <trkpt lat="46.07266" lon="6.79893">
        <ele>1161</ele>
        <time>2018-03-04T12:02:51Z</time>
      </trkpt>
      <trkpt lat="46.07266" lon="6.79895">
        <ele>1160</ele>
        <time>2018-03-04T12:02:52Z</time>
      </trkpt>
      <trkpt lat="46.07267" lon="6.79899">
        <ele>1160</ele>
        <time>2018-03-04T12:02:56Z</time>
      </trkpt>
      <trkpt lat="46.07267" lon="6.79901">
        <ele>1160</ele>
        <time>2018-03-04T12:02:57Z</time>
      </trkpt>
      <trkpt lat="46.07268" lon="6.79903">
        <ele>1160</ele>
        <time>2018-03-04T12:02:59Z</time>
      </trkpt>
      <trkpt lat="46.07269" lon="6.79904">
        <ele>1160</ele>
        <time>2018-03-04T12:03:01Z</time>
      </trkpt>
      <trkpt lat="46.0727" lon="6.79905">
        <ele>1160</ele>
        <time>2018-03-04T12:03:02Z</time>
      </trkpt>
      <trkpt lat="46.0727" lon="6.79909">
        <ele>1160</ele>
        <time>2018-03-04T12:03:06Z</time>
      </trkpt>
      <trkpt lat="46.07269" lon="6.79914">
        <ele>1159</ele>
        <time>2018-03-04T12:03:10Z</time>
      </trkpt>
      <trkpt lat="46.07269" lon="6.79916">
        <ele>1159</ele>
        <time>2018-03-04T12:03:11Z</time>
      </trkpt>
      <trkpt lat="46.07269" lon="6.7992">
        <ele>1159</ele>
        <time>2018-03-04T12:03:15Z</time>
      </trkpt>
      <trkpt lat="46.07269" lon="6.79922">
        <ele>1159</ele>
        <time>2018-03-04T12:03:16Z</time>
      </trkpt>
      <trkpt lat="46.07269" lon="6.79932">
        <ele>1159</ele>
        <time>2018-03-04T12:03:24Z</time>
      </trkpt>
      <trkpt lat="46.0727" lon="6.79934">
        <ele>1160</ele>
        <time>2018-03-04T12:03:25Z</time>
      </trkpt>
      <trkpt lat="46.0727" lon="6.79936">
        <ele>1160</ele>
        <time>2018-03-04T12:03:26Z</time>
      </trkpt>
      <trkpt lat="46.0727" lon="6.7994">
        <ele>1160</ele>
        <time>2018-03-04T12:03:29Z</time>
      </trkpt>
      <trkpt lat="46.07271" lon="6.79941">
        <ele>1161</ele>
        <time>2018-03-04T12:03:30Z</time>
      </trkpt>
      <trkpt lat="46.07271" lon="6.79943">
        <ele>1161</ele>
        <time>2018-03-04T12:03:31Z</time>
      </trkpt>
      <trkpt lat="46.07272" lon="6.79949">
        <ele>1161</ele>
        <time>2018-03-04T12:03:36Z</time>
      </trkpt>
      <trkpt lat="46.07272" lon="6.79951">
        <ele>1161</ele>
        <time>2018-03-04T12:03:37Z</time>
      </trkpt>
      <trkpt lat="46.0727" lon="6.79956">
        <ele>1161</ele>
        <time>2018-03-04T12:03:41Z</time>
      </trkpt>
      <trkpt lat="46.0727" lon="6.79957">
        <ele>1161</ele>
        <time>2018-03-04T12:03:42Z</time>
      </trkpt>
      <trkpt lat="46.07268" lon="6.79973">
        <ele>1161</ele>
        <time>2018-03-04T12:03:53Z</time>
      </trkpt>
      <trkpt lat="46.07269" lon="6.7998">
        <ele>1160</ele>
        <time>2018-03-04T12:03:58Z</time>
      </trkpt>
      <trkpt lat="46.07271" lon="6.79982">
        <ele>1160</ele>
        <time>2018-03-04T12:03:59Z</time>
      </trkpt>
      <trkpt lat="46.07274" lon="6.7999">
        <ele>1160</ele>
        <time>2018-03-04T12:04:06Z</time>
      </trkpt>
      <trkpt lat="46.07283" lon="6.80003">
        <ele>1169</ele>
        <time>2018-03-04T12:04:23Z</time>
      </trkpt>
      <trkpt lat="46.07287" lon="6.80005">
        <ele>1170</ele>
        <time>2018-03-04T12:04:28Z</time>
      </trkpt>
      <trkpt lat="46.07298" lon="6.80004">
        <ele>1173</ele>
        <time>2018-03-04T12:04:40Z</time>
      </trkpt>
      <trkpt lat="46.073" lon="6.80003">
        <ele>1173</ele>
        <time>2018-03-04T12:04:42Z</time>
      </trkpt>
      <trkpt lat="46.07307" lon="6.80004">
        <ele>1175</ele>
        <time>2018-03-04T12:04:55Z</time>
      </trkpt>
      <trkpt lat="46.07316" lon="6.80008">
        <ele>1177</ele>
        <time>2018-03-04T12:05:05Z</time>
      </trkpt>
      <trkpt lat="46.0732" lon="6.8001">
        <ele>1177</ele>
        <time>2018-03-04T12:05:08Z</time>
      </trkpt>
      <trkpt lat="46.07331" lon="6.8002">
        <ele>1178</ele>
        <time>2018-03-04T12:05:19Z</time>
      </trkpt>
      <trkpt lat="46.07338" lon="6.80026">
        <ele>1191</ele>
        <time>2018-03-04T12:05:27Z</time>
      </trkpt>
      <trkpt lat="46.07342" lon="6.80029">
        <ele>1192</ele>
        <time>2018-03-04T12:05:32Z</time>
      </trkpt>
      <trkpt lat="46.07355" lon="6.80037">
        <ele>1194</ele>
        <time>2018-03-04T12:05:48Z</time>
      </trkpt>
      <trkpt lat="46.0736" lon="6.80039">
        <ele>1195</ele>
        <time>2018-03-04T12:05:54Z</time>
      </trkpt>
      <trkpt lat="46.07362" lon="6.80041">
        <ele>1196</ele>
        <time>2018-03-04T12:05:56Z</time>
      </trkpt>
      <trkpt lat="46.07363" lon="6.80041">
        <ele>1196</ele>
        <time>2018-03-04T12:05:57Z</time>
      </trkpt>
      <trkpt lat="46.07368" lon="6.80047">
        <ele>1197</ele>
        <time>2018-03-04T12:06:02Z</time>
      </trkpt>
      <trkpt lat="46.07379" lon="6.80067">
        <ele>1199</ele>
        <time>2018-03-04T12:06:13Z</time>
      </trkpt>
      <trkpt lat="46.07379" lon="6.80069">
        <ele>1199</ele>
        <time>2018-03-04T12:06:14Z</time>
      </trkpt>
      <trkpt lat="46.0738" lon="6.80071">
        <ele>1199</ele>
        <time>2018-03-04T12:06:15Z</time>
      </trkpt>
      <trkpt lat="46.07382" lon="6.80073">
        <ele>1200</ele>
        <time>2018-03-04T12:06:17Z</time>
      </trkpt>
      <trkpt lat="46.07383" lon="6.80074">
        <ele>1200</ele>
        <time>2018-03-04T12:06:18Z</time>
      </trkpt>
      <trkpt lat="46.07384" lon="6.80074">
        <ele>1201</ele>
        <time>2018-03-04T12:06:19Z</time>
      </trkpt>
      <trkpt lat="46.07384" lon="6.80076">
        <ele>1201</ele>
        <time>2018-03-04T12:06:20Z</time>
      </trkpt>
      <trkpt lat="46.07386" lon="6.80077">
        <ele>1201</ele>
        <time>2018-03-04T12:06:21Z</time>
      </trkpt>
      <trkpt lat="46.07387" lon="6.80079">
        <ele>1202</ele>
        <time>2018-03-04T12:06:24Z</time>
      </trkpt>
      <trkpt lat="46.07389" lon="6.80082">
        <ele>1202</ele>
        <time>2018-03-04T12:06:27Z</time>
      </trkpt>
      <trkpt lat="46.07391" lon="6.80083">
        <ele>1203</ele>
        <time>2018-03-04T12:06:31Z</time>
      </trkpt>
      <trkpt lat="46.07394" lon="6.80093">
        <ele>1207</ele>
        <time>2018-03-04T12:06:45Z</time>
      </trkpt>
      <trkpt lat="46.07394" lon="6.80097">
        <ele>1207</ele>
        <time>2018-03-04T12:06:48Z</time>
      </trkpt>
      <trkpt lat="46.07395" lon="6.80103">
        <ele>1207</ele>
        <time>2018-03-04T12:06:52Z</time>
      </trkpt>
      <trkpt lat="46.07395" lon="6.80105">
        <ele>1206</ele>
        <time>2018-03-04T12:06:54Z</time>
      </trkpt>
      <trkpt lat="46.07395" lon="6.80106">
        <ele>1206</ele>
        <time>2018-03-04T12:06:55Z</time>
      </trkpt>
      <trkpt lat="46.07397" lon="6.80111">
        <ele>1207</ele>
        <time>2018-03-04T12:06:58Z</time>
      </trkpt>
      <trkpt lat="46.07398" lon="6.80119">
        <ele>1206</ele>
        <time>2018-03-04T12:07:03Z</time>
      </trkpt>
      <trkpt lat="46.07398" lon="6.80122">
        <ele>1206</ele>
        <time>2018-03-04T12:07:04Z</time>
      </trkpt>
      <trkpt lat="46.07398" lon="6.80126">
        <ele>1206</ele>
        <time>2018-03-04T12:07:05Z</time>
      </trkpt>
      <trkpt lat="46.07397" lon="6.80129">
        <ele>1206</ele>
        <time>2018-03-04T12:07:06Z</time>
      </trkpt>
      <trkpt lat="46.074" lon="6.80132">
        <ele>1206</ele>
        <time>2018-03-04T12:07:08Z</time>
      </trkpt>
      <trkpt lat="46.07401" lon="6.80133">
        <ele>1207</ele>
        <time>2018-03-04T12:07:09Z</time>
      </trkpt>
      <trkpt lat="46.07403" lon="6.80134">
        <ele>1207</ele>
        <time>2018-03-04T12:07:10Z</time>
      </trkpt>
      <trkpt lat="46.07404" lon="6.80135">
        <ele>1207</ele>
        <time>2018-03-04T12:07:11Z</time>
      </trkpt>
      <trkpt lat="46.07406" lon="6.80141">
        <ele>1207</ele>
        <time>2018-03-04T12:07:16Z</time>
      </trkpt>
      <trkpt lat="46.07409" lon="6.80147">
        <ele>1207</ele>
        <time>2018-03-04T12:07:22Z</time>
      </trkpt>
      <trkpt lat="46.07417" lon="6.80147">
        <ele>1221</ele>
        <time>2018-03-04T12:07:29Z</time>
      </trkpt>
      <trkpt lat="46.07425" lon="6.80138">
        <ele>1226</ele>
        <time>2018-03-04T12:07:45Z</time>
      </trkpt>
      <trkpt lat="46.07424" lon="6.80135">
        <ele>1226</ele>
        <time>2018-03-04T12:07:47Z</time>
      </trkpt>
      <trkpt lat="46.0743" lon="6.80127">
        <ele>1228</ele>
        <time>2018-03-04T12:07:57Z</time>
      </trkpt>
      <trkpt lat="46.07441" lon="6.80118">
        <ele>1231</ele>
        <time>2018-03-04T12:08:15Z</time>
      </trkpt>
      <trkpt lat="46.07456" lon="6.80114">
        <ele>1235</ele>
        <time>2018-03-04T12:08:33Z</time>
      </trkpt>
      <trkpt lat="46.0747" lon="6.80104">
        <ele>1240</ele>
        <time>2018-03-04T12:08:51Z</time>
      </trkpt>
      <trkpt lat="46.0747" lon="6.80084">
        <ele>1241</ele>
        <time>2018-03-04T12:09:08Z</time>
      </trkpt>
      <trkpt lat="46.07467" lon="6.80077">
        <ele>1238</ele>
        <time>2018-03-04T12:09:19Z</time>
      </trkpt>
      <trkpt lat="46.07466" lon="6.80057">
        <ele>1237</ele>
        <time>2018-03-04T12:09:38Z</time>
      </trkpt>
      <trkpt lat="46.0747" lon="6.80039">
        <ele>1237</ele>
        <time>2018-03-04T12:09:48Z</time>
      </trkpt>
      <trkpt lat="46.07466" lon="6.80023">
        <ele>1236</ele>
        <time>2018-03-04T12:09:59Z</time>
      </trkpt>
      <trkpt lat="46.07466" lon="6.80019">
        <ele>1236</ele>
        <time>2018-03-04T12:10:02Z</time>
      </trkpt>
      <trkpt lat="46.07465" lon="6.80016">
        <ele>1236</ele>
        <time>2018-03-04T12:10:04Z</time>
      </trkpt>
      <trkpt lat="46.07464" lon="6.80011">
        <ele>1235</ele>
        <time>2018-03-04T12:10:07Z</time>
      </trkpt>
      <trkpt lat="46.07464" lon="6.80008">
        <ele>1235</ele>
        <time>2018-03-04T12:10:09Z</time>
      </trkpt>
      <trkpt lat="46.07464" lon="6.80005">
        <ele>1236</ele>
        <time>2018-03-04T12:10:11Z</time>
      </trkpt>
      <trkpt lat="46.07465" lon="6.80003">
        <ele>1236</ele>
        <time>2018-03-04T12:10:12Z</time>
      </trkpt>
      <trkpt lat="46.07465" lon="6.80001">
        <ele>1236</ele>
        <time>2018-03-04T12:10:14Z</time>
      </trkpt>
      <trkpt lat="46.07465" lon="6.79999">
        <ele>1231</ele>
        <time>2018-03-04T12:10:16Z</time>
      </trkpt>
      <trkpt lat="46.07466" lon="6.79998">
        <ele>1231</ele>
        <time>2018-03-04T12:10:17Z</time>
      </trkpt>
      <trkpt lat="46.07466" lon="6.79997">
        <ele>1231</ele>
        <time>2018-03-04T12:10:18Z</time>
      </trkpt>
      <trkpt lat="46.07466" lon="6.79996">
        <ele>1231</ele>
        <time>2018-03-04T12:10:19Z</time>
      </trkpt>
      <trkpt lat="46.07473" lon="6.79988">
        <ele>1233</ele>
        <time>2018-03-04T12:10:33Z</time>
      </trkpt>
      <trkpt lat="46.07478" lon="6.79989">
        <ele>1235</ele>
        <time>2018-03-04T12:10:41Z</time>
      </trkpt>
      <trkpt lat="46.07479" lon="6.79989">
        <ele>1235</ele>
        <time>2018-03-04T12:10:42Z</time>
      </trkpt>
      <trkpt lat="46.0748" lon="6.79988">
        <ele>1236</ele>
        <time>2018-03-04T12:10:43Z</time>
      </trkpt>
      <trkpt lat="46.07481" lon="6.79988">
        <ele>1236</ele>
        <time>2018-03-04T12:10:44Z</time>
      </trkpt>
      <trkpt lat="46.07482" lon="6.79988">
        <ele>1237</ele>
        <time>2018-03-04T12:10:45Z</time>
      </trkpt>
      <trkpt lat="46.07488" lon="6.79988">
        <ele>1238</ele>
        <time>2018-03-04T12:10:53Z</time>
      </trkpt>
      <trkpt lat="46.07489" lon="6.79988">
        <ele>1239</ele>
        <time>2018-03-04T12:10:54Z</time>
      </trkpt>
      <trkpt lat="46.07489" lon="6.79989">
        <ele>1240</ele>
        <time>2018-03-04T12:10:55Z</time>
      </trkpt>
      <trkpt lat="46.07492" lon="6.7999">
        <ele>1241</ele>
        <time>2018-03-04T12:11:00Z</time>
      </trkpt>
      <trkpt lat="46.07493" lon="6.79991">
        <ele>1242</ele>
        <time>2018-03-04T12:11:01Z</time>
      </trkpt>
      <trkpt lat="46.07494" lon="6.79991">
        <ele>1242</ele>
        <time>2018-03-04T12:11:02Z</time>
      </trkpt>
      <trkpt lat="46.07504" lon="6.79997">
        <ele>1251</ele>
        <time>2018-03-04T12:11:15Z</time>
      </trkpt>
      <trkpt lat="46.07516" lon="6.80011">
        <ele>1258</ele>
        <time>2018-03-04T12:11:34Z</time>
      </trkpt>
      <trkpt lat="46.07533" lon="6.80016">
        <ele>1262</ele>
        <time>2018-03-04T12:11:53Z</time>
      </trkpt>
      <trkpt lat="46.07545" lon="6.80019">
        <ele>1264</ele>
        <time>2018-03-04T12:12:05Z</time>
      </trkpt>
      <trkpt lat="46.07548" lon="6.80021">
        <ele>1264</ele>
        <time>2018-03-04T12:12:10Z</time>
      </trkpt>
      <trkpt lat="46.0755" lon="6.80021">
        <ele>1265</ele>
        <time>2018-03-04T12:12:12Z</time>
      </trkpt>
      <trkpt lat="46.07551" lon="6.80022">
        <ele>1265</ele>
        <time>2018-03-04T12:12:13Z</time>
      </trkpt>
      <trkpt lat="46.07553" lon="6.80022">
        <ele>1265</ele>
        <time>2018-03-04T12:12:15Z</time>
      </trkpt>
      <trkpt lat="46.07554" lon="6.80022">
        <ele>1265</ele>
        <time>2018-03-04T12:12:16Z</time>
      </trkpt>
      <trkpt lat="46.07559" lon="6.80023">
        <ele>1266</ele>
        <time>2018-03-04T12:12:23Z</time>
      </trkpt>
      <trkpt lat="46.0756" lon="6.80023">
        <ele>1266</ele>
        <time>2018-03-04T12:12:24Z</time>
      </trkpt>
      <trkpt lat="46.07561" lon="6.80024">
        <ele>1266</ele>
        <time>2018-03-04T12:12:25Z</time>
      </trkpt>
      <trkpt lat="46.07562" lon="6.80023">
        <ele>1266</ele>
        <time>2018-03-04T12:12:26Z</time>
      </trkpt>
      <trkpt lat="46.07564" lon="6.80023">
        <ele>1266</ele>
        <time>2018-03-04T12:12:30Z</time>
      </trkpt>
      <trkpt lat="46.07565" lon="6.80023">
        <ele>1266</ele>
        <time>2018-03-04T12:12:31Z</time>
      </trkpt>
      <trkpt lat="46.07567" lon="6.80024">
        <ele>1267</ele>
        <time>2018-03-04T12:12:34Z</time>
      </trkpt>
      <trkpt lat="46.07568" lon="6.80025">
        <ele>1267</ele>
        <time>2018-03-04T12:12:35Z</time>
      </trkpt>
      <trkpt lat="46.07569" lon="6.80028">
        <ele>1267</ele>
        <time>2018-03-04T12:12:37Z</time>
      </trkpt>
      <trkpt lat="46.0757" lon="6.80028">
        <ele>1267</ele>
        <time>2018-03-04T12:12:38Z</time>
      </trkpt>
      <trkpt lat="46.07576" lon="6.80031">
        <ele>1267</ele>
        <time>2018-03-04T12:12:46Z</time>
      </trkpt>
      <trkpt lat="46.07577" lon="6.80031">
        <ele>1267</ele>
        <time>2018-03-04T12:12:47Z</time>
      </trkpt>
      <trkpt lat="46.07593" lon="6.80036">
        <ele>1279</ele>
        <time>2018-03-04T12:13:04Z</time>
      </trkpt>
      <trkpt lat="46.0761" lon="6.8004">
        <ele>1281</ele>
        <time>2018-03-04T12:13:23Z</time>
      </trkpt>
      <trkpt lat="46.07611" lon="6.80041">
        <ele>1281</ele>
        <time>2018-03-04T12:13:27Z</time>
      </trkpt>
      <trkpt lat="46.07613" lon="6.80041">
        <ele>1281</ele>
        <time>2018-03-04T12:13:32Z</time>
      </trkpt>
      <trkpt lat="46.07613" lon="6.80042">
        <ele>1281</ele>
        <time>2018-03-04T12:13:35Z</time>
      </trkpt>
      <trkpt lat="46.07616" lon="6.80045">
        <ele>1282</ele>
        <time>2018-03-04T12:13:48Z</time>
      </trkpt>
      <trkpt lat="46.07623" lon="6.80045">
        <ele>1282</ele>
        <time>2018-03-04T12:14:06Z</time>
      </trkpt>
      <trkpt lat="46.07624" lon="6.80046">
        <ele>1282</ele>
        <time>2018-03-04T12:14:12Z</time>
      </trkpt>
      <trkpt lat="46.07626" lon="6.80045">
        <ele>1283</ele>
        <time>2018-03-04T12:14:17Z</time>
      </trkpt>
      <trkpt lat="46.07636" lon="6.80045">
        <ele>1283</ele>
        <time>2018-03-04T12:14:25Z</time>
      </trkpt>
      <trkpt lat="46.07633" lon="6.80044">
        <ele>1283</ele>
        <time>2018-03-04T12:14:37Z</time>
      </trkpt>
      <trkpt lat="46.0763" lon="6.80043">
        <ele>1283</ele>
        <time>2018-03-04T12:14:41Z</time>
      </trkpt>
      <trkpt lat="46.07628" lon="6.80043">
        <ele>1283</ele>
        <time>2018-03-04T12:14:44Z</time>
      </trkpt>
      <trkpt lat="46.07627" lon="6.80042">
        <ele>1282</ele>
        <time>2018-03-04T12:14:47Z</time>
      </trkpt>
      <trkpt lat="46.07626" lon="6.80042">
        <ele>1282</ele>
        <time>2018-03-04T12:14:55Z</time>
      </trkpt>
      <trkpt lat="46.07624" lon="6.80042">
        <ele>1282</ele>
        <time>2018-03-04T12:15:04Z</time>
      </trkpt>
      <trkpt lat="46.07623" lon="6.80046">
        <ele>1282</ele>
        <time>2018-03-04T12:15:19Z</time>
      </trkpt>
      <trkpt lat="46.07621" lon="6.80045">
        <ele>1282</ele>
        <time>2018-03-04T12:15:25Z</time>
      </trkpt>
      <trkpt lat="46.0762" lon="6.80045">
        <ele>1282</ele>
        <time>2018-03-04T12:15:26Z</time>
      </trkpt>
      <trkpt lat="46.07617" lon="6.80045">
        <ele>1282</ele>
        <time>2018-03-04T12:15:29Z</time>
      </trkpt>
      <trkpt lat="46.07616" lon="6.80045">
        <ele>1282</ele>
        <time>2018-03-04T12:15:30Z</time>
      </trkpt>
      <trkpt lat="46.07617" lon="6.80046">
        <ele>1282</ele>
        <time>2018-03-04T12:15:35Z</time>
      </trkpt>
      <trkpt lat="46.07619" lon="6.80048">
        <ele>1282</ele>
        <time>2018-03-04T12:15:39Z</time>
      </trkpt>
      <trkpt lat="46.07623" lon="6.8005">
        <ele>1282</ele>
        <time>2018-03-04T12:15:44Z</time>
      </trkpt>
      <trkpt lat="46.0763" lon="6.80049">
        <ele>1283</ele>
        <time>2018-03-04T12:15:51Z</time>
      </trkpt>
      <trkpt lat="46.07634" lon="6.80049">
        <ele>1283</ele>
        <time>2018-03-04T12:15:54Z</time>
      </trkpt>
      <trkpt lat="46.07636" lon="6.80049">
        <ele>1284</ele>
        <time>2018-03-04T12:15:57Z</time>
      </trkpt>
      <trkpt lat="46.0764" lon="6.80049">
        <ele>1284</ele>
        <time>2018-03-04T12:16:00Z</time>
      </trkpt>
      <trkpt lat="46.07644" lon="6.80049">
        <ele>1284</ele>
        <time>2018-03-04T12:16:04Z</time>
      </trkpt>
      <trkpt lat="46.07649" lon="6.80049">
        <ele>1285</ele>
        <time>2018-03-04T12:16:09Z</time>
      </trkpt>
      <trkpt lat="46.07654" lon="6.80049">
        <ele>1285</ele>
        <time>2018-03-04T12:16:14Z</time>
      </trkpt>
      <trkpt lat="46.07662" lon="6.80049">
        <ele>1286</ele>
        <time>2018-03-04T12:16:23Z</time>
      </trkpt>
      <trkpt lat="46.07672" lon="6.80047">
        <ele>1297</ele>
        <time>2018-03-04T12:16:33Z</time>
      </trkpt>
      <trkpt lat="46.07676" lon="6.80045">
        <ele>1297</ele>
        <time>2018-03-04T12:16:36Z</time>
      </trkpt>
      <trkpt lat="46.07676" lon="6.80045">
        <ele>1297</ele>
        <time>2018-03-04T12:16:37Z</time>
      </trkpt>
      <trkpt lat="46.0769" lon="6.8004">
        <ele>1298</ele>
        <time>2018-03-04T12:16:53Z</time>
      </trkpt>
      <trkpt lat="46.07706" lon="6.80039">
        <ele>1299</ele>
        <time>2018-03-04T12:17:12Z</time>
      </trkpt>
      <trkpt lat="46.07713" lon="6.80048">
        <ele>1301</ele>
        <time>2018-03-04T12:17:22Z</time>
      </trkpt>
      <trkpt lat="46.07713" lon="6.80049">
        <ele>1301</ele>
        <time>2018-03-04T12:17:23Z</time>
      </trkpt>
      <trkpt lat="46.07713" lon="6.80051">
        <ele>1301</ele>
        <time>2018-03-04T12:17:24Z</time>
      </trkpt>
      <trkpt lat="46.07712" lon="6.80052">
        <ele>1301</ele>
        <time>2018-03-04T12:17:25Z</time>
      </trkpt>
      <trkpt lat="46.07704" lon="6.80072">
        <ele>1300</ele>
        <time>2018-03-04T12:17:42Z</time>
      </trkpt>
      <trkpt lat="46.07703" lon="6.80075">
        <ele>1300</ele>
        <time>2018-03-04T12:17:44Z</time>
      </trkpt>
      <trkpt lat="46.07703" lon="6.80077">
        <ele>1300</ele>
        <time>2018-03-04T12:17:45Z</time>
      </trkpt>
      <trkpt lat="46.07695" lon="6.80096">
        <ele>1305</ele>
        <time>2018-03-04T12:18:01Z</time>
      </trkpt>
      <trkpt lat="46.0768" lon="6.80104">
        <ele>1303</ele>
        <time>2018-03-04T12:18:19Z</time>
      </trkpt>
      <trkpt lat="46.07672" lon="6.80109">
        <ele>1303</ele>
        <time>2018-03-04T12:18:30Z</time>
      </trkpt>
      <trkpt lat="46.0766" lon="6.80118">
        <ele>1292</ele>
        <time>2018-03-04T12:18:46Z</time>
      </trkpt>
      <trkpt lat="46.07659" lon="6.8012">
        <ele>1292</ele>
        <time>2018-03-04T12:18:47Z</time>
      </trkpt>
      <trkpt lat="46.07665" lon="6.80132">
        <ele>1294</ele>
        <time>2018-03-04T12:19:02Z</time>
      </trkpt>
      <trkpt lat="46.07667" lon="6.8013">
        <ele>1306</ele>
        <time>2018-03-04T12:19:06Z</time>
      </trkpt>
      <trkpt lat="46.07668" lon="6.8013">
        <ele>1306</ele>
        <time>2018-03-04T12:19:07Z</time>
      </trkpt>
      <trkpt lat="46.07673" lon="6.80131">
        <ele>1306</ele>
        <time>2018-03-04T12:19:14Z</time>
      </trkpt>
      <trkpt lat="46.07688" lon="6.8014">
        <ele>1308</ele>
        <time>2018-03-04T12:19:32Z</time>
      </trkpt>
      <trkpt lat="46.0769" lon="6.80142">
        <ele>1308</ele>
        <time>2018-03-04T12:19:35Z</time>
      </trkpt>
      <trkpt lat="46.07703" lon="6.80156">
        <ele>1311</ele>
        <time>2018-03-04T12:19:52Z</time>
      </trkpt>
      <trkpt lat="46.07706" lon="6.8016">
        <ele>1311</ele>
        <time>2018-03-04T12:19:56Z</time>
      </trkpt>
      <trkpt lat="46.07709" lon="6.80162">
        <ele>1312</ele>
        <time>2018-03-04T12:20:01Z</time>
      </trkpt>
      <trkpt lat="46.07722" lon="6.80171">
        <ele>1321</ele>
        <time>2018-03-04T12:20:18Z</time>
      </trkpt>
      <trkpt lat="46.07734" lon="6.80183">
        <ele>1323</ele>
        <time>2018-03-04T12:20:35Z</time>
      </trkpt>
      <trkpt lat="46.07744" lon="6.80194">
        <ele>1324</ele>
        <time>2018-03-04T12:20:51Z</time>
      </trkpt>
      <trkpt lat="46.07744" lon="6.80196">
        <ele>1324</ele>
        <time>2018-03-04T12:20:53Z</time>
      </trkpt>
      <trkpt lat="46.07746" lon="6.80199">
        <ele>1324</ele>
        <time>2018-03-04T12:20:56Z</time>
      </trkpt>
      <trkpt lat="46.0775" lon="6.80206">
        <ele>1334</ele>
        <time>2018-03-04T12:21:05Z</time>
      </trkpt>
      <trkpt lat="46.07751" lon="6.80208">
        <ele>1334</ele>
        <time>2018-03-04T12:21:07Z</time>
      </trkpt>
      <trkpt lat="46.07752" lon="6.80209">
        <ele>1334</ele>
        <time>2018-03-04T12:21:09Z</time>
      </trkpt>
      <trkpt lat="46.07758" lon="6.80216">
        <ele>1335</ele>
        <time>2018-03-04T12:21:18Z</time>
      </trkpt>
      <trkpt lat="46.07759" lon="6.80217">
        <ele>1335</ele>
        <time>2018-03-04T12:21:19Z</time>
      </trkpt>
      <trkpt lat="46.07774" lon="6.80227">
        <ele>1336</ele>
        <time>2018-03-04T12:21:37Z</time>
      </trkpt>
      <trkpt lat="46.07786" lon="6.8024">
        <ele>1338</ele>
        <time>2018-03-04T12:21:57Z</time>
      </trkpt>
      <trkpt lat="46.07795" lon="6.80247">
        <ele>1339</ele>
        <time>2018-03-04T12:22:10Z</time>
      </trkpt>
      <trkpt lat="46.07798" lon="6.80247">
        <ele>1340</ele>
        <time>2018-03-04T12:22:14Z</time>
      </trkpt>
      <trkpt lat="46.078" lon="6.80248">
        <ele>1340</ele>
        <time>2018-03-04T12:22:15Z</time>
      </trkpt>
      <trkpt lat="46.07815" lon="6.80255">
        <ele>1351</ele>
        <time>2018-03-04T12:22:34Z</time>
      </trkpt>
      <trkpt lat="46.07826" lon="6.8026">
        <ele>1351</ele>
        <time>2018-03-04T12:22:48Z</time>
      </trkpt>
      <trkpt lat="46.07827" lon="6.80262">
        <ele>1351</ele>
        <time>2018-03-04T12:22:50Z</time>
      </trkpt>
      <trkpt lat="46.07827" lon="6.80264">
        <ele>1351</ele>
        <time>2018-03-04T12:22:51Z</time>
      </trkpt>
      <trkpt lat="46.07827" lon="6.80265">
        <ele>1351</ele>
        <time>2018-03-04T12:22:52Z</time>
      </trkpt>
      <trkpt lat="46.07827" lon="6.80267">
        <ele>1352</ele>
        <time>2018-03-04T12:22:53Z</time>
      </trkpt>
      <trkpt lat="46.07827" lon="6.80268">
        <ele>1352</ele>
        <time>2018-03-04T12:22:54Z</time>
      </trkpt>
      <trkpt lat="46.07823" lon="6.80283">
        <ele>1353</ele>
        <time>2018-03-04T12:23:05Z</time>
      </trkpt>
      <trkpt lat="46.07813" lon="6.80293">
        <ele>1354</ele>
        <time>2018-03-04T12:23:21Z</time>
      </trkpt>
      <trkpt lat="46.07809" lon="6.80306">
        <ele>1355</ele>
        <time>2018-03-04T12:23:35Z</time>
      </trkpt>
      <trkpt lat="46.07814" lon="6.80311">
        <ele>1357</ele>
        <time>2018-03-04T12:23:44Z</time>
      </trkpt>
      <trkpt lat="46.07817" lon="6.80311">
        <ele>1357</ele>
        <time>2018-03-04T12:23:48Z</time>
      </trkpt>
      <trkpt lat="46.0782" lon="6.80312">
        <ele>1358</ele>
        <time>2018-03-04T12:23:53Z</time>
      </trkpt>
      <trkpt lat="46.07821" lon="6.80312">
        <ele>1358</ele>
        <time>2018-03-04T12:23:55Z</time>
      </trkpt>
      <trkpt lat="46.07834" lon="6.80314">
        <ele>1370</ele>
        <time>2018-03-04T12:24:16Z</time>
      </trkpt>
      <trkpt lat="46.07847" lon="6.80321">
        <ele>1371</ele>
        <time>2018-03-04T12:24:31Z</time>
      </trkpt>
      <trkpt lat="46.07862" lon="6.8034">
        <ele>1385</ele>
        <time>2018-03-04T12:24:51Z</time>
      </trkpt>
      <trkpt lat="46.07869" lon="6.80351">
        <ele>1388</ele>
        <time>2018-03-04T12:25:06Z</time>
      </trkpt>
      <trkpt lat="46.07882" lon="6.80365">
        <ele>1391</ele>
        <time>2018-03-04T12:25:25Z</time>
      </trkpt>
      <trkpt lat="46.07893" lon="6.80371">
        <ele>1393</ele>
        <time>2018-03-04T12:25:40Z</time>
      </trkpt>
      <trkpt lat="46.07906" lon="6.80371">
        <ele>1394</ele>
        <time>2018-03-04T12:25:57Z</time>
      </trkpt>
      <trkpt lat="46.07911" lon="6.80373">
        <ele>1395</ele>
        <time>2018-03-04T12:26:01Z</time>
      </trkpt>
      <trkpt lat="46.07911" lon="6.80373">
        <ele>1395</ele>
        <time>2018-03-04T12:26:02Z</time>
      </trkpt>
      <trkpt lat="46.07913" lon="6.80373">
        <ele>1395</ele>
        <time>2018-03-04T12:26:03Z</time>
      </trkpt>
      <trkpt lat="46.07924" lon="6.80378">
        <ele>1411</ele>
        <time>2018-03-04T12:26:18Z</time>
      </trkpt>
      <trkpt lat="46.07928" lon="6.80377">
        <ele>1411</ele>
        <time>2018-03-04T12:26:25Z</time>
      </trkpt>
      <trkpt lat="46.07932" lon="6.80379">
        <ele>1412</ele>
        <time>2018-03-04T12:26:31Z</time>
      </trkpt>
      <trkpt lat="46.07945" lon="6.80383">
        <ele>1414</ele>
        <time>2018-03-04T12:26:48Z</time>
      </trkpt>
      <trkpt lat="46.07946" lon="6.80383">
        <ele>1414</ele>
        <time>2018-03-04T12:26:49Z</time>
      </trkpt>
      <trkpt lat="46.07947" lon="6.80383">
        <ele>1414</ele>
        <time>2018-03-04T12:26:50Z</time>
      </trkpt>
      <trkpt lat="46.07948" lon="6.80383">
        <ele>1414</ele>
        <time>2018-03-04T12:26:51Z</time>
      </trkpt>
      <trkpt lat="46.07949" lon="6.80383">
        <ele>1414</ele>
        <time>2018-03-04T12:26:52Z</time>
      </trkpt>
      <trkpt lat="46.07963" lon="6.80382">
        <ele>1416</ele>
        <time>2018-03-04T12:27:10Z</time>
      </trkpt>
      <trkpt lat="46.07973" lon="6.80379">
        <ele>1417</ele>
        <time>2018-03-04T12:27:25Z</time>
      </trkpt>
      <trkpt lat="46.0798" lon="6.80379">
        <ele>1418</ele>
        <time>2018-03-04T12:27:40Z</time>
      </trkpt>
      <trkpt lat="46.07989" lon="6.80377">
        <ele>1419</ele>
        <time>2018-03-04T12:27:55Z</time>
      </trkpt>
      <trkpt lat="46.07991" lon="6.80377">
        <ele>1419</ele>
        <time>2018-03-04T12:27:57Z</time>
      </trkpt>
      <trkpt lat="46.07992" lon="6.80377">
        <ele>1419</ele>
        <time>2018-03-04T12:27:58Z</time>
      </trkpt>
      <trkpt lat="46.07992" lon="6.80387">
        <ele>1421</ele>
        <time>2018-03-04T12:28:07Z</time>
      </trkpt>
      <trkpt lat="46.07998" lon="6.80392">
        <ele>1422</ele>
        <time>2018-03-04T12:28:21Z</time>
      </trkpt>
      <trkpt lat="46.08001" lon="6.80391">
        <ele>1434</ele>
        <time>2018-03-04T12:28:24Z</time>
      </trkpt>
      <trkpt lat="46.08017" lon="6.80389">
        <ele>1435</ele>
        <time>2018-03-04T12:28:42Z</time>
      </trkpt>
      <trkpt lat="46.08025" lon="6.80382">
        <ele>1435</ele>
        <time>2018-03-04T12:28:57Z</time>
      </trkpt>
      <trkpt lat="46.08031" lon="6.80385">
        <ele>1436</ele>
        <time>2018-03-04T12:29:03Z</time>
      </trkpt>
      <trkpt lat="46.08045" lon="6.80394">
        <ele>1438</ele>
        <time>2018-03-04T12:29:22Z</time>
      </trkpt>
      <trkpt lat="46.08049" lon="6.80403">
        <ele>1440</ele>
        <time>2018-03-04T12:29:33Z</time>
      </trkpt>
      <trkpt lat="46.08049" lon="6.80404">
        <ele>1440</ele>
        <time>2018-03-04T12:29:34Z</time>
      </trkpt>
      <trkpt lat="46.0805" lon="6.80406">
        <ele>1440</ele>
        <time>2018-03-04T12:29:35Z</time>
      </trkpt>
      <trkpt lat="46.08057" lon="6.80424">
        <ele>1448</ele>
        <time>2018-03-04T12:29:51Z</time>
      </trkpt>
      <trkpt lat="46.08061" lon="6.80435">
        <ele>1449</ele>
        <time>2018-03-04T12:30:03Z</time>
      </trkpt>
      <trkpt lat="46.08062" lon="6.80436">
        <ele>1449</ele>
        <time>2018-03-04T12:30:04Z</time>
      </trkpt>
      <trkpt lat="46.08063" lon="6.80436">
        <ele>1449</ele>
        <time>2018-03-04T12:30:05Z</time>
      </trkpt>
      <trkpt lat="46.08064" lon="6.80437">
        <ele>1449</ele>
        <time>2018-03-04T12:30:06Z</time>
      </trkpt>
      <trkpt lat="46.08066" lon="6.80438">
        <ele>1449</ele>
        <time>2018-03-04T12:30:08Z</time>
      </trkpt>
      <trkpt lat="46.08067" lon="6.80438">
        <ele>1449</ele>
        <time>2018-03-04T12:30:09Z</time>
      </trkpt>
      <trkpt lat="46.08068" lon="6.80438">
        <ele>1449</ele>
        <time>2018-03-04T12:30:10Z</time>
      </trkpt>
      <trkpt lat="46.08068" lon="6.80439">
        <ele>1449</ele>
        <time>2018-03-04T12:30:11Z</time>
      </trkpt>
      <trkpt lat="46.08069" lon="6.80438">
        <ele>1450</ele>
        <time>2018-03-04T12:30:12Z</time>
      </trkpt>
      <trkpt lat="46.0807" lon="6.80438">
        <ele>1450</ele>
        <time>2018-03-04T12:30:13Z</time>
      </trkpt>
      <trkpt lat="46.08081" lon="6.80433">
        <ele>1451</ele>
        <time>2018-03-04T12:30:29Z</time>
      </trkpt>
      <trkpt lat="46.08093" lon="6.80428">
        <ele>1458</ele>
        <time>2018-03-04T12:30:45Z</time>
      </trkpt>
      <trkpt lat="46.08098" lon="6.80418">
        <ele>1459</ele>
        <time>2018-03-04T12:31:00Z</time>
      </trkpt>
      <trkpt lat="46.08103" lon="6.80404">
        <ele>1454</ele>
        <time>2018-03-04T12:31:15Z</time>
      </trkpt>
      <trkpt lat="46.08103" lon="6.80403">
        <ele>1454</ele>
        <time>2018-03-04T12:31:17Z</time>
      </trkpt>
      <trkpt lat="46.08104" lon="6.80401">
        <ele>1454</ele>
        <time>2018-03-04T12:31:19Z</time>
      </trkpt>
      <trkpt lat="46.08104" lon="6.804">
        <ele>1454</ele>
        <time>2018-03-04T12:31:21Z</time>
      </trkpt>
      <trkpt lat="46.08104" lon="6.80399">
        <ele>1454</ele>
        <time>2018-03-04T12:31:22Z</time>
      </trkpt>
      <trkpt lat="46.08105" lon="6.80399">
        <ele>1454</ele>
        <time>2018-03-04T12:31:23Z</time>
      </trkpt>
      <trkpt lat="46.08106" lon="6.804">
        <ele>1454</ele>
        <time>2018-03-04T12:31:27Z</time>
      </trkpt>
      <trkpt lat="46.08112" lon="6.80397">
        <ele>1455</ele>
        <time>2018-03-04T12:31:41Z</time>
      </trkpt>
      <trkpt lat="46.08114" lon="6.80393">
        <ele>1454</ele>
        <time>2018-03-04T12:31:47Z</time>
      </trkpt>
      <trkpt lat="46.08122" lon="6.80386">
        <ele>1455</ele>
        <time>2018-03-04T12:31:59Z</time>
      </trkpt>
      <trkpt lat="46.08127" lon="6.80387">
        <ele>1455</ele>
        <time>2018-03-04T12:32:03Z</time>
      </trkpt>
      <trkpt lat="46.08127" lon="6.80387">
        <ele>1455</ele>
        <time>2018-03-04T12:32:04Z</time>
      </trkpt>
      <trkpt lat="46.08128" lon="6.80387">
        <ele>1455</ele>
        <time>2018-03-04T12:32:05Z</time>
      </trkpt>
      <trkpt lat="46.08135" lon="6.80386">
        <ele>1456</ele>
        <time>2018-03-04T12:32:14Z</time>
      </trkpt>
      <trkpt lat="46.08145" lon="6.80382">
        <ele>1457</ele>
        <time>2018-03-04T12:32:28Z</time>
      </trkpt>
      <trkpt lat="46.08146" lon="6.80382">
        <ele>1457</ele>
        <time>2018-03-04T12:32:29Z</time>
      </trkpt>
      <trkpt lat="46.08148" lon="6.80381">
        <ele>1457</ele>
        <time>2018-03-04T12:32:30Z</time>
      </trkpt>
      <trkpt lat="46.08149" lon="6.80381">
        <ele>1457</ele>
        <time>2018-03-04T12:32:31Z</time>
      </trkpt>
      <trkpt lat="46.0815" lon="6.8038">
        <ele>1457</ele>
        <time>2018-03-04T12:32:32Z</time>
      </trkpt>
      <trkpt lat="46.08156" lon="6.80372">
        <ele>1456</ele>
        <time>2018-03-04T12:32:47Z</time>
      </trkpt>
      <trkpt lat="46.08158" lon="6.80368">
        <ele>1456</ele>
        <time>2018-03-04T12:32:54Z</time>
      </trkpt>
      <trkpt lat="46.08163" lon="6.80367">
        <ele>1456</ele>
        <time>2018-03-04T12:32:59Z</time>
      </trkpt>
      <trkpt lat="46.08166" lon="6.80366">
        <ele>1456</ele>
        <time>2018-03-04T12:33:03Z</time>
      </trkpt>
      <trkpt lat="46.08168" lon="6.80366">
        <ele>1466</ele>
        <time>2018-03-04T12:33:05Z</time>
      </trkpt>
      <trkpt lat="46.0817" lon="6.80366">
        <ele>1466</ele>
        <time>2018-03-04T12:33:06Z</time>
      </trkpt>
      <trkpt lat="46.08184" lon="6.80363">
        <ele>1466</ele>
        <time>2018-03-04T12:33:19Z</time>
      </trkpt>
      <trkpt lat="46.08186" lon="6.80363">
        <ele>1466</ele>
        <time>2018-03-04T12:33:21Z</time>
      </trkpt>
      <trkpt lat="46.08201" lon="6.80373">
        <ele>1469</ele>
        <time>2018-03-04T12:33:39Z</time>
      </trkpt>
      <trkpt lat="46.08203" lon="6.80373">
        <ele>1469</ele>
        <time>2018-03-04T12:33:42Z</time>
      </trkpt>
      <trkpt lat="46.08204" lon="6.80372">
        <ele>1469</ele>
        <time>2018-03-04T12:33:43Z</time>
      </trkpt>
      <trkpt lat="46.08208" lon="6.80369">
        <ele>1469</ele>
        <time>2018-03-04T12:33:49Z</time>
      </trkpt>
      <trkpt lat="46.08211" lon="6.80365">
        <ele>1469</ele>
        <time>2018-03-04T12:33:54Z</time>
      </trkpt>
      <trkpt lat="46.08212" lon="6.80364">
        <ele>1469</ele>
        <time>2018-03-04T12:33:56Z</time>
      </trkpt>
      <trkpt lat="46.08213" lon="6.80364">
        <ele>1469</ele>
        <time>2018-03-04T12:33:57Z</time>
      </trkpt>
      <trkpt lat="46.08222" lon="6.80364">
        <ele>1470</ele>
        <time>2018-03-04T12:34:05Z</time>
      </trkpt>
      <trkpt lat="46.08232" lon="6.80371">
        <ele>1471</ele>
        <time>2018-03-04T12:34:14Z</time>
      </trkpt>
      <trkpt lat="46.08233" lon="6.80372">
        <ele>1471</ele>
        <time>2018-03-04T12:34:15Z</time>
      </trkpt>
      <trkpt lat="46.0824" lon="6.80388">
        <ele>1474</ele>
        <time>2018-03-04T12:34:31Z</time>
      </trkpt>
      <trkpt lat="46.08239" lon="6.80393">
        <ele>1474</ele>
        <time>2018-03-04T12:34:55Z</time>
      </trkpt>
      <trkpt lat="46.0824" lon="6.80392">
        <ele>1474</ele>
        <time>2018-03-04T12:35:07Z</time>
      </trkpt>
      <trkpt lat="46.08241" lon="6.80391">
        <ele>1474</ele>
        <time>2018-03-04T12:35:09Z</time>
      </trkpt>
      <trkpt lat="46.08242" lon="6.8039">
        <ele>1474</ele>
        <time>2018-03-04T12:35:10Z</time>
      </trkpt>
      <trkpt lat="46.08243" lon="6.8039">
        <ele>1474</ele>
        <time>2018-03-04T12:35:12Z</time>
      </trkpt>
      <trkpt lat="46.08243" lon="6.8039">
        <ele>1474</ele>
        <time>2018-03-04T12:35:13Z</time>
      </trkpt>
      <trkpt lat="46.08242" lon="6.8039">
        <ele>1474</ele>
        <time>2018-03-04T12:35:20Z</time>
      </trkpt>
      <trkpt lat="46.08241" lon="6.8039">
        <ele>1474</ele>
        <time>2018-03-04T12:35:48Z</time>
      </trkpt>
      <trkpt lat="46.08241" lon="6.80389">
        <ele>1474</ele>
        <time>2018-03-04T12:35:57Z</time>
      </trkpt>
      <trkpt lat="46.08242" lon="6.80389">
        <ele>1474</ele>
        <time>2018-03-04T12:36:01Z</time>
      </trkpt>
      <trkpt lat="46.08241" lon="6.80391">
        <ele>1474</ele>
        <time>2018-03-04T12:36:15Z</time>
      </trkpt>
      <trkpt lat="46.08241" lon="6.80391">
        <ele>1474</ele>
        <time>2018-03-04T12:36:23Z</time>
      </trkpt>
      <trkpt lat="46.08239" lon="6.80393">
        <ele>1474</ele>
        <time>2018-03-04T12:36:50Z</time>
      </trkpt>
      <trkpt lat="46.0824" lon="6.80391">
        <ele>1474</ele>
        <time>2018-03-04T12:37:12Z</time>
      </trkpt>
      <trkpt lat="46.0824" lon="6.80392">
        <ele>1474</ele>
        <time>2018-03-04T12:37:15Z</time>
      </trkpt>
      <trkpt lat="46.0824" lon="6.80392">
        <ele>1474</ele>
        <time>2018-03-04T12:37:44Z</time>
      </trkpt>
      <trkpt lat="46.08249" lon="6.80395">
        <ele>1475</ele>
        <time>2018-03-04T12:38:08Z</time>
      </trkpt>
      <trkpt lat="46.08252" lon="6.80398">
        <ele>1484</ele>
        <time>2018-03-04T12:38:14Z</time>
      </trkpt>
      <trkpt lat="46.08254" lon="6.804">
        <ele>1484</ele>
        <time>2018-03-04T12:38:17Z</time>
      </trkpt>
      <trkpt lat="46.08255" lon="6.80402">
        <ele>1484</ele>
        <time>2018-03-04T12:38:19Z</time>
      </trkpt>
      <trkpt lat="46.08256" lon="6.80404">
        <ele>1484</ele>
        <time>2018-03-04T12:38:21Z</time>
      </trkpt>
      <trkpt lat="46.08257" lon="6.80406">
        <ele>1484</ele>
        <time>2018-03-04T12:38:24Z</time>
      </trkpt>
      <trkpt lat="46.08258" lon="6.8041">
        <ele>1484</ele>
        <time>2018-03-04T12:38:28Z</time>
      </trkpt>
      <trkpt lat="46.08258" lon="6.80413">
        <ele>1484</ele>
        <time>2018-03-04T12:38:31Z</time>
      </trkpt>
      <trkpt lat="46.08261" lon="6.80417">
        <ele>1488</ele>
        <time>2018-03-04T12:38:36Z</time>
      </trkpt>
      <trkpt lat="46.08265" lon="6.80418">
        <ele>1490</ele>
        <time>2018-03-04T12:38:41Z</time>
      </trkpt>
      <trkpt lat="46.08267" lon="6.8042">
        <ele>1491</ele>
        <time>2018-03-04T12:38:45Z</time>
      </trkpt>
      <trkpt lat="46.08272" lon="6.80429">
        <ele>1493</ele>
        <time>2018-03-04T12:38:56Z</time>
      </trkpt>
      <trkpt lat="46.08273" lon="6.8043">
        <ele>1493</ele>
        <time>2018-03-04T12:38:58Z</time>
      </trkpt>
      <trkpt lat="46.08275" lon="6.80433">
        <ele>1494</ele>
        <time>2018-03-04T12:39:02Z</time>
      </trkpt>
      <trkpt lat="46.08276" lon="6.80434">
        <ele>1494</ele>
        <time>2018-03-04T12:39:04Z</time>
      </trkpt>
      <trkpt lat="46.08277" lon="6.80436">
        <ele>1495</ele>
        <time>2018-03-04T12:39:06Z</time>
      </trkpt>
      <trkpt lat="46.08283" lon="6.80444">
        <ele>1496</ele>
        <time>2018-03-04T12:39:21Z</time>
      </trkpt>
      <trkpt lat="46.08286" lon="6.80445">
        <ele>1497</ele>
        <time>2018-03-04T12:39:24Z</time>
      </trkpt>
      <trkpt lat="46.08287" lon="6.80446">
        <ele>1497</ele>
        <time>2018-03-04T12:39:26Z</time>
      </trkpt>
      <trkpt lat="46.08293" lon="6.80455">
        <ele>1498</ele>
        <time>2018-03-04T12:39:40Z</time>
      </trkpt>
      <trkpt lat="46.08297" lon="6.80456">
        <ele>1499</ele>
        <time>2018-03-04T12:39:44Z</time>
      </trkpt>
      <trkpt lat="46.083" lon="6.80461">
        <ele>1500</ele>
        <time>2018-03-04T12:39:51Z</time>
      </trkpt>
      <trkpt lat="46.083" lon="6.80462">
        <ele>1500</ele>
        <time>2018-03-04T12:39:52Z</time>
      </trkpt>
      <trkpt lat="46.08305" lon="6.80474">
        <ele>1501</ele>
        <time>2018-03-04T12:40:06Z</time>
      </trkpt>
      <trkpt lat="46.08306" lon="6.80475">
        <ele>1502</ele>
        <time>2018-03-04T12:40:08Z</time>
      </trkpt>
      <trkpt lat="46.08307" lon="6.80476">
        <ele>1502</ele>
        <time>2018-03-04T12:40:10Z</time>
      </trkpt>
      <trkpt lat="46.0831" lon="6.80477">
        <ele>1502</ele>
        <time>2018-03-04T12:40:14Z</time>
      </trkpt>
      <trkpt lat="46.08317" lon="6.80484">
        <ele>1505</ele>
        <time>2018-03-04T12:40:29Z</time>
      </trkpt>
      <trkpt lat="46.0832" lon="6.80484">
        <ele>1505</ele>
        <time>2018-03-04T12:40:33Z</time>
      </trkpt>
      <trkpt lat="46.0833" lon="6.80489">
        <ele>1508</ele>
        <time>2018-03-04T12:40:47Z</time>
      </trkpt>
      <trkpt lat="46.08335" lon="6.80492">
        <ele>1515</ele>
        <time>2018-03-04T12:40:54Z</time>
      </trkpt>
      <trkpt lat="46.08341" lon="6.80501">
        <ele>1518</ele>
        <time>2018-03-04T12:41:07Z</time>
      </trkpt>
      <trkpt lat="46.08349" lon="6.80508">
        <ele>1522</ele>
        <time>2018-03-04T12:41:20Z</time>
      </trkpt>
      <trkpt lat="46.08354" lon="6.80515">
        <ele>1525</ele>
        <time>2018-03-04T12:41:30Z</time>
      </trkpt>
      <trkpt lat="46.08356" lon="6.80518">
        <ele>1526</ele>
        <time>2018-03-04T12:41:33Z</time>
      </trkpt>
      <trkpt lat="46.08357" lon="6.80519">
        <ele>1526</ele>
        <time>2018-03-04T12:41:35Z</time>
      </trkpt>
      <trkpt lat="46.08358" lon="6.80521">
        <ele>1527</ele>
        <time>2018-03-04T12:41:37Z</time>
      </trkpt>
      <trkpt lat="46.08364" lon="6.80534">
        <ele>1529</ele>
        <time>2018-03-04T12:41:52Z</time>
      </trkpt>
      <trkpt lat="46.08373" lon="6.80535">
        <ele>1530</ele>
        <time>2018-03-04T12:42:07Z</time>
      </trkpt>
      <trkpt lat="46.08375" lon="6.80536">
        <ele>1530</ele>
        <time>2018-03-04T12:42:09Z</time>
      </trkpt>
      <trkpt lat="46.08378" lon="6.80539">
        <ele>1531</ele>
        <time>2018-03-04T12:42:14Z</time>
      </trkpt>
      <trkpt lat="46.08379" lon="6.80539">
        <ele>1531</ele>
        <time>2018-03-04T12:42:15Z</time>
      </trkpt>
      <trkpt lat="46.08381" lon="6.80542">
        <ele>1531</ele>
        <time>2018-03-04T12:42:18Z</time>
      </trkpt>
      <trkpt lat="46.08383" lon="6.80546">
        <ele>1532</ele>
        <time>2018-03-04T12:42:26Z</time>
      </trkpt>
      <trkpt lat="46.08386" lon="6.80556">
        <ele>1533</ele>
        <time>2018-03-04T12:42:40Z</time>
      </trkpt>
      <trkpt lat="46.08387" lon="6.80561">
        <ele>1533</ele>
        <time>2018-03-04T12:42:45Z</time>
      </trkpt>
      <trkpt lat="46.08387" lon="6.80566">
        <ele>1534</ele>
        <time>2018-03-04T12:42:49Z</time>
      </trkpt>
      <trkpt lat="46.08388" lon="6.80569">
        <ele>1534</ele>
        <time>2018-03-04T12:42:52Z</time>
      </trkpt>
      <trkpt lat="46.0839" lon="6.80575">
        <ele>1535</ele>
        <time>2018-03-04T12:42:58Z</time>
      </trkpt>
      <trkpt lat="46.08392" lon="6.80581">
        <ele>1536</ele>
        <time>2018-03-04T12:43:03Z</time>
      </trkpt>
      <trkpt lat="46.08392" lon="6.80582">
        <ele>1536</ele>
        <time>2018-03-04T12:43:04Z</time>
      </trkpt>
      <trkpt lat="46.08393" lon="6.80583">
        <ele>1536</ele>
        <time>2018-03-04T12:43:05Z</time>
      </trkpt>
      <trkpt lat="46.08395" lon="6.80589">
        <ele>1545</ele>
        <time>2018-03-04T12:43:10Z</time>
      </trkpt>
      <trkpt lat="46.08395" lon="6.80591">
        <ele>1545</ele>
        <time>2018-03-04T12:43:12Z</time>
      </trkpt>
      <trkpt lat="46.08397" lon="6.80594">
        <ele>1545</ele>
        <time>2018-03-04T12:43:16Z</time>
      </trkpt>
      <trkpt lat="46.08399" lon="6.80596">
        <ele>1545</ele>
        <time>2018-03-04T12:43:19Z</time>
      </trkpt>
      <trkpt lat="46.08401" lon="6.80597">
        <ele>1546</ele>
        <time>2018-03-04T12:43:21Z</time>
      </trkpt>
      <trkpt lat="46.08402" lon="6.80598">
        <ele>1546</ele>
        <time>2018-03-04T12:43:23Z</time>
      </trkpt>
      <trkpt lat="46.08404" lon="6.80599">
        <ele>1546</ele>
        <time>2018-03-04T12:43:25Z</time>
      </trkpt>
      <trkpt lat="46.08408" lon="6.80602">
        <ele>1546</ele>
        <time>2018-03-04T12:43:29Z</time>
      </trkpt>
      <trkpt lat="46.08415" lon="6.80613">
        <ele>1548</ele>
        <time>2018-03-04T12:43:42Z</time>
      </trkpt>
      <trkpt lat="46.08416" lon="6.80616">
        <ele>1548</ele>
        <time>2018-03-04T12:43:45Z</time>
      </trkpt>
      <trkpt lat="46.08417" lon="6.80621">
        <ele>1561</ele>
        <time>2018-03-04T12:43:49Z</time>
      </trkpt>
      <trkpt lat="46.08418" lon="6.80622">
        <ele>1561</ele>
        <time>2018-03-04T12:43:50Z</time>
      </trkpt>
      <trkpt lat="46.08422" lon="6.80626">
        <ele>1562</ele>
        <time>2018-03-04T12:43:56Z</time>
      </trkpt>
      <trkpt lat="46.08424" lon="6.80627">
        <ele>1562</ele>
        <time>2018-03-04T12:43:59Z</time>
      </trkpt>
      <trkpt lat="46.08425" lon="6.80628">
        <ele>1563</ele>
        <time>2018-03-04T12:44:00Z</time>
      </trkpt>
      <trkpt lat="46.08425" lon="6.80629">
        <ele>1563</ele>
        <time>2018-03-04T12:44:01Z</time>
      </trkpt>
      <trkpt lat="46.08428" lon="6.80632">
        <ele>1563</ele>
        <time>2018-03-04T12:44:05Z</time>
      </trkpt>
      <trkpt lat="46.08429" lon="6.80633">
        <ele>1564</ele>
        <time>2018-03-04T12:44:06Z</time>
      </trkpt>
      <trkpt lat="46.08431" lon="6.80639">
        <ele>1564</ele>
        <time>2018-03-04T12:44:12Z</time>
      </trkpt>
      <trkpt lat="46.08431" lon="6.8064">
        <ele>1565</ele>
        <time>2018-03-04T12:44:19Z</time>
      </trkpt>
      <trkpt lat="46.0843" lon="6.80641">
        <ele>1565</ele>
        <time>2018-03-04T12:44:23Z</time>
      </trkpt>
      <trkpt lat="46.0843" lon="6.80646">
        <ele>1565</ele>
        <time>2018-03-04T12:44:29Z</time>
      </trkpt>
      <trkpt lat="46.08431" lon="6.80649">
        <ele>1566</ele>
        <time>2018-03-04T12:44:32Z</time>
      </trkpt>
      <trkpt lat="46.08432" lon="6.80662">
        <ele>1566</ele>
        <time>2018-03-04T12:44:47Z</time>
      </trkpt>
      <trkpt lat="46.08433" lon="6.80667">
        <ele>1575</ele>
        <time>2018-03-04T12:44:52Z</time>
      </trkpt>
      <trkpt lat="46.08437" lon="6.80673">
        <ele>1577</ele>
        <time>2018-03-04T12:45:05Z</time>
      </trkpt>
      <trkpt lat="46.08448" lon="6.8068">
        <ele>1580</ele>
        <time>2018-03-04T12:45:21Z</time>
      </trkpt>
      <trkpt lat="46.08455" lon="6.80684">
        <ele>1582</ele>
        <time>2018-03-04T12:45:31Z</time>
      </trkpt>
      <trkpt lat="46.08458" lon="6.80686">
        <ele>1582</ele>
        <time>2018-03-04T12:45:35Z</time>
      </trkpt>
      <trkpt lat="46.08461" lon="6.80689">
        <ele>1583</ele>
        <time>2018-03-04T12:45:40Z</time>
      </trkpt>
      <trkpt lat="46.08468" lon="6.80692">
        <ele>1584</ele>
        <time>2018-03-04T12:45:54Z</time>
      </trkpt>
      <trkpt lat="46.0847" lon="6.80693">
        <ele>1584</ele>
        <time>2018-03-04T12:45:55Z</time>
      </trkpt>
      <trkpt lat="46.08471" lon="6.80694">
        <ele>1584</ele>
        <time>2018-03-04T12:45:57Z</time>
      </trkpt>
      <trkpt lat="46.08475" lon="6.80698">
        <ele>1585</ele>
        <time>2018-03-04T12:46:04Z</time>
      </trkpt>
      <trkpt lat="46.08479" lon="6.80702">
        <ele>1586</ele>
        <time>2018-03-04T12:46:10Z</time>
      </trkpt>
      <trkpt lat="46.08487" lon="6.80709">
        <ele>1587</ele>
        <time>2018-03-04T12:46:25Z</time>
      </trkpt>
      <trkpt lat="46.08495" lon="6.80709">
        <ele>1588</ele>
        <time>2018-03-04T12:46:40Z</time>
      </trkpt>
      <trkpt lat="46.08498" lon="6.80709">
        <ele>1588</ele>
        <time>2018-03-04T12:46:44Z</time>
      </trkpt>
      <trkpt lat="46.08503" lon="6.80713">
        <ele>1595</ele>
        <time>2018-03-04T12:46:53Z</time>
      </trkpt>
      <trkpt lat="46.08505" lon="6.8072">
        <ele>1596</ele>
        <time>2018-03-04T12:47:01Z</time>
      </trkpt>
      <trkpt lat="46.08505" lon="6.80722">
        <ele>1597</ele>
        <time>2018-03-04T12:47:03Z</time>
      </trkpt>
      <trkpt lat="46.08506" lon="6.80725">
        <ele>1597</ele>
        <time>2018-03-04T12:47:07Z</time>
      </trkpt>
      <trkpt lat="46.08506" lon="6.80729">
        <ele>1598</ele>
        <time>2018-03-04T12:47:11Z</time>
      </trkpt>
      <trkpt lat="46.08508" lon="6.80741">
        <ele>1600</ele>
        <time>2018-03-04T12:47:27Z</time>
      </trkpt>
      <trkpt lat="46.08509" lon="6.80742">
        <ele>1600</ele>
        <time>2018-03-04T12:47:37Z</time>
      </trkpt>
      <trkpt lat="46.08511" lon="6.80753">
        <ele>1604</ele>
        <time>2018-03-04T12:47:50Z</time>
      </trkpt>
      <trkpt lat="46.08512" lon="6.80759">
        <ele>1604</ele>
        <time>2018-03-04T12:47:56Z</time>
      </trkpt>
      <trkpt lat="46.08515" lon="6.80771">
        <ele>1604</ele>
        <time>2018-03-04T12:48:11Z</time>
      </trkpt>
      <trkpt lat="46.08516" lon="6.80773">
        <ele>1604</ele>
        <time>2018-03-04T12:48:13Z</time>
      </trkpt>
      <trkpt lat="46.08518" lon="6.80778">
        <ele>1604</ele>
        <time>2018-03-04T12:48:19Z</time>
      </trkpt>
      <trkpt lat="46.0852" lon="6.80781">
        <ele>1604</ele>
        <time>2018-03-04T12:48:23Z</time>
      </trkpt>
      <trkpt lat="46.08522" lon="6.80783">
        <ele>1604</ele>
        <time>2018-03-04T12:48:25Z</time>
      </trkpt>
      <trkpt lat="46.08523" lon="6.80784">
        <ele>1604</ele>
        <time>2018-03-04T12:48:27Z</time>
      </trkpt>
      <trkpt lat="46.08524" lon="6.80785">
        <ele>1604</ele>
        <time>2018-03-04T12:48:28Z</time>
      </trkpt>
      <trkpt lat="46.08533" lon="6.80793">
        <ele>1605</ele>
        <time>2018-03-04T12:48:41Z</time>
      </trkpt>
      <trkpt lat="46.08534" lon="6.80795">
        <ele>1605</ele>
        <time>2018-03-04T12:48:43Z</time>
      </trkpt>
      <trkpt lat="46.0854" lon="6.808">
        <ele>1605</ele>
        <time>2018-03-04T12:48:51Z</time>
      </trkpt>
      <trkpt lat="46.08551" lon="6.80804">
        <ele>1605</ele>
        <time>2018-03-04T12:49:06Z</time>
      </trkpt>
      <trkpt lat="46.08553" lon="6.80805">
        <ele>1605</ele>
        <time>2018-03-04T12:49:08Z</time>
      </trkpt>
      <trkpt lat="46.08554" lon="6.80805">
        <ele>1605</ele>
        <time>2018-03-04T12:49:09Z</time>
      </trkpt>
      <trkpt lat="46.08557" lon="6.80807">
        <ele>1605</ele>
        <time>2018-03-04T12:49:13Z</time>
      </trkpt>
      <trkpt lat="46.08559" lon="6.80808">
        <ele>1605</ele>
        <time>2018-03-04T12:49:15Z</time>
      </trkpt>
      <trkpt lat="46.08561" lon="6.80808">
        <ele>1605</ele>
        <time>2018-03-04T12:49:17Z</time>
      </trkpt>
      <trkpt lat="46.08563" lon="6.80809">
        <ele>1605</ele>
        <time>2018-03-04T12:49:19Z</time>
      </trkpt>
      <trkpt lat="46.08564" lon="6.80809">
        <ele>1605</ele>
        <time>2018-03-04T12:49:20Z</time>
      </trkpt>
      <trkpt lat="46.08574" lon="6.80811">
        <ele>1605</ele>
        <time>2018-03-04T12:49:35Z</time>
      </trkpt>
      <trkpt lat="46.08581" lon="6.80814">
        <ele>1605</ele>
        <time>2018-03-04T12:49:45Z</time>
      </trkpt>
      <trkpt lat="46.08589" lon="6.80818">
        <ele>1595</ele>
        <time>2018-03-04T12:50:01Z</time>
      </trkpt>
      <trkpt lat="46.08594" lon="6.80818">
        <ele>1594</ele>
        <time>2018-03-04T12:50:08Z</time>
      </trkpt>
      <trkpt lat="46.08595" lon="6.80818">
        <ele>1594</ele>
        <time>2018-03-04T12:50:10Z</time>
      </trkpt>
      <trkpt lat="46.08599" lon="6.80819">
        <ele>1593</ele>
        <time>2018-03-04T12:50:14Z</time>
      </trkpt>
      <trkpt lat="46.08602" lon="6.8082">
        <ele>1592</ele>
        <time>2018-03-04T12:50:18Z</time>
      </trkpt>
      <trkpt lat="46.0861" lon="6.80821">
        <ele>1589</ele>
        <time>2018-03-04T12:50:33Z</time>
      </trkpt>
      <trkpt lat="46.08613" lon="6.8082">
        <ele>1587</ele>
        <time>2018-03-04T12:50:38Z</time>
      </trkpt>
      <trkpt lat="46.08621" lon="6.80815">
        <ele>1584</ele>
        <time>2018-03-04T12:50:53Z</time>
      </trkpt>
      <trkpt lat="46.08624" lon="6.80815">
        <ele>1583</ele>
        <time>2018-03-04T12:50:57Z</time>
      </trkpt>
      <trkpt lat="46.08625" lon="6.80815">
        <ele>1583</ele>
        <time>2018-03-04T12:50:58Z</time>
      </trkpt>
      <trkpt lat="46.0863" lon="6.8082">
        <ele>1582</ele>
        <time>2018-03-04T12:51:12Z</time>
      </trkpt>
      <trkpt lat="46.08631" lon="6.80824">
        <ele>1581</ele>
        <time>2018-03-04T12:51:17Z</time>
      </trkpt>
      <trkpt lat="46.08635" lon="6.80833">
        <ele>1580</ele>
        <time>2018-03-04T12:51:32Z</time>
      </trkpt>
      <trkpt lat="46.08637" lon="6.80839">
        <ele>1585</ele>
        <time>2018-03-04T12:51:39Z</time>
      </trkpt>
      <trkpt lat="46.08636" lon="6.80847">
        <ele>1586</ele>
        <time>2018-03-04T12:52:01Z</time>
      </trkpt>
      <trkpt lat="46.08637" lon="6.80848">
        <ele>1586</ele>
        <time>2018-03-04T12:52:12Z</time>
      </trkpt>
      <trkpt lat="46.08637" lon="6.80848">
        <ele>1586</ele>
        <time>2018-03-04T12:52:20Z</time>
      </trkpt>
      <trkpt lat="46.08637" lon="6.80848">
        <ele>1586</ele>
        <time>2018-03-04T12:52:27Z</time>
      </trkpt>
      <trkpt lat="46.08636" lon="6.80848">
        <ele>1586</ele>
        <time>2018-03-04T12:52:34Z</time>
      </trkpt>
      <trkpt lat="46.08634" lon="6.80856">
        <ele>1588</ele>
        <time>2018-03-04T12:52:44Z</time>
      </trkpt>
      <trkpt lat="46.08633" lon="6.80859">
        <ele>1589</ele>
        <time>2018-03-04T12:52:47Z</time>
      </trkpt>
      <trkpt lat="46.08632" lon="6.80862">
        <ele>1589</ele>
        <time>2018-03-04T12:52:50Z</time>
      </trkpt>
      <trkpt lat="46.08631" lon="6.80865">
        <ele>1589</ele>
        <time>2018-03-04T12:52:53Z</time>
      </trkpt>
      <trkpt lat="46.08631" lon="6.80867">
        <ele>1590</ele>
        <time>2018-03-04T12:52:54Z</time>
      </trkpt>
      <trkpt lat="46.08629" lon="6.80872">
        <ele>1591</ele>
        <time>2018-03-04T12:53:00Z</time>
      </trkpt>
      <trkpt lat="46.08626" lon="6.80875">
        <ele>1592</ele>
        <time>2018-03-04T12:53:06Z</time>
      </trkpt>
      <trkpt lat="46.08625" lon="6.80878">
        <ele>1592</ele>
        <time>2018-03-04T12:53:10Z</time>
      </trkpt>
      <trkpt lat="46.08623" lon="6.80882">
        <ele>1593</ele>
        <time>2018-03-04T12:53:14Z</time>
      </trkpt>
      <trkpt lat="46.08621" lon="6.80884">
        <ele>1593</ele>
        <time>2018-03-04T12:53:18Z</time>
      </trkpt>
      <trkpt lat="46.08618" lon="6.80886">
        <ele>1594</ele>
        <time>2018-03-04T12:53:22Z</time>
      </trkpt>
      <trkpt lat="46.08617" lon="6.80887">
        <ele>1595</ele>
        <time>2018-03-04T12:53:24Z</time>
      </trkpt>
      <trkpt lat="46.08614" lon="6.80892">
        <ele>1596</ele>
        <time>2018-03-04T12:53:31Z</time>
      </trkpt>
      <trkpt lat="46.08608" lon="6.80905">
        <ele>1600</ele>
        <time>2018-03-04T12:53:47Z</time>
      </trkpt>
      <trkpt lat="46.08606" lon="6.80917">
        <ele>1608</ele>
        <time>2018-03-04T12:54:01Z</time>
      </trkpt>
      <trkpt lat="46.08604" lon="6.8093">
        <ele>1608</ele>
        <time>2018-03-04T12:54:14Z</time>
      </trkpt>
      <trkpt lat="46.08604" lon="6.80931">
        <ele>1608</ele>
        <time>2018-03-04T12:54:15Z</time>
      </trkpt>
      <trkpt lat="46.08604" lon="6.80938">
        <ele>1608</ele>
        <time>2018-03-04T12:54:22Z</time>
      </trkpt>
      <trkpt lat="46.08608" lon="6.80955">
        <ele>1607</ele>
        <time>2018-03-04T12:54:34Z</time>
      </trkpt>
      <trkpt lat="46.0861" lon="6.80964">
        <ele>1607</ele>
        <time>2018-03-04T12:54:41Z</time>
      </trkpt>
      <trkpt lat="46.08611" lon="6.80966">
        <ele>1607</ele>
        <time>2018-03-04T12:54:43Z</time>
      </trkpt>
      <trkpt lat="46.08612" lon="6.80974">
        <ele>1608</ele>
        <time>2018-03-04T12:54:48Z</time>
      </trkpt>
      <trkpt lat="46.08613" lon="6.80975">
        <ele>1608</ele>
        <time>2018-03-04T12:54:49Z</time>
      </trkpt>
      <trkpt lat="46.08613" lon="6.80977">
        <ele>1608</ele>
        <time>2018-03-04T12:54:50Z</time>
      </trkpt>
      <trkpt lat="46.08616" lon="6.80983">
        <ele>1608</ele>
        <time>2018-03-04T12:54:54Z</time>
      </trkpt>
      <trkpt lat="46.08617" lon="6.80985">
        <ele>1608</ele>
        <time>2018-03-04T12:54:55Z</time>
      </trkpt>
      <trkpt lat="46.08617" lon="6.80986">
        <ele>1608</ele>
        <time>2018-03-04T12:54:56Z</time>
      </trkpt>
      <trkpt lat="46.08618" lon="6.80988">
        <ele>1607</ele>
        <time>2018-03-04T12:54:57Z</time>
      </trkpt>
      <trkpt lat="46.08619" lon="6.8099">
        <ele>1607</ele>
        <time>2018-03-04T12:54:58Z</time>
      </trkpt>
      <trkpt lat="46.08619" lon="6.80992">
        <ele>1607</ele>
        <time>2018-03-04T12:54:59Z</time>
      </trkpt>
      <trkpt lat="46.0862" lon="6.80993">
        <ele>1607</ele>
        <time>2018-03-04T12:55:00Z</time>
      </trkpt>
      <trkpt lat="46.0862" lon="6.80995">
        <ele>1607</ele>
        <time>2018-03-04T12:55:01Z</time>
      </trkpt>
      <trkpt lat="46.0862" lon="6.80996">
        <ele>1607</ele>
        <time>2018-03-04T12:55:02Z</time>
      </trkpt>
      <trkpt lat="46.08621" lon="6.80998">
        <ele>1607</ele>
        <time>2018-03-04T12:55:03Z</time>
      </trkpt>
      <trkpt lat="46.08622" lon="6.81">
        <ele>1607</ele>
        <time>2018-03-04T12:55:04Z</time>
      </trkpt>
      <trkpt lat="46.08622" lon="6.81001">
        <ele>1614</ele>
        <time>2018-03-04T12:55:05Z</time>
      </trkpt>
      <trkpt lat="46.08623" lon="6.81003">
        <ele>1613</ele>
        <time>2018-03-04T12:55:06Z</time>
      </trkpt>
      <trkpt lat="46.08624" lon="6.81004">
        <ele>1613</ele>
        <time>2018-03-04T12:55:07Z</time>
      </trkpt>
      <trkpt lat="46.08628" lon="6.81013">
        <ele>1612</ele>
        <time>2018-03-04T12:55:13Z</time>
      </trkpt>
      <trkpt lat="46.08629" lon="6.81015">
        <ele>1612</ele>
        <time>2018-03-04T12:55:14Z</time>
      </trkpt>
      <trkpt lat="46.0863" lon="6.81017">
        <ele>1612</ele>
        <time>2018-03-04T12:55:15Z</time>
      </trkpt>
      <trkpt lat="46.08638" lon="6.81036">
        <ele>1612</ele>
        <time>2018-03-04T12:55:27Z</time>
      </trkpt>
      <trkpt lat="46.08639" lon="6.81037">
        <ele>1612</ele>
        <time>2018-03-04T12:55:28Z</time>
      </trkpt>
      <trkpt lat="46.08646" lon="6.81051">
        <ele>1611</ele>
        <time>2018-03-04T12:55:34Z</time>
      </trkpt>
      <trkpt lat="46.08648" lon="6.81059">
        <ele>1611</ele>
        <time>2018-03-04T12:55:37Z</time>
      </trkpt>
      <trkpt lat="46.08646" lon="6.81072">
        <ele>1611</ele>
        <time>2018-03-04T12:55:47Z</time>
      </trkpt>
      <trkpt lat="46.08645" lon="6.81073">
        <ele>1611</ele>
        <time>2018-03-04T12:55:48Z</time>
      </trkpt>
      <trkpt lat="46.08645" lon="6.81075">
        <ele>1611</ele>
        <time>2018-03-04T12:55:49Z</time>
      </trkpt>
      <trkpt lat="46.08645" lon="6.81076">
        <ele>1611</ele>
        <time>2018-03-04T12:55:50Z</time>
      </trkpt>
      <trkpt lat="46.08644" lon="6.81084">
        <ele>1619</ele>
        <time>2018-03-04T12:55:56Z</time>
      </trkpt>
      <trkpt lat="46.08644" lon="6.81085">
        <ele>1619</ele>
        <time>2018-03-04T12:55:57Z</time>
      </trkpt>
      <trkpt lat="46.08644" lon="6.81087">
        <ele>1619</ele>
        <time>2018-03-04T12:55:58Z</time>
      </trkpt>
      <trkpt lat="46.08643" lon="6.8109">
        <ele>1619</ele>
        <time>2018-03-04T12:56:00Z</time>
      </trkpt>
      <trkpt lat="46.08643" lon="6.81091">
        <ele>1620</ele>
        <time>2018-03-04T12:56:01Z</time>
      </trkpt>
      <trkpt lat="46.08642" lon="6.81102">
        <ele>1622</ele>
        <time>2018-03-04T12:56:10Z</time>
      </trkpt>
      <trkpt lat="46.08641" lon="6.81104">
        <ele>1622</ele>
        <time>2018-03-04T12:56:11Z</time>
      </trkpt>
      <trkpt lat="46.08641" lon="6.81106">
        <ele>1623</ele>
        <time>2018-03-04T12:56:13Z</time>
      </trkpt>
      <trkpt lat="46.08641" lon="6.81108">
        <ele>1623</ele>
        <time>2018-03-04T12:56:15Z</time>
      </trkpt>
      <trkpt lat="46.08641" lon="6.81109">
        <ele>1623</ele>
        <time>2018-03-04T12:56:16Z</time>
      </trkpt>
      <trkpt lat="46.08638" lon="6.81129">
        <ele>1626</ele>
        <time>2018-03-04T12:56:32Z</time>
      </trkpt>
      <trkpt lat="46.08638" lon="6.8113">
        <ele>1626</ele>
        <time>2018-03-04T12:56:33Z</time>
      </trkpt>
      <trkpt lat="46.08637" lon="6.81132">
        <ele>1627</ele>
        <time>2018-03-04T12:56:34Z</time>
      </trkpt>
      <trkpt lat="46.08633" lon="6.81147">
        <ele>1629</ele>
        <time>2018-03-04T12:56:49Z</time>
      </trkpt>
      <trkpt lat="46.08632" lon="6.81149">
        <ele>1629</ele>
        <time>2018-03-04T12:56:51Z</time>
      </trkpt>
      <trkpt lat="46.08632" lon="6.8115">
        <ele>1629</ele>
        <time>2018-03-04T12:56:52Z</time>
      </trkpt>
      <trkpt lat="46.08625" lon="6.81164">
        <ele>1632</ele>
        <time>2018-03-04T12:57:08Z</time>
      </trkpt>
      <trkpt lat="46.08624" lon="6.81165">
        <ele>1632</ele>
        <time>2018-03-04T12:57:09Z</time>
      </trkpt>
      <trkpt lat="46.08623" lon="6.81165">
        <ele>1632</ele>
        <time>2018-03-04T12:57:10Z</time>
      </trkpt>
      <trkpt lat="46.08618" lon="6.81175">
        <ele>1650</ele>
        <time>2018-03-04T12:57:22Z</time>
      </trkpt>
      <trkpt lat="46.08618" lon="6.81176">
        <ele>1650</ele>
        <time>2018-03-04T12:57:23Z</time>
      </trkpt>
      <trkpt lat="46.08631" lon="6.81212">
        <ele>1654</ele>
        <time>2018-03-04T12:57:47Z</time>
      </trkpt>
      <trkpt lat="46.08644" lon="6.81235">
        <ele>1655</ele>
        <time>2018-03-04T12:58:01Z</time>
      </trkpt>
      <trkpt lat="46.08647" lon="6.81239">
        <ele>1656</ele>
        <time>2018-03-04T12:58:05Z</time>
      </trkpt>
      <trkpt lat="46.08648" lon="6.8124">
        <ele>1656</ele>
        <time>2018-03-04T12:58:06Z</time>
      </trkpt>
      <trkpt lat="46.08649" lon="6.81241">
        <ele>1656</ele>
        <time>2018-03-04T12:58:07Z</time>
      </trkpt>
      <trkpt lat="46.08654" lon="6.81251">
        <ele>1668</ele>
        <time>2018-03-04T12:58:16Z</time>
      </trkpt>
      <trkpt lat="46.08657" lon="6.81252">
        <ele>1667</ele>
        <time>2018-03-04T12:58:20Z</time>
      </trkpt>
      <trkpt lat="46.08657" lon="6.81253">
        <ele>1666</ele>
        <time>2018-03-04T12:58:21Z</time>
      </trkpt>
      <trkpt lat="46.0866" lon="6.81255">
        <ele>1665</ele>
        <time>2018-03-04T12:58:24Z</time>
      </trkpt>
      <trkpt lat="46.08666" lon="6.81262">
        <ele>1668</ele>
        <time>2018-03-04T12:58:34Z</time>
      </trkpt>
      <trkpt lat="46.08668" lon="6.81267">
        <ele>1649</ele>
        <time>2018-03-04T12:58:41Z</time>
      </trkpt>
      <trkpt lat="46.08668" lon="6.8127">
        <ele>1649</ele>
        <time>2018-03-04T12:58:44Z</time>
      </trkpt>
      <trkpt lat="46.08667" lon="6.81278">
        <ele>1649</ele>
        <time>2018-03-04T12:58:51Z</time>
      </trkpt>
      <trkpt lat="46.08667" lon="6.81279">
        <ele>1649</ele>
        <time>2018-03-04T12:58:52Z</time>
      </trkpt>
      <trkpt lat="46.08667" lon="6.81281">
        <ele>1679</ele>
        <time>2018-03-04T12:58:54Z</time>
      </trkpt>
      <trkpt lat="46.08666" lon="6.81284">
        <ele>1680</ele>
        <time>2018-03-04T12:58:57Z</time>
      </trkpt>
      <trkpt lat="46.08665" lon="6.81295">
        <ele>1684</ele>
        <time>2018-03-04T12:59:08Z</time>
      </trkpt>
      <trkpt lat="46.08663" lon="6.813">
        <ele>1686</ele>
        <time>2018-03-04T12:59:13Z</time>
      </trkpt>
      <trkpt lat="46.0866" lon="6.81306">
        <ele>1687</ele>
        <time>2018-03-04T12:59:19Z</time>
      </trkpt>
      <trkpt lat="46.08657" lon="6.81313">
        <ele>1689</ele>
        <time>2018-03-04T12:59:28Z</time>
      </trkpt>
      <trkpt lat="46.08654" lon="6.81317">
        <ele>1690</ele>
        <time>2018-03-04T12:59:33Z</time>
      </trkpt>
      <trkpt lat="46.08652" lon="6.81321">
        <ele>1691</ele>
        <time>2018-03-04T12:59:37Z</time>
      </trkpt>
      <trkpt lat="46.08651" lon="6.81323">
        <ele>1691</ele>
        <time>2018-03-04T12:59:39Z</time>
      </trkpt>
      <trkpt lat="46.08649" lon="6.81326">
        <ele>1691</ele>
        <time>2018-03-04T12:59:44Z</time>
      </trkpt>
      <trkpt lat="46.08648" lon="6.81327">
        <ele>1691</ele>
        <time>2018-03-04T12:59:46Z</time>
      </trkpt>
      <trkpt lat="46.08641" lon="6.81339">
        <ele>1707</ele>
        <time>2018-03-04T13:00:03Z</time>
      </trkpt>
      <trkpt lat="46.08636" lon="6.81353">
        <ele>1710</ele>
        <time>2018-03-04T13:00:16Z</time>
      </trkpt>
      <trkpt lat="46.0863" lon="6.8136">
        <ele>1712</ele>
        <time>2018-03-04T13:00:29Z</time>
      </trkpt>
      <trkpt lat="46.08626" lon="6.8137">
        <ele>1713</ele>
        <time>2018-03-04T13:00:40Z</time>
      </trkpt>
      <trkpt lat="46.08626" lon="6.81379">
        <ele>1715</ele>
        <time>2018-03-04T13:00:49Z</time>
      </trkpt>
      <trkpt lat="46.08629" lon="6.81384">
        <ele>1715</ele>
        <time>2018-03-04T13:00:55Z</time>
      </trkpt>
      <trkpt lat="46.0863" lon="6.81385">
        <ele>1715</ele>
        <time>2018-03-04T13:00:56Z</time>
      </trkpt>
      <trkpt lat="46.08634" lon="6.81387">
        <ele>1715</ele>
        <time>2018-03-04T13:01:01Z</time>
      </trkpt>
      <trkpt lat="46.08635" lon="6.81389">
        <ele>1715</ele>
        <time>2018-03-04T13:01:03Z</time>
      </trkpt>
      <trkpt lat="46.08636" lon="6.81391">
        <ele>1715</ele>
        <time>2018-03-04T13:01:05Z</time>
      </trkpt>
      <trkpt lat="46.08637" lon="6.81392">
        <ele>1715</ele>
        <time>2018-03-04T13:01:06Z</time>
      </trkpt>
      <trkpt lat="46.08642" lon="6.81398">
        <ele>1714</ele>
        <time>2018-03-04T13:01:12Z</time>
      </trkpt>
      <trkpt lat="46.08643" lon="6.81399">
        <ele>1714</ele>
        <time>2018-03-04T13:01:14Z</time>
      </trkpt>
      <trkpt lat="46.08652" lon="6.81402">
        <ele>1714</ele>
        <time>2018-03-04T13:01:27Z</time>
      </trkpt>
      <trkpt lat="46.08653" lon="6.81401">
        <ele>1713</ele>
        <time>2018-03-04T13:01:29Z</time>
      </trkpt>
      <trkpt lat="46.08666" lon="6.81404">
        <ele>1713</ele>
        <time>2018-03-04T13:01:45Z</time>
      </trkpt>
      <trkpt lat="46.08667" lon="6.81404">
        <ele>1692</ele>
        <time>2018-03-04T13:01:47Z</time>
      </trkpt>
      <trkpt lat="46.08675" lon="6.81412">
        <ele>1695</ele>
        <time>2018-03-04T13:02:01Z</time>
      </trkpt>
      <trkpt lat="46.08674" lon="6.81417">
        <ele>1702</ele>
        <time>2018-03-04T13:02:07Z</time>
      </trkpt>
      <trkpt lat="46.08677" lon="6.81423">
        <ele>1698</ele>
        <time>2018-03-04T13:02:21Z</time>
      </trkpt>
      <trkpt lat="46.08691" lon="6.81425">
        <ele>1686</ele>
        <time>2018-03-04T13:02:37Z</time>
      </trkpt>
      <trkpt lat="46.08691" lon="6.81426">
        <ele>1686</ele>
        <time>2018-03-04T13:02:38Z</time>
      </trkpt>
      <trkpt lat="46.08692" lon="6.81426">
        <ele>1685</ele>
        <time>2018-03-04T13:02:39Z</time>
      </trkpt>
      <trkpt lat="46.08693" lon="6.81426">
        <ele>1684</ele>
        <time>2018-03-04T13:02:41Z</time>
      </trkpt>
      <trkpt lat="46.08695" lon="6.81428">
        <ele>1683</ele>
        <time>2018-03-04T13:02:44Z</time>
      </trkpt>
      <trkpt lat="46.08689" lon="6.81442">
        <ele>1685</ele>
        <time>2018-03-04T13:03:00Z</time>
      </trkpt>
      <trkpt lat="46.08693" lon="6.81442">
        <ele>1683</ele>
        <time>2018-03-04T13:03:07Z</time>
      </trkpt>
      <trkpt lat="46.08699" lon="6.81442">
        <ele>1680</ele>
        <time>2018-03-04T13:03:14Z</time>
      </trkpt>
      <trkpt lat="46.08712" lon="6.81446">
        <ele>1673</ele>
        <time>2018-03-04T13:03:31Z</time>
      </trkpt>
      <trkpt lat="46.08713" lon="6.81447">
        <ele>1672</ele>
        <time>2018-03-04T13:03:32Z</time>
      </trkpt>
      <trkpt lat="46.08705" lon="6.81458">
        <ele>1678</ele>
        <time>2018-03-04T13:03:48Z</time>
      </trkpt>
      <trkpt lat="46.08704" lon="6.81459">
        <ele>1679</ele>
        <time>2018-03-04T13:03:49Z</time>
      </trkpt>
      <trkpt lat="46.08703" lon="6.8146">
        <ele>1679</ele>
        <time>2018-03-04T13:03:50Z</time>
      </trkpt>
      <trkpt lat="46.08703" lon="6.81461">
        <ele>1680</ele>
        <time>2018-03-04T13:03:51Z</time>
      </trkpt>
      <trkpt lat="46.08697" lon="6.81468">
        <ele>1683</ele>
        <time>2018-03-04T13:04:01Z</time>
      </trkpt>
      <trkpt lat="46.08696" lon="6.81469">
        <ele>1684</ele>
        <time>2018-03-04T13:04:03Z</time>
      </trkpt>
      <trkpt lat="46.08687" lon="6.81484">
        <ele>1694</ele>
        <time>2018-03-04T13:04:19Z</time>
      </trkpt>
      <trkpt lat="46.0868" lon="6.81493">
        <ele>1704</ele>
        <time>2018-03-04T13:04:33Z</time>
      </trkpt>
      <trkpt lat="46.08678" lon="6.81497">
        <ele>1708</ele>
        <time>2018-03-04T13:04:38Z</time>
      </trkpt>
      <trkpt lat="46.08675" lon="6.81503">
        <ele>1717</ele>
        <time>2018-03-04T13:04:46Z</time>
      </trkpt>
      <trkpt lat="46.08677" lon="6.81516">
        <ele>1709</ele>
        <time>2018-03-04T13:05:02Z</time>
      </trkpt>
      <trkpt lat="46.08672" lon="6.81523">
        <ele>1708</ele>
        <time>2018-03-04T13:05:12Z</time>
      </trkpt>
      <trkpt lat="46.08676" lon="6.81527">
        <ele>1706</ele>
        <time>2018-03-04T13:05:24Z</time>
      </trkpt>
      <trkpt lat="46.08687" lon="6.81531">
        <ele>1702</ele>
        <time>2018-03-04T13:05:40Z</time>
      </trkpt>
      <trkpt lat="46.08697" lon="6.81534">
        <ele>1697</ele>
        <time>2018-03-04T13:05:55Z</time>
      </trkpt>
      <trkpt lat="46.08699" lon="6.81535">
        <ele>1696</ele>
        <time>2018-03-04T13:05:58Z</time>
      </trkpt>
      <trkpt lat="46.08696" lon="6.8154">
        <ele>1698</ele>
        <time>2018-03-04T13:06:06Z</time>
      </trkpt>
      <trkpt lat="46.08696" lon="6.81542">
        <ele>1698</ele>
        <time>2018-03-04T13:06:08Z</time>
      </trkpt>
      <trkpt lat="46.08696" lon="6.81544">
        <ele>1698</ele>
        <time>2018-03-04T13:06:10Z</time>
      </trkpt>
      <trkpt lat="46.08694" lon="6.81549">
        <ele>1699</ele>
        <time>2018-03-04T13:06:14Z</time>
      </trkpt>
      <trkpt lat="46.08692" lon="6.81552">
        <ele>1701</ele>
        <time>2018-03-04T13:06:18Z</time>
      </trkpt>
      <trkpt lat="46.08692" lon="6.81553">
        <ele>1701</ele>
        <time>2018-03-04T13:06:19Z</time>
      </trkpt>
      <trkpt lat="46.08683" lon="6.81561">
        <ele>1708</ele>
        <time>2018-03-04T13:06:33Z</time>
      </trkpt>
      <trkpt lat="46.08679" lon="6.81567">
        <ele>1713</ele>
        <time>2018-03-04T13:06:49Z</time>
      </trkpt>
      <trkpt lat="46.08681" lon="6.81568">
        <ele>1712</ele>
        <time>2018-03-04T13:06:51Z</time>
      </trkpt>
      <trkpt lat="46.08682" lon="6.81568">
        <ele>1712</ele>
        <time>2018-03-04T13:06:52Z</time>
      </trkpt>
      <trkpt lat="46.08683" lon="6.81569">
        <ele>1711</ele>
        <time>2018-03-04T13:06:53Z</time>
      </trkpt>
      <trkpt lat="46.0869" lon="6.81571">
        <ele>1707</ele>
        <time>2018-03-04T13:07:03Z</time>
      </trkpt>
      <trkpt lat="46.08691" lon="6.81571">
        <ele>1706</ele>
        <time>2018-03-04T13:07:04Z</time>
      </trkpt>
      <trkpt lat="46.08705" lon="6.81571">
        <ele>1696</ele>
        <time>2018-03-04T13:07:23Z</time>
      </trkpt>
      <trkpt lat="46.08714" lon="6.81575">
        <ele>1690</ele>
        <time>2018-03-04T13:07:34Z</time>
      </trkpt>
      <trkpt lat="46.08717" lon="6.81579">
        <ele>1688</ele>
        <time>2018-03-04T13:07:40Z</time>
      </trkpt>
      <trkpt lat="46.08715" lon="6.81586">
        <ele>1702</ele>
        <time>2018-03-04T13:07:49Z</time>
      </trkpt>
      <trkpt lat="46.08712" lon="6.8159">
        <ele>1705</ele>
        <time>2018-03-04T13:07:55Z</time>
      </trkpt>
      <trkpt lat="46.08711" lon="6.81594">
        <ele>1706</ele>
        <time>2018-03-04T13:07:59Z</time>
      </trkpt>
      <trkpt lat="46.08709" lon="6.81602">
        <ele>1709</ele>
        <time>2018-03-04T13:08:07Z</time>
      </trkpt>
      <trkpt lat="46.08706" lon="6.81611">
        <ele>1712</ele>
        <time>2018-03-04T13:08:18Z</time>
      </trkpt>
      <trkpt lat="46.08705" lon="6.81615">
        <ele>1713</ele>
        <time>2018-03-04T13:08:22Z</time>
      </trkpt>
      <trkpt lat="46.08705" lon="6.81617">
        <ele>1714</ele>
        <time>2018-03-04T13:08:24Z</time>
      </trkpt>
      <trkpt lat="46.08702" lon="6.81625">
        <ele>1717</ele>
        <time>2018-03-04T13:08:33Z</time>
      </trkpt>
      <trkpt lat="46.087" lon="6.81628">
        <ele>1718</ele>
        <time>2018-03-04T13:08:37Z</time>
      </trkpt>
      <trkpt lat="46.08696" lon="6.81638">
        <ele>1724</ele>
        <time>2018-03-04T13:08:51Z</time>
      </trkpt>
      <trkpt lat="46.08691" lon="6.8165">
        <ele>1731</ele>
        <time>2018-03-04T13:09:04Z</time>
      </trkpt>
      <trkpt lat="46.08688" lon="6.81656">
        <ele>1737</ele>
        <time>2018-03-04T13:09:12Z</time>
      </trkpt>
      <trkpt lat="46.08684" lon="6.81659">
        <ele>1743</ele>
        <time>2018-03-04T13:09:18Z</time>
      </trkpt>
      <trkpt lat="46.08683" lon="6.81659">
        <ele>1745</ele>
        <time>2018-03-04T13:09:19Z</time>
      </trkpt>
      <trkpt lat="46.08682" lon="6.8166">
        <ele>1746</ele>
        <time>2018-03-04T13:09:20Z</time>
      </trkpt>
      <trkpt lat="46.08681" lon="6.8166">
        <ele>1748</ele>
        <time>2018-03-04T13:09:21Z</time>
      </trkpt>
      <trkpt lat="46.0868" lon="6.8166">
        <ele>1750</ele>
        <time>2018-03-04T13:09:22Z</time>
      </trkpt>
      <trkpt lat="46.08665" lon="6.81675">
        <ele>1789</ele>
        <time>2018-03-04T13:09:43Z</time>
      </trkpt>
      <trkpt lat="46.08664" lon="6.81676">
        <ele>1790</ele>
        <time>2018-03-04T13:09:44Z</time>
      </trkpt>
      <trkpt lat="46.08663" lon="6.81678">
        <ele>1792</ele>
        <time>2018-03-04T13:09:46Z</time>
      </trkpt>
      <trkpt lat="46.08661" lon="6.8168">
        <ele>1794</ele>
        <time>2018-03-04T13:09:49Z</time>
      </trkpt>
      <trkpt lat="46.08659" lon="6.81689">
        <ele>1800</ele>
        <time>2018-03-04T13:10:01Z</time>
      </trkpt>
      <trkpt lat="46.08664" lon="6.81701">
        <ele>1805</ele>
        <time>2018-03-04T13:10:16Z</time>
      </trkpt>
      <trkpt lat="46.08667" lon="6.81704">
        <ele>1765</ele>
        <time>2018-03-04T13:10:21Z</time>
      </trkpt>
      <trkpt lat="46.08669" lon="6.81713">
        <ele>1767</ele>
        <time>2018-03-04T13:10:30Z</time>
      </trkpt>
      <trkpt lat="46.08669" lon="6.81715">
        <ele>1768</ele>
        <time>2018-03-04T13:10:32Z</time>
      </trkpt>
      <trkpt lat="46.08668" lon="6.81716">
        <ele>1769</ele>
        <time>2018-03-04T13:10:33Z</time>
      </trkpt>
      <trkpt lat="46.08667" lon="6.81716">
        <ele>1769</ele>
        <time>2018-03-04T13:10:34Z</time>
      </trkpt>
      <trkpt lat="46.0866" lon="6.81725">
        <ele>1812</ele>
        <time>2018-03-04T13:10:46Z</time>
      </trkpt>
      <trkpt lat="46.08659" lon="6.81727">
        <ele>1812</ele>
        <time>2018-03-04T13:10:48Z</time>
      </trkpt>
      <trkpt lat="46.08654" lon="6.81734">
        <ele>1814</ele>
        <time>2018-03-04T13:10:59Z</time>
      </trkpt>
      <trkpt lat="46.08652" lon="6.81735">
        <ele>1814</ele>
        <time>2018-03-04T13:11:01Z</time>
      </trkpt>
      <trkpt lat="46.08649" lon="6.81739">
        <ele>1815</ele>
        <time>2018-03-04T13:11:07Z</time>
      </trkpt>
      <trkpt lat="46.08646" lon="6.81745">
        <ele>1815</ele>
        <time>2018-03-04T13:11:14Z</time>
      </trkpt>
      <trkpt lat="46.0865" lon="6.81751">
        <ele>1829</ele>
        <time>2018-03-04T13:11:25Z</time>
      </trkpt>
      <trkpt lat="46.08658" lon="6.81758">
        <ele>1826</ele>
        <time>2018-03-04T13:11:39Z</time>
      </trkpt>
      <trkpt lat="46.08661" lon="6.81762">
        <ele>1827</ele>
        <time>2018-03-04T13:11:44Z</time>
      </trkpt>
      <trkpt lat="46.08661" lon="6.81769">
        <ele>1831</ele>
        <time>2018-03-04T13:11:50Z</time>
      </trkpt>
      <trkpt lat="46.08657" lon="6.81775">
        <ele>1834</ele>
        <time>2018-03-04T13:11:57Z</time>
      </trkpt>
      <trkpt lat="46.08653" lon="6.81777">
        <ele>1836</ele>
        <time>2018-03-04T13:12:03Z</time>
      </trkpt>
      <trkpt lat="46.08644" lon="6.81781">
        <ele>1838</ele>
        <time>2018-03-04T13:12:22Z</time>
      </trkpt>
      <trkpt lat="46.08643" lon="6.81781">
        <ele>1838</ele>
        <time>2018-03-04T13:12:24Z</time>
      </trkpt>
      <trkpt lat="46.08633" lon="6.81782">
        <ele>1840</ele>
        <time>2018-03-04T13:12:38Z</time>
      </trkpt>
      <trkpt lat="46.08635" lon="6.81789">
        <ele>1841</ele>
        <time>2018-03-04T13:12:51Z</time>
      </trkpt>
      <trkpt lat="46.08634" lon="6.81797">
        <ele>1843</ele>
        <time>2018-03-04T13:13:08Z</time>
      </trkpt>
      <trkpt lat="46.08632" lon="6.81801">
        <ele>1843</ele>
        <time>2018-03-04T13:13:19Z</time>
      </trkpt>
      <trkpt lat="46.08628" lon="6.81805">
        <ele>1844</ele>
        <time>2018-03-04T13:13:34Z</time>
      </trkpt>
      <trkpt lat="46.08626" lon="6.81813">
        <ele>1845</ele>
        <time>2018-03-04T13:13:49Z</time>
      </trkpt>
      <trkpt lat="46.08627" lon="6.81814">
        <ele>1846</ele>
        <time>2018-03-04T13:13:51Z</time>
      </trkpt>
      <trkpt lat="46.08628" lon="6.81815">
        <ele>1846</ele>
        <time>2018-03-04T13:13:52Z</time>
      </trkpt>
      <trkpt lat="46.08631" lon="6.8182">
        <ele>1846</ele>
        <time>2018-03-04T13:13:58Z</time>
      </trkpt>
      <trkpt lat="46.08632" lon="6.81821">
        <ele>1846</ele>
        <time>2018-03-04T13:14:00Z</time>
      </trkpt>
      <trkpt lat="46.08642" lon="6.81825">
        <ele>1846</ele>
        <time>2018-03-04T13:14:15Z</time>
      </trkpt>
      <trkpt lat="46.08643" lon="6.81826">
        <ele>1846</ele>
        <time>2018-03-04T13:14:17Z</time>
      </trkpt>
      <trkpt lat="46.08645" lon="6.81829">
        <ele>1846</ele>
        <time>2018-03-04T13:14:21Z</time>
      </trkpt>
      <trkpt lat="46.08646" lon="6.81835">
        <ele>1860</ele>
        <time>2018-03-04T13:14:27Z</time>
      </trkpt>
      <trkpt lat="46.08644" lon="6.81839">
        <ele>1861</ele>
        <time>2018-03-04T13:14:31Z</time>
      </trkpt>
      <trkpt lat="46.08641" lon="6.81846">
        <ele>1862</ele>
        <time>2018-03-04T13:14:40Z</time>
      </trkpt>
      <trkpt lat="46.08641" lon="6.81857">
        <ele>1864</ele>
        <time>2018-03-04T13:14:54Z</time>
      </trkpt>
      <trkpt lat="46.08646" lon="6.81859">
        <ele>1865</ele>
        <time>2018-03-04T13:15:01Z</time>
      </trkpt>
      <trkpt lat="46.08648" lon="6.81862">
        <ele>1865</ele>
        <time>2018-03-04T13:15:05Z</time>
      </trkpt>
      <trkpt lat="46.08647" lon="6.81867">
        <ele>1866</ele>
        <time>2018-03-04T13:15:11Z</time>
      </trkpt>
      <trkpt lat="46.08646" lon="6.8187">
        <ele>1867</ele>
        <time>2018-03-04T13:15:15Z</time>
      </trkpt>
      <trkpt lat="46.08644" lon="6.81874">
        <ele>1868</ele>
        <time>2018-03-04T13:15:19Z</time>
      </trkpt>
      <trkpt lat="46.08644" lon="6.81885">
        <ele>1871</ele>
        <time>2018-03-04T13:15:35Z</time>
      </trkpt>
      <trkpt lat="46.08648" lon="6.81886">
        <ele>1871</ele>
        <time>2018-03-04T13:15:39Z</time>
      </trkpt>
      <trkpt lat="46.08649" lon="6.81887">
        <ele>1872</ele>
        <time>2018-03-04T13:15:41Z</time>
      </trkpt>
      <trkpt lat="46.08652" lon="6.8189">
        <ele>1873</ele>
        <time>2018-03-04T13:15:47Z</time>
      </trkpt>
      <trkpt lat="46.08658" lon="6.81904">
        <ele>1879</ele>
        <time>2018-03-04T13:16:18Z</time>
      </trkpt>
      <trkpt lat="46.08659" lon="6.81905">
        <ele>1879</ele>
        <time>2018-03-04T13:16:29Z</time>
      </trkpt>
      <trkpt lat="46.08658" lon="6.81906">
        <ele>1880</ele>
        <time>2018-03-04T13:16:39Z</time>
      </trkpt>
      <trkpt lat="46.08663" lon="6.81919">
        <ele>1890</ele>
        <time>2018-03-04T13:16:48Z</time>
      </trkpt>
      <trkpt lat="46.08664" lon="6.81922">
        <ele>1890</ele>
        <time>2018-03-04T13:16:50Z</time>
      </trkpt>
      <trkpt lat="46.08667" lon="6.81925">
        <ele>1882</ele>
        <time>2018-03-04T13:16:53Z</time>
      </trkpt>
      <trkpt lat="46.0867" lon="6.81928">
        <ele>1880</ele>
        <time>2018-03-04T13:16:56Z</time>
      </trkpt>
      <trkpt lat="46.08671" lon="6.81928">
        <ele>1880</ele>
        <time>2018-03-04T13:16:57Z</time>
      </trkpt>
      <trkpt lat="46.08672" lon="6.81928">
        <ele>1879</ele>
        <time>2018-03-04T13:16:58Z</time>
      </trkpt>
      <trkpt lat="46.08673" lon="6.81928">
        <ele>1879</ele>
        <time>2018-03-04T13:16:59Z</time>
      </trkpt>
      <trkpt lat="46.08674" lon="6.81928">
        <ele>1879</ele>
        <time>2018-03-04T13:17:00Z</time>
      </trkpt>
      <trkpt lat="46.08683" lon="6.81924">
        <ele>1874</ele>
        <time>2018-03-04T13:17:12Z</time>
      </trkpt>
      <trkpt lat="46.08686" lon="6.81924">
        <ele>1873</ele>
        <time>2018-03-04T13:17:16Z</time>
      </trkpt>
      <trkpt lat="46.08689" lon="6.81925">
        <ele>1871</ele>
        <time>2018-03-04T13:17:19Z</time>
      </trkpt>
      <trkpt lat="46.0869" lon="6.81927">
        <ele>1870</ele>
        <time>2018-03-04T13:17:21Z</time>
      </trkpt>
      <trkpt lat="46.08691" lon="6.81928">
        <ele>1870</ele>
        <time>2018-03-04T13:17:23Z</time>
      </trkpt>
      <trkpt lat="46.08691" lon="6.8193">
        <ele>1869</ele>
        <time>2018-03-04T13:17:25Z</time>
      </trkpt>
      <trkpt lat="46.08692" lon="6.81932">
        <ele>1869</ele>
        <time>2018-03-04T13:17:26Z</time>
      </trkpt>
      <trkpt lat="46.08692" lon="6.81937">
        <ele>1868</ele>
        <time>2018-03-04T13:17:30Z</time>
      </trkpt>
      <trkpt lat="46.08693" lon="6.81938">
        <ele>1868</ele>
        <time>2018-03-04T13:17:31Z</time>
      </trkpt>
      <trkpt lat="46.08694" lon="6.81945">
        <ele>1868</ele>
        <time>2018-03-04T13:17:37Z</time>
      </trkpt>
      <trkpt lat="46.08695" lon="6.81951">
        <ele>1868</ele>
        <time>2018-03-04T13:17:43Z</time>
      </trkpt>
      <trkpt lat="46.08702" lon="6.81957">
        <ele>1867</ele>
        <time>2018-03-04T13:17:56Z</time>
      </trkpt>
      <trkpt lat="46.08711" lon="6.81961">
        <ele>1863</ele>
        <time>2018-03-04T13:18:13Z</time>
      </trkpt>
      <trkpt lat="46.08711" lon="6.81967">
        <ele>1865</ele>
        <time>2018-03-04T13:18:19Z</time>
      </trkpt>
      <trkpt lat="46.08711" lon="6.81974">
        <ele>1866</ele>
        <time>2018-03-04T13:18:25Z</time>
      </trkpt>
      <trkpt lat="46.08713" lon="6.81988">
        <ele>1867</ele>
        <time>2018-03-04T13:18:40Z</time>
      </trkpt>
      <trkpt lat="46.08714" lon="6.8199">
        <ele>1866</ele>
        <time>2018-03-04T13:18:42Z</time>
      </trkpt>
      <trkpt lat="46.08715" lon="6.81993">
        <ele>1866</ele>
        <time>2018-03-04T13:18:44Z</time>
      </trkpt>
      <trkpt lat="46.08715" lon="6.81994">
        <ele>1866</ele>
        <time>2018-03-04T13:18:46Z</time>
      </trkpt>
      <trkpt lat="46.08713" lon="6.82009">
        <ele>1887</ele>
        <time>2018-03-04T13:19:02Z</time>
      </trkpt>
      <trkpt lat="46.08713" lon="6.8201">
        <ele>1888</ele>
        <time>2018-03-04T13:19:03Z</time>
      </trkpt>
      <trkpt lat="46.08712" lon="6.82014">
        <ele>1889</ele>
        <time>2018-03-04T13:19:07Z</time>
      </trkpt>
      <trkpt lat="46.08711" lon="6.82021">
        <ele>1890</ele>
        <time>2018-03-04T13:19:15Z</time>
      </trkpt>
      <trkpt lat="46.08713" lon="6.82026">
        <ele>1890</ele>
        <time>2018-03-04T13:19:23Z</time>
      </trkpt>
      <trkpt lat="46.08716" lon="6.82026">
        <ele>1889</ele>
        <time>2018-03-04T13:19:27Z</time>
      </trkpt>
      <trkpt lat="46.08723" lon="6.82037">
        <ele>1889</ele>
        <time>2018-03-04T13:19:41Z</time>
      </trkpt>
      <trkpt lat="46.08727" lon="6.82043">
        <ele>1888</ele>
        <time>2018-03-04T13:19:48Z</time>
      </trkpt>
      <trkpt lat="46.0873" lon="6.82046">
        <ele>1888</ele>
        <time>2018-03-04T13:19:52Z</time>
      </trkpt>
      <trkpt lat="46.0873" lon="6.82047">
        <ele>1888</ele>
        <time>2018-03-04T13:19:53Z</time>
      </trkpt>
      <trkpt lat="46.08731" lon="6.82048">
        <ele>1888</ele>
        <time>2018-03-04T13:19:54Z</time>
      </trkpt>
      <trkpt lat="46.08738" lon="6.82064">
        <ele>1888</ele>
        <time>2018-03-04T13:20:07Z</time>
      </trkpt>
      <trkpt lat="46.08742" lon="6.82065">
        <ele>1887</ele>
        <time>2018-03-04T13:20:12Z</time>
      </trkpt>
      <trkpt lat="46.08747" lon="6.82064">
        <ele>1886</ele>
        <time>2018-03-04T13:20:18Z</time>
      </trkpt>
      <trkpt lat="46.08748" lon="6.82064">
        <ele>1886</ele>
        <time>2018-03-04T13:20:19Z</time>
      </trkpt>
      <trkpt lat="46.08758" lon="6.82062">
        <ele>1845</ele>
        <time>2018-03-04T13:20:30Z</time>
      </trkpt>
      <trkpt lat="46.08759" lon="6.82062">
        <ele>1845</ele>
        <time>2018-03-04T13:20:32Z</time>
      </trkpt>
      <trkpt lat="46.08763" lon="6.82062">
        <ele>1843</ele>
        <time>2018-03-04T13:20:37Z</time>
      </trkpt>
      <trkpt lat="46.08765" lon="6.82063">
        <ele>1842</ele>
        <time>2018-03-04T13:20:39Z</time>
      </trkpt>
      <trkpt lat="46.08772" lon="6.82068">
        <ele>1839</ele>
        <time>2018-03-04T13:20:50Z</time>
      </trkpt>
      <trkpt lat="46.08775" lon="6.82072">
        <ele>1838</ele>
        <time>2018-03-04T13:20:55Z</time>
      </trkpt>
      <trkpt lat="46.08777" lon="6.82073">
        <ele>1837</ele>
        <time>2018-03-04T13:20:57Z</time>
      </trkpt>
      <trkpt lat="46.08777" lon="6.82075">
        <ele>1837</ele>
        <time>2018-03-04T13:20:59Z</time>
      </trkpt>
      <trkpt lat="46.08778" lon="6.82077">
        <ele>1837</ele>
        <time>2018-03-04T13:21:01Z</time>
      </trkpt>
      <trkpt lat="46.0878" lon="6.82091">
        <ele>1860</ele>
        <time>2018-03-04T13:21:17Z</time>
      </trkpt>
      <trkpt lat="46.08781" lon="6.82097">
        <ele>1860</ele>
        <time>2018-03-04T13:21:22Z</time>
      </trkpt>
      <trkpt lat="46.0878" lon="6.82099">
        <ele>1861</ele>
        <time>2018-03-04T13:21:25Z</time>
      </trkpt>
      <trkpt lat="46.08779" lon="6.82101">
        <ele>1861</ele>
        <time>2018-03-04T13:21:27Z</time>
      </trkpt>
      <trkpt lat="46.08779" lon="6.82105">
        <ele>1862</ele>
        <time>2018-03-04T13:21:31Z</time>
      </trkpt>
      <trkpt lat="46.08776" lon="6.82117">
        <ele>1866</ele>
        <time>2018-03-04T13:21:47Z</time>
      </trkpt>
      <trkpt lat="46.08772" lon="6.8213">
        <ele>1873</ele>
        <time>2018-03-04T13:22:03Z</time>
      </trkpt>
      <trkpt lat="46.08767" lon="6.82145">
        <ele>1886</ele>
        <time>2018-03-04T13:22:20Z</time>
      </trkpt>
      <trkpt lat="46.08762" lon="6.82158">
        <ele>1905</ele>
        <time>2018-03-04T13:22:36Z</time>
      </trkpt>
      <trkpt lat="46.08757" lon="6.8217">
        <ele>1925</ele>
        <time>2018-03-04T13:22:51Z</time>
      </trkpt>
      <trkpt lat="46.08753" lon="6.82182">
        <ele>1916</ele>
        <time>2018-03-04T13:23:05Z</time>
      </trkpt>
      <trkpt lat="46.08753" lon="6.82195">
        <ele>1906</ele>
        <time>2018-03-04T13:23:21Z</time>
      </trkpt>
      <trkpt lat="46.08756" lon="6.82197">
        <ele>1904</ele>
        <time>2018-03-04T13:23:27Z</time>
      </trkpt>
      <trkpt lat="46.08763" lon="6.82198">
        <ele>1900</ele>
        <time>2018-03-04T13:23:37Z</time>
      </trkpt>
      <trkpt lat="46.08766" lon="6.822">
        <ele>1899</ele>
        <time>2018-03-04T13:23:41Z</time>
      </trkpt>
      <trkpt lat="46.08768" lon="6.82201">
        <ele>1898</ele>
        <time>2018-03-04T13:23:43Z</time>
      </trkpt>
      <trkpt lat="46.08769" lon="6.82201">
        <ele>1897</ele>
        <time>2018-03-04T13:23:45Z</time>
      </trkpt>
      <trkpt lat="46.0878" lon="6.82202">
        <ele>1890</ele>
        <time>2018-03-04T13:24:01Z</time>
      </trkpt>
      <trkpt lat="46.08781" lon="6.82202">
        <ele>1890</ele>
        <time>2018-03-04T13:24:03Z</time>
      </trkpt>
      <trkpt lat="46.08783" lon="6.82202">
        <ele>1889</ele>
        <time>2018-03-04T13:24:05Z</time>
      </trkpt>
      <trkpt lat="46.08786" lon="6.82203">
        <ele>1886</ele>
        <time>2018-03-04T13:24:11Z</time>
      </trkpt>
      <trkpt lat="46.0878" lon="6.82217">
        <ele>1890</ele>
        <time>2018-03-04T13:24:29Z</time>
      </trkpt>
      <trkpt lat="46.08779" lon="6.82221">
        <ele>1891</ele>
        <time>2018-03-04T13:24:33Z</time>
      </trkpt>
      <trkpt lat="46.08777" lon="6.82224">
        <ele>1892</ele>
        <time>2018-03-04T13:24:39Z</time>
      </trkpt>
      <trkpt lat="46.0878" lon="6.82229">
        <ele>1891</ele>
        <time>2018-03-04T13:24:56Z</time>
      </trkpt>
      <trkpt lat="46.0879" lon="6.82228">
        <ele>1884</ele>
        <time>2018-03-04T13:25:11Z</time>
      </trkpt>
      <trkpt lat="46.08793" lon="6.82228">
        <ele>1882</ele>
        <time>2018-03-04T13:25:14Z</time>
      </trkpt>
      <trkpt lat="46.08799" lon="6.82229">
        <ele>1878</ele>
        <time>2018-03-04T13:25:22Z</time>
      </trkpt>
      <trkpt lat="46.08802" lon="6.82229">
        <ele>1876</ele>
        <time>2018-03-04T13:25:26Z</time>
      </trkpt>
      <trkpt lat="46.088" lon="6.82238">
        <ele>1876</ele>
        <time>2018-03-04T13:25:41Z</time>
      </trkpt>
      <trkpt lat="46.08798" lon="6.82243">
        <ele>1878</ele>
        <time>2018-03-04T13:25:47Z</time>
      </trkpt>
      <trkpt lat="46.08795" lon="6.82248">
        <ele>1880</ele>
        <time>2018-03-04T13:25:53Z</time>
      </trkpt>
      <trkpt lat="46.08789" lon="6.82264">
        <ele>1879</ele>
        <time>2018-03-04T13:26:11Z</time>
      </trkpt>
      <trkpt lat="46.08793" lon="6.82263">
        <ele>1877</ele>
        <time>2018-03-04T13:26:22Z</time>
      </trkpt>
      <trkpt lat="46.08804" lon="6.82262">
        <ele>1870</ele>
        <time>2018-03-04T13:26:39Z</time>
      </trkpt>
      <trkpt lat="46.08813" lon="6.82264">
        <ele>1864</ele>
        <time>2018-03-04T13:26:57Z</time>
      </trkpt>
      <trkpt lat="46.08809" lon="6.82275">
        <ele>1868</ele>
        <time>2018-03-04T13:27:13Z</time>
      </trkpt>
      <trkpt lat="46.08805" lon="6.82289">
        <ele>1871</ele>
        <time>2018-03-04T13:27:29Z</time>
      </trkpt>
      <trkpt lat="46.08803" lon="6.82301">
        <ele>1871</ele>
        <time>2018-03-04T13:27:44Z</time>
      </trkpt>
      <trkpt lat="46.08803" lon="6.82303">
        <ele>1871</ele>
        <time>2018-03-04T13:27:46Z</time>
      </trkpt>
      <trkpt lat="46.08807" lon="6.82308">
        <ele>1870</ele>
        <time>2018-03-04T13:28:02Z</time>
      </trkpt>
      <trkpt lat="46.0881" lon="6.82307">
        <ele>1869</ele>
        <time>2018-03-04T13:28:06Z</time>
      </trkpt>
      <trkpt lat="46.08819" lon="6.82308">
        <ele>1866</ele>
        <time>2018-03-04T13:28:20Z</time>
      </trkpt>
      <trkpt lat="46.08826" lon="6.82309">
        <ele>1864</ele>
        <time>2018-03-04T13:28:31Z</time>
      </trkpt>
      <trkpt lat="46.08836" lon="6.82312">
        <ele>1846</ele>
        <time>2018-03-04T13:28:46Z</time>
      </trkpt>
      <trkpt lat="46.08839" lon="6.8232">
        <ele>1847</ele>
        <time>2018-03-04T13:29:02Z</time>
      </trkpt>
      <trkpt lat="46.08836" lon="6.82334">
        <ele>1849</ele>
        <time>2018-03-04T13:29:18Z</time>
      </trkpt>
      <trkpt lat="46.08836" lon="6.82338">
        <ele>1848</ele>
        <time>2018-03-04T13:29:22Z</time>
      </trkpt>
      <trkpt lat="46.08836" lon="6.8235">
        <ele>1841</ele>
        <time>2018-03-04T13:29:36Z</time>
      </trkpt>
      <trkpt lat="46.08836" lon="6.82356">
        <ele>1839</ele>
        <time>2018-03-04T13:29:42Z</time>
      </trkpt>
      <trkpt lat="46.08838" lon="6.82366">
        <ele>1835</ele>
        <time>2018-03-04T13:29:54Z</time>
      </trkpt>
      <trkpt lat="46.08838" lon="6.82368">
        <ele>1835</ele>
        <time>2018-03-04T13:29:56Z</time>
      </trkpt>
      <trkpt lat="46.08839" lon="6.82376">
        <ele>1832</ele>
        <time>2018-03-04T13:30:04Z</time>
      </trkpt>
      <trkpt lat="46.08839" lon="6.82378">
        <ele>1831</ele>
        <time>2018-03-04T13:30:06Z</time>
      </trkpt>
      <trkpt lat="46.08839" lon="6.8238">
        <ele>1831</ele>
        <time>2018-03-04T13:30:08Z</time>
      </trkpt>
      <trkpt lat="46.0884" lon="6.82383">
        <ele>1830</ele>
        <time>2018-03-04T13:30:10Z</time>
      </trkpt>
      <trkpt lat="46.0884" lon="6.82384">
        <ele>1830</ele>
        <time>2018-03-04T13:30:12Z</time>
      </trkpt>
      <trkpt lat="46.08841" lon="6.82386">
        <ele>1829</ele>
        <time>2018-03-04T13:30:14Z</time>
      </trkpt>
      <trkpt lat="46.08842" lon="6.824">
        <ele>1824</ele>
        <time>2018-03-04T13:30:27Z</time>
      </trkpt>
      <trkpt lat="46.08842" lon="6.82402">
        <ele>1823</ele>
        <time>2018-03-04T13:30:29Z</time>
      </trkpt>
      <trkpt lat="46.08843" lon="6.82419">
        <ele>1811</ele>
        <time>2018-03-04T13:30:44Z</time>
      </trkpt>
      <trkpt lat="46.08843" lon="6.82425">
        <ele>1811</ele>
        <time>2018-03-04T13:30:49Z</time>
      </trkpt>
      <trkpt lat="46.08837" lon="6.82452">
        <ele>1806</ele>
        <time>2018-03-04T13:31:09Z</time>
      </trkpt>
      <trkpt lat="46.08836" lon="6.82455">
        <ele>1806</ele>
        <time>2018-03-04T13:31:11Z</time>
      </trkpt>
      <trkpt lat="46.08836" lon="6.82456">
        <ele>1806</ele>
        <time>2018-03-04T13:31:12Z</time>
      </trkpt>
      <trkpt lat="46.08836" lon="6.82458">
        <ele>1805</ele>
        <time>2018-03-04T13:31:13Z</time>
      </trkpt>
      <trkpt lat="46.08835" lon="6.82459">
        <ele>1805</ele>
        <time>2018-03-04T13:31:14Z</time>
      </trkpt>
      <trkpt lat="46.08835" lon="6.82461">
        <ele>1805</ele>
        <time>2018-03-04T13:31:15Z</time>
      </trkpt>
      <trkpt lat="46.08835" lon="6.82462">
        <ele>1804</ele>
        <time>2018-03-04T13:31:16Z</time>
      </trkpt>
      <trkpt lat="46.08835" lon="6.82463">
        <ele>1804</ele>
        <time>2018-03-04T13:31:17Z</time>
      </trkpt>
      <trkpt lat="46.08835" lon="6.82466">
        <ele>1803</ele>
        <time>2018-03-04T13:31:20Z</time>
      </trkpt>
      <trkpt lat="46.08833" lon="6.82475">
        <ele>1793</ele>
        <time>2018-03-04T13:31:33Z</time>
      </trkpt>
      <trkpt lat="46.08833" lon="6.82476">
        <ele>1801</ele>
        <time>2018-03-04T13:31:46Z</time>
      </trkpt>
      <trkpt lat="46.08832" lon="6.82475">
        <ele>1793</ele>
        <time>2018-03-04T13:31:52Z</time>
      </trkpt>
      <trkpt lat="46.08832" lon="6.82475">
        <ele>1793</ele>
        <time>2018-03-04T13:32:08Z</time>
      </trkpt>
      <trkpt lat="46.08833" lon="6.82474">
        <ele>1793</ele>
        <time>2018-03-04T13:32:12Z</time>
      </trkpt>
      <trkpt lat="46.08833" lon="6.82474">
        <ele>1793</ele>
        <time>2018-03-04T13:32:16Z</time>
      </trkpt>
      <trkpt lat="46.08832" lon="6.82473">
        <ele>1793</ele>
        <time>2018-03-04T13:32:23Z</time>
      </trkpt>
      <trkpt lat="46.08833" lon="6.82473">
        <ele>1793</ele>
        <time>2018-03-04T13:32:25Z</time>
      </trkpt>
      <trkpt lat="46.08833" lon="6.82473">
        <ele>1793</ele>
        <time>2018-03-04T13:32:27Z</time>
      </trkpt>
      <trkpt lat="46.08833" lon="6.82473">
        <ele>1793</ele>
        <time>2018-03-04T13:32:34Z</time>
      </trkpt>
      <trkpt lat="46.08833" lon="6.82474">
        <ele>1793</ele>
        <time>2018-03-04T13:32:56Z</time>
      </trkpt>
      <trkpt lat="46.08833" lon="6.82475">
        <ele>1793</ele>
        <time>2018-03-04T13:33:40Z</time>
      </trkpt>
      <trkpt lat="46.08832" lon="6.82473">
        <ele>1793</ele>
        <time>2018-03-04T13:33:55Z</time>
      </trkpt>
      <trkpt lat="46.08832" lon="6.82473">
        <ele>1793</ele>
        <time>2018-03-04T13:33:58Z</time>
      </trkpt>
      <trkpt lat="46.08832" lon="6.82473">
        <ele>1793</ele>
        <time>2018-03-04T13:33:59Z</time>
      </trkpt>
      <trkpt lat="46.08832" lon="6.82473">
        <ele>1793</ele>
        <time>2018-03-04T13:34:01Z</time>
      </trkpt>
      <trkpt lat="46.08833" lon="6.82474">
        <ele>1793</ele>
        <time>2018-03-04T13:34:08Z</time>
      </trkpt>
      <trkpt lat="46.08833" lon="6.82474">
        <ele>1793</ele>
        <time>2018-03-04T13:34:11Z</time>
      </trkpt>
      <trkpt lat="46.08832" lon="6.82473">
        <ele>1793</ele>
        <time>2018-03-04T13:34:30Z</time>
      </trkpt>
      <trkpt lat="46.08832" lon="6.82472">
        <ele>1793</ele>
        <time>2018-03-04T13:34:43Z</time>
      </trkpt>
      <trkpt lat="46.08832" lon="6.82472">
        <ele>1793</ele>
        <time>2018-03-04T13:34:48Z</time>
      </trkpt>
      <trkpt lat="46.08833" lon="6.82472">
        <ele>1793</ele>
        <time>2018-03-04T13:34:52Z</time>
      </trkpt>
      <trkpt lat="46.08832" lon="6.82473">
        <ele>1793</ele>
        <time>2018-03-04T13:34:56Z</time>
      </trkpt>
      <trkpt lat="46.08832" lon="6.82473">
        <ele>1793</ele>
        <time>2018-03-04T13:34:58Z</time>
      </trkpt>
      <trkpt lat="46.08832" lon="6.82473">
        <ele>1793</ele>
        <time>2018-03-04T13:35:02Z</time>
      </trkpt>
      <trkpt lat="46.08832" lon="6.82474">
        <ele>1793</ele>
        <time>2018-03-04T13:35:10Z</time>
      </trkpt>
      <trkpt lat="46.08833" lon="6.82473">
        <ele>1793</ele>
        <time>2018-03-04T13:35:18Z</time>
      </trkpt>
      <trkpt lat="46.08833" lon="6.82474">
        <ele>1793</ele>
        <time>2018-03-04T13:35:21Z</time>
      </trkpt>
      <trkpt lat="46.08835" lon="6.82474">
        <ele>1801</ele>
        <time>2018-03-04T13:35:40Z</time>
      </trkpt>
      <trkpt lat="46.08835" lon="6.82475">
        <ele>1801</ele>
        <time>2018-03-04T13:35:45Z</time>
      </trkpt>
      <trkpt lat="46.08835" lon="6.82475">
        <ele>1801</ele>
        <time>2018-03-04T13:35:48Z</time>
      </trkpt>
      <trkpt lat="46.08834" lon="6.82475">
        <ele>1801</ele>
        <time>2018-03-04T13:35:50Z</time>
      </trkpt>
      <trkpt lat="46.08834" lon="6.82475">
        <ele>1801</ele>
        <time>2018-03-04T13:35:53Z</time>
      </trkpt>
      <trkpt lat="46.08834" lon="6.82474">
        <ele>1801</ele>
        <time>2018-03-04T13:35:56Z</time>
      </trkpt>
      <trkpt lat="46.08833" lon="6.82474">
        <ele>1793</ele>
        <time>2018-03-04T13:35:59Z</time>
      </trkpt>
      <trkpt lat="46.08833" lon="6.82474">
        <ele>1793</ele>
        <time>2018-03-04T13:36:04Z</time>
      </trkpt>
      <trkpt lat="46.08834" lon="6.82475">
        <ele>1801</ele>
        <time>2018-03-04T13:36:31Z</time>
      </trkpt>
      <trkpt lat="46.08834" lon="6.82475">
        <ele>1801</ele>
        <time>2018-03-04T13:36:38Z</time>
      </trkpt>
      <trkpt lat="46.08834" lon="6.82475">
        <ele>1801</ele>
        <time>2018-03-04T13:36:39Z</time>
      </trkpt>
      <trkpt lat="46.08834" lon="6.82476">
        <ele>1801</ele>
        <time>2018-03-04T13:36:41Z</time>
      </trkpt>
      <trkpt lat="46.08834" lon="6.82476">
        <ele>1801</ele>
        <time>2018-03-04T13:36:43Z</time>
      </trkpt>
      <trkpt lat="46.08834" lon="6.82475">
        <ele>1801</ele>
        <time>2018-03-04T13:36:52Z</time>
      </trkpt>
      <trkpt lat="46.08834" lon="6.82474">
        <ele>1801</ele>
        <time>2018-03-04T13:36:58Z</time>
      </trkpt>
      <trkpt lat="46.08834" lon="6.82474">
        <ele>1801</ele>
        <time>2018-03-04T13:36:59Z</time>
      </trkpt>
      <trkpt lat="46.08834" lon="6.82474">
        <ele>1801</ele>
        <time>2018-03-04T13:37:00Z</time>
      </trkpt>
      <trkpt lat="46.08835" lon="6.82475">
        <ele>1801</ele>
        <time>2018-03-04T13:37:20Z</time>
      </trkpt>
      <trkpt lat="46.08834" lon="6.82474">
        <ele>1801</ele>
        <time>2018-03-04T13:37:34Z</time>
      </trkpt>
      <trkpt lat="46.08834" lon="6.82474">
        <ele>1801</ele>
        <time>2018-03-04T13:37:44Z</time>
      </trkpt>
      <trkpt lat="46.08833" lon="6.82474">
        <ele>1793</ele>
        <time>2018-03-04T13:37:51Z</time>
      </trkpt>
      <trkpt lat="46.08833" lon="6.82475">
        <ele>1793</ele>
        <time>2018-03-04T13:38:01Z</time>
      </trkpt>
      <trkpt lat="46.08833" lon="6.82474">
        <ele>1793</ele>
        <time>2018-03-04T13:38:03Z</time>
      </trkpt>
      <trkpt lat="46.08833" lon="6.82474">
        <ele>1793</ele>
        <time>2018-03-04T13:38:05Z</time>
      </trkpt>
      <trkpt lat="46.08833" lon="6.82474">
        <ele>1793</ele>
        <time>2018-03-04T13:38:07Z</time>
      </trkpt>
      <trkpt lat="46.08833" lon="6.82474">
        <ele>1793</ele>
        <time>2018-03-04T13:38:10Z</time>
      </trkpt>
      <trkpt lat="46.08833" lon="6.82474">
        <ele>1793</ele>
        <time>2018-03-04T13:38:12Z</time>
      </trkpt>
      <trkpt lat="46.08833" lon="6.82474">
        <ele>1793</ele>
        <time>2018-03-04T13:38:26Z</time>
      </trkpt>
      <trkpt lat="46.08833" lon="6.82474">
        <ele>1793</ele>
        <time>2018-03-04T13:38:28Z</time>
      </trkpt>
      <trkpt lat="46.08833" lon="6.82474">
        <ele>1793</ele>
        <time>2018-03-04T13:38:29Z</time>
      </trkpt>
      <trkpt lat="46.08833" lon="6.82474">
        <ele>1793</ele>
        <time>2018-03-04T13:38:30Z</time>
      </trkpt>
      <trkpt lat="46.08833" lon="6.82474">
        <ele>1793</ele>
        <time>2018-03-04T13:38:31Z</time>
      </trkpt>
      <trkpt lat="46.08833" lon="6.82474">
        <ele>1793</ele>
        <time>2018-03-04T13:38:39Z</time>
      </trkpt>
      <trkpt lat="46.08833" lon="6.82473">
        <ele>1793</ele>
        <time>2018-03-04T13:38:50Z</time>
      </trkpt>
      <trkpt lat="46.08834" lon="6.82467">
        <ele>1803</ele>
        <time>2018-03-04T13:39:00Z</time>
      </trkpt>
      <trkpt lat="46.08835" lon="6.82454">
        <ele>1806</ele>
        <time>2018-03-04T13:39:04Z</time>
      </trkpt>
      <trkpt lat="46.08836" lon="6.82437">
        <ele>1809</ele>
        <time>2018-03-04T13:39:08Z</time>
      </trkpt>
      <trkpt lat="46.08838" lon="6.82414">
        <ele>1817</ele>
        <time>2018-03-04T13:39:12Z</time>
      </trkpt>
      <trkpt lat="46.08841" lon="6.82383">
        <ele>1830</ele>
        <time>2018-03-04T13:39:16Z</time>
      </trkpt>
      <trkpt lat="46.0884" lon="6.82376">
        <ele>1832</ele>
        <time>2018-03-04T13:39:17Z</time>
      </trkpt>
      <trkpt lat="46.08838" lon="6.82368">
        <ele>1835</ele>
        <time>2018-03-04T13:39:18Z</time>
      </trkpt>
      <trkpt lat="46.08837" lon="6.82361">
        <ele>1837</ele>
        <time>2018-03-04T13:39:19Z</time>
      </trkpt>
      <trkpt lat="46.08837" lon="6.82354">
        <ele>1840</ele>
        <time>2018-03-04T13:39:20Z</time>
      </trkpt>
      <trkpt lat="46.08835" lon="6.82349">
        <ele>1842</ele>
        <time>2018-03-04T13:39:21Z</time>
      </trkpt>
      <trkpt lat="46.08833" lon="6.82343">
        <ele>1847</ele>
        <time>2018-03-04T13:39:22Z</time>
      </trkpt>
      <trkpt lat="46.08833" lon="6.82336">
        <ele>1850</ele>
        <time>2018-03-04T13:39:23Z</time>
      </trkpt>
      <trkpt lat="46.08832" lon="6.8233">
        <ele>1854</ele>
        <time>2018-03-04T13:39:24Z</time>
      </trkpt>
      <trkpt lat="46.0883" lon="6.82324">
        <ele>1858</ele>
        <time>2018-03-04T13:39:25Z</time>
      </trkpt>
      <trkpt lat="46.08828" lon="6.82318">
        <ele>1861</ele>
        <time>2018-03-04T13:39:26Z</time>
      </trkpt>
      <trkpt lat="46.08828" lon="6.82311">
        <ele>1863</ele>
        <time>2018-03-04T13:39:27Z</time>
      </trkpt>
      <trkpt lat="46.08826" lon="6.82306">
        <ele>1865</ele>
        <time>2018-03-04T13:39:28Z</time>
      </trkpt>
      <trkpt lat="46.08817" lon="6.82296">
        <ele>1867</ele>
        <time>2018-03-04T13:39:30Z</time>
      </trkpt>
      <trkpt lat="46.08812" lon="6.82284">
        <ele>1869</ele>
        <time>2018-03-04T13:39:32Z</time>
      </trkpt>
      <trkpt lat="46.08811" lon="6.82276">
        <ele>1868</ele>
        <time>2018-03-04T13:39:33Z</time>
      </trkpt>
      <trkpt lat="46.08809" lon="6.82269">
        <ele>1867</ele>
        <time>2018-03-04T13:39:34Z</time>
      </trkpt>
      <trkpt lat="46.08806" lon="6.82263">
        <ele>1869</ele>
        <time>2018-03-04T13:39:35Z</time>
      </trkpt>
      <trkpt lat="46.08804" lon="6.82256">
        <ele>1870</ele>
        <time>2018-03-04T13:39:36Z</time>
      </trkpt>
      <trkpt lat="46.08802" lon="6.82248">
        <ele>1874</ele>
        <time>2018-03-04T13:39:37Z</time>
      </trkpt>
      <trkpt lat="46.08798" lon="6.82242">
        <ele>1878</ele>
        <time>2018-03-04T13:39:38Z</time>
      </trkpt>
      <trkpt lat="46.08794" lon="6.82236">
        <ele>1881</ele>
        <time>2018-03-04T13:39:39Z</time>
      </trkpt>
      <trkpt lat="46.08794" lon="6.82228">
        <ele>1881</ele>
        <time>2018-03-04T13:39:40Z</time>
      </trkpt>
      <trkpt lat="46.08792" lon="6.8222">
        <ele>1882</ele>
        <time>2018-03-04T13:39:41Z</time>
      </trkpt>
      <trkpt lat="46.08787" lon="6.82214">
        <ele>1885</ele>
        <time>2018-03-04T13:39:42Z</time>
      </trkpt>
      <trkpt lat="46.08783" lon="6.82206">
        <ele>1888</ele>
        <time>2018-03-04T13:39:43Z</time>
      </trkpt>
      <trkpt lat="46.08781" lon="6.82196">
        <ele>1890</ele>
        <time>2018-03-04T13:39:44Z</time>
      </trkpt>
      <trkpt lat="46.08778" lon="6.82187">
        <ele>1895</ele>
        <time>2018-03-04T13:39:45Z</time>
      </trkpt>
      <trkpt lat="46.08775" lon="6.82177">
        <ele>1900</ele>
        <time>2018-03-04T13:39:46Z</time>
      </trkpt>
      <trkpt lat="46.08775" lon="6.82166">
        <ele>1889</ele>
        <time>2018-03-04T13:39:47Z</time>
      </trkpt>
      <trkpt lat="46.08773" lon="6.82156">
        <ele>1888</ele>
        <time>2018-03-04T13:39:48Z</time>
      </trkpt>
      <trkpt lat="46.08771" lon="6.82145">
        <ele>1883</ele>
        <time>2018-03-04T13:39:49Z</time>
      </trkpt>
      <trkpt lat="46.08772" lon="6.82135">
        <ele>1876</ele>
        <time>2018-03-04T13:39:50Z</time>
      </trkpt>
      <trkpt lat="46.08772" lon="6.82126">
        <ele>1871</ele>
        <time>2018-03-04T13:39:51Z</time>
      </trkpt>
      <trkpt lat="46.08772" lon="6.82118">
        <ele>1868</ele>
        <time>2018-03-04T13:39:52Z</time>
      </trkpt>
      <trkpt lat="46.08771" lon="6.8211">
        <ele>1867</ele>
        <time>2018-03-04T13:39:53Z</time>
      </trkpt>
      <trkpt lat="46.0877" lon="6.82102">
        <ele>1866</ele>
        <time>2018-03-04T13:39:54Z</time>
      </trkpt>
      <trkpt lat="46.08769" lon="6.82096">
        <ele>1867</ele>
        <time>2018-03-04T13:39:55Z</time>
      </trkpt>
      <trkpt lat="46.08766" lon="6.82093">
        <ele>1868</ele>
        <time>2018-03-04T13:39:56Z</time>
      </trkpt>
      <trkpt lat="46.08764" lon="6.82093">
        <ele>1870</ele>
        <time>2018-03-04T13:39:57Z</time>
      </trkpt>
      <trkpt lat="46.08763" lon="6.82093">
        <ele>1870</ele>
        <time>2018-03-04T13:39:58Z</time>
      </trkpt>
      <trkpt lat="46.08763" lon="6.82092">
        <ele>1871</ele>
        <time>2018-03-04T13:39:59Z</time>
      </trkpt>
      <trkpt lat="46.08762" lon="6.8209">
        <ele>1871</ele>
        <time>2018-03-04T13:40:01Z</time>
      </trkpt>
      <trkpt lat="46.08761" lon="6.82086">
        <ele>1872</ele>
        <time>2018-03-04T13:40:02Z</time>
      </trkpt>
      <trkpt lat="46.08761" lon="6.82082">
        <ele>1858</ele>
        <time>2018-03-04T13:40:03Z</time>
      </trkpt>
      <trkpt lat="46.08761" lon="6.82076">
        <ele>1855</ele>
        <time>2018-03-04T13:40:04Z</time>
      </trkpt>
      <trkpt lat="46.08759" lon="6.8207">
        <ele>1851</ele>
        <time>2018-03-04T13:40:05Z</time>
      </trkpt>
      <trkpt lat="46.08755" lon="6.82056">
        <ele>1842</ele>
        <time>2018-03-04T13:40:07Z</time>
      </trkpt>
      <trkpt lat="46.08751" lon="6.82047">
        <ele>1838</ele>
        <time>2018-03-04T13:40:08Z</time>
      </trkpt>
      <trkpt lat="46.08747" lon="6.82041">
        <ele>1883</ele>
        <time>2018-03-04T13:40:09Z</time>
      </trkpt>
      <trkpt lat="46.08737" lon="6.8203">
        <ele>1882</ele>
        <time>2018-03-04T13:40:11Z</time>
      </trkpt>
      <trkpt lat="46.08728" lon="6.82023">
        <ele>1882</ele>
        <time>2018-03-04T13:40:13Z</time>
      </trkpt>
      <trkpt lat="46.08719" lon="6.82003">
        <ele>1883</ele>
        <time>2018-03-04T13:40:19Z</time>
      </trkpt>
      <trkpt lat="46.08718" lon="6.81997">
        <ele>1865</ele>
        <time>2018-03-04T13:40:20Z</time>
      </trkpt>
      <trkpt lat="46.08717" lon="6.81989">
        <ele>1865</ele>
        <time>2018-03-04T13:40:21Z</time>
      </trkpt>
      <trkpt lat="46.08715" lon="6.81977">
        <ele>1864</ele>
        <time>2018-03-04T13:40:23Z</time>
      </trkpt>
      <trkpt lat="46.08713" lon="6.81971">
        <ele>1864</ele>
        <time>2018-03-04T13:40:24Z</time>
      </trkpt>
      <trkpt lat="46.0871" lon="6.81965">
        <ele>1865</ele>
        <time>2018-03-04T13:40:25Z</time>
      </trkpt>
      <trkpt lat="46.08705" lon="6.8196">
        <ele>1866</ele>
        <time>2018-03-04T13:40:26Z</time>
      </trkpt>
      <trkpt lat="46.087" lon="6.81953">
        <ele>1866</ele>
        <time>2018-03-04T13:40:27Z</time>
      </trkpt>
      <trkpt lat="46.08696" lon="6.81947">
        <ele>1868</ele>
        <time>2018-03-04T13:40:28Z</time>
      </trkpt>
      <trkpt lat="46.08692" lon="6.81941">
        <ele>1869</ele>
        <time>2018-03-04T13:40:29Z</time>
      </trkpt>
      <trkpt lat="46.08688" lon="6.81934">
        <ele>1871</ele>
        <time>2018-03-04T13:40:30Z</time>
      </trkpt>
      <trkpt lat="46.08683" lon="6.81929">
        <ele>1874</ele>
        <time>2018-03-04T13:40:31Z</time>
      </trkpt>
      <trkpt lat="46.08678" lon="6.81925">
        <ele>1877</ele>
        <time>2018-03-04T13:40:32Z</time>
      </trkpt>
      <trkpt lat="46.08672" lon="6.81921">
        <ele>1883</ele>
        <time>2018-03-04T13:40:33Z</time>
      </trkpt>
      <trkpt lat="46.08666" lon="6.81915">
        <ele>1887</ele>
        <time>2018-03-04T13:40:34Z</time>
      </trkpt>
      <trkpt lat="46.08662" lon="6.81909">
        <ele>1882</ele>
        <time>2018-03-04T13:40:35Z</time>
      </trkpt>
      <trkpt lat="46.08659" lon="6.81904">
        <ele>1879</ele>
        <time>2018-03-04T13:40:36Z</time>
      </trkpt>
      <trkpt lat="46.08658" lon="6.819">
        <ele>1877</ele>
        <time>2018-03-04T13:40:37Z</time>
      </trkpt>
      <trkpt lat="46.08651" lon="6.81886">
        <ele>1872</ele>
        <time>2018-03-04T13:40:41Z</time>
      </trkpt>
      <trkpt lat="46.08649" lon="6.81881">
        <ele>1870</ele>
        <time>2018-03-04T13:40:42Z</time>
      </trkpt>
      <trkpt lat="46.08649" lon="6.81875">
        <ele>1868</ele>
        <time>2018-03-04T13:40:43Z</time>
      </trkpt>
      <trkpt lat="46.08647" lon="6.81868">
        <ele>1867</ele>
        <time>2018-03-04T13:40:44Z</time>
      </trkpt>
      <trkpt lat="46.08646" lon="6.81861">
        <ele>1865</ele>
        <time>2018-03-04T13:40:45Z</time>
      </trkpt>
      <trkpt lat="46.08643" lon="6.81853">
        <ele>1863</ele>
        <time>2018-03-04T13:40:46Z</time>
      </trkpt>
      <trkpt lat="46.0864" lon="6.81847">
        <ele>1863</ele>
        <time>2018-03-04T13:40:47Z</time>
      </trkpt>
      <trkpt lat="46.08637" lon="6.81841">
        <ele>1862</ele>
        <time>2018-03-04T13:40:48Z</time>
      </trkpt>
      <trkpt lat="46.08636" lon="6.81834">
        <ele>1862</ele>
        <time>2018-03-04T13:40:49Z</time>
      </trkpt>
      <trkpt lat="46.08634" lon="6.81826">
        <ele>1846</ele>
        <time>2018-03-04T13:40:50Z</time>
      </trkpt>
      <trkpt lat="46.08632" lon="6.81819">
        <ele>1846</ele>
        <time>2018-03-04T13:40:51Z</time>
      </trkpt>
      <trkpt lat="46.08628" lon="6.81813">
        <ele>1845</ele>
        <time>2018-03-04T13:40:52Z</time>
      </trkpt>
      <trkpt lat="46.08621" lon="6.81803">
        <ele>1845</ele>
        <time>2018-03-04T13:40:54Z</time>
      </trkpt>
      <trkpt lat="46.0862" lon="6.81797">
        <ele>1844</ele>
        <time>2018-03-04T13:40:55Z</time>
      </trkpt>
      <trkpt lat="46.08619" lon="6.8179">
        <ele>1843</ele>
        <time>2018-03-04T13:40:56Z</time>
      </trkpt>
      <trkpt lat="46.08616" lon="6.81784">
        <ele>1843</ele>
        <time>2018-03-04T13:40:57Z</time>
      </trkpt>
      <trkpt lat="46.08613" lon="6.81777">
        <ele>1843</ele>
        <time>2018-03-04T13:40:58Z</time>
      </trkpt>
      <trkpt lat="46.08611" lon="6.81768">
        <ele>1842</ele>
        <time>2018-03-04T13:40:59Z</time>
      </trkpt>
      <trkpt lat="46.0861" lon="6.8176">
        <ele>1842</ele>
        <time>2018-03-04T13:41:00Z</time>
      </trkpt>
      <trkpt lat="46.08607" lon="6.81751">
        <ele>1842</ele>
        <time>2018-03-04T13:41:01Z</time>
      </trkpt>
      <trkpt lat="46.08606" lon="6.81742">
        <ele>1827</ele>
        <time>2018-03-04T13:41:02Z</time>
      </trkpt>
      <trkpt lat="46.08606" lon="6.81734">
        <ele>1824</ele>
        <time>2018-03-04T13:41:03Z</time>
      </trkpt>
      <trkpt lat="46.08606" lon="6.81727">
        <ele>1822</ele>
        <time>2018-03-04T13:41:04Z</time>
      </trkpt>
      <trkpt lat="46.08607" lon="6.8172">
        <ele>1820</ele>
        <time>2018-03-04T13:41:05Z</time>
      </trkpt>
      <trkpt lat="46.08607" lon="6.81711">
        <ele>1818</ele>
        <time>2018-03-04T13:41:06Z</time>
      </trkpt>
      <trkpt lat="46.08606" lon="6.81702">
        <ele>1816</ele>
        <time>2018-03-04T13:41:07Z</time>
      </trkpt>
      <trkpt lat="46.08604" lon="6.81694">
        <ele>1814</ele>
        <time>2018-03-04T13:41:08Z</time>
      </trkpt>
      <trkpt lat="46.08603" lon="6.81688">
        <ele>1814</ele>
        <time>2018-03-04T13:41:09Z</time>
      </trkpt>
      <trkpt lat="46.086" lon="6.81681">
        <ele>1813</ele>
        <time>2018-03-04T13:41:11Z</time>
      </trkpt>
      <trkpt lat="46.08592" lon="6.81665">
        <ele>1803</ele>
        <time>2018-03-04T13:41:16Z</time>
      </trkpt>
      <trkpt lat="46.08588" lon="6.81664">
        <ele>1806</ele>
        <time>2018-03-04T13:41:17Z</time>
      </trkpt>
      <trkpt lat="46.08585" lon="6.81663">
        <ele>1808</ele>
        <time>2018-03-04T13:41:18Z</time>
      </trkpt>
      <trkpt lat="46.08582" lon="6.81661">
        <ele>1810</ele>
        <time>2018-03-04T13:41:19Z</time>
      </trkpt>
      <trkpt lat="46.08579" lon="6.81659">
        <ele>1809</ele>
        <time>2018-03-04T13:41:20Z</time>
      </trkpt>
      <trkpt lat="46.08576" lon="6.81656">
        <ele>1807</ele>
        <time>2018-03-04T13:41:21Z</time>
      </trkpt>
      <trkpt lat="46.08574" lon="6.81653">
        <ele>1806</ele>
        <time>2018-03-04T13:41:22Z</time>
      </trkpt>
      <trkpt lat="46.08573" lon="6.81648">
        <ele>1805</ele>
        <time>2018-03-04T13:41:23Z</time>
      </trkpt>
      <trkpt lat="46.0857" lon="6.81644">
        <ele>1803</ele>
        <time>2018-03-04T13:41:24Z</time>
      </trkpt>
      <trkpt lat="46.08568" lon="6.81639">
        <ele>1802</ele>
        <time>2018-03-04T13:41:25Z</time>
      </trkpt>
      <trkpt lat="46.08566" lon="6.81635">
        <ele>1801</ele>
        <time>2018-03-04T13:41:26Z</time>
      </trkpt>
      <trkpt lat="46.08563" lon="6.8163">
        <ele>1800</ele>
        <time>2018-03-04T13:41:27Z</time>
      </trkpt>
      <trkpt lat="46.0856" lon="6.81625">
        <ele>1799</ele>
        <time>2018-03-04T13:41:28Z</time>
      </trkpt>
      <trkpt lat="46.08557" lon="6.81621">
        <ele>1798</ele>
        <time>2018-03-04T13:41:29Z</time>
      </trkpt>
      <trkpt lat="46.08555" lon="6.81618">
        <ele>1798</ele>
        <time>2018-03-04T13:41:30Z</time>
      </trkpt>
      <trkpt lat="46.08553" lon="6.81615">
        <ele>1797</ele>
        <time>2018-03-04T13:41:31Z</time>
      </trkpt>
      <trkpt lat="46.08552" lon="6.81614">
        <ele>1797</ele>
        <time>2018-03-04T13:41:32Z</time>
      </trkpt>
      <trkpt lat="46.08551" lon="6.81614">
        <ele>1797</ele>
        <time>2018-03-04T13:41:36Z</time>
      </trkpt>
      <trkpt lat="46.08551" lon="6.81615">
        <ele>1797</ele>
        <time>2018-03-04T13:41:42Z</time>
      </trkpt>
      <trkpt lat="46.0855" lon="6.81615">
        <ele>1797</ele>
        <time>2018-03-04T13:41:43Z</time>
      </trkpt>
      <trkpt lat="46.08548" lon="6.81615">
        <ele>1798</ele>
        <time>2018-03-04T13:41:44Z</time>
      </trkpt>
      <trkpt lat="46.08546" lon="6.81614">
        <ele>1797</ele>
        <time>2018-03-04T13:41:49Z</time>
      </trkpt>
      <trkpt lat="46.08545" lon="6.81612">
        <ele>1797</ele>
        <time>2018-03-04T13:41:50Z</time>
      </trkpt>
      <trkpt lat="46.08544" lon="6.8161">
        <ele>1797</ele>
        <time>2018-03-04T13:41:51Z</time>
      </trkpt>
      <trkpt lat="46.08544" lon="6.81607">
        <ele>1797</ele>
        <time>2018-03-04T13:41:52Z</time>
      </trkpt>
      <trkpt lat="46.08545" lon="6.81606">
        <ele>1796</ele>
        <time>2018-03-04T13:41:53Z</time>
      </trkpt>
      <trkpt lat="46.08545" lon="6.81605">
        <ele>1796</ele>
        <time>2018-03-04T13:41:57Z</time>
      </trkpt>
      <trkpt lat="46.08543" lon="6.81603">
        <ele>1796</ele>
        <time>2018-03-04T13:41:58Z</time>
      </trkpt>
      <trkpt lat="46.08543" lon="6.816">
        <ele>1796</ele>
        <time>2018-03-04T13:41:59Z</time>
      </trkpt>
      <trkpt lat="46.08542" lon="6.81595">
        <ele>1795</ele>
        <time>2018-03-04T13:42:01Z</time>
      </trkpt>
      <trkpt lat="46.0854" lon="6.81593">
        <ele>1795</ele>
        <time>2018-03-04T13:42:02Z</time>
      </trkpt>
      <trkpt lat="46.0854" lon="6.81589">
        <ele>1795</ele>
        <time>2018-03-04T13:42:03Z</time>
      </trkpt>
      <trkpt lat="46.0854" lon="6.81584">
        <ele>1794</ele>
        <time>2018-03-04T13:42:04Z</time>
      </trkpt>
      <trkpt lat="46.08539" lon="6.8158">
        <ele>1779</ele>
        <time>2018-03-04T13:42:05Z</time>
      </trkpt>
      <trkpt lat="46.08539" lon="6.81576">
        <ele>1778</ele>
        <time>2018-03-04T13:42:06Z</time>
      </trkpt>
      <trkpt lat="46.08539" lon="6.81572">
        <ele>1778</ele>
        <time>2018-03-04T13:42:07Z</time>
      </trkpt>
      <trkpt lat="46.08538" lon="6.81567">
        <ele>1778</ele>
        <time>2018-03-04T13:42:08Z</time>
      </trkpt>
      <trkpt lat="46.08537" lon="6.81563">
        <ele>1777</ele>
        <time>2018-03-04T13:42:09Z</time>
      </trkpt>
      <trkpt lat="46.08537" lon="6.81558">
        <ele>1777</ele>
        <time>2018-03-04T13:42:10Z</time>
      </trkpt>
      <trkpt lat="46.08535" lon="6.81553">
        <ele>1776</ele>
        <time>2018-03-04T13:42:11Z</time>
      </trkpt>
      <trkpt lat="46.08535" lon="6.81548">
        <ele>1776</ele>
        <time>2018-03-04T13:42:12Z</time>
      </trkpt>
      <trkpt lat="46.08536" lon="6.81543">
        <ele>1775</ele>
        <time>2018-03-04T13:42:13Z</time>
      </trkpt>
      <trkpt lat="46.08537" lon="6.81538">
        <ele>1774</ele>
        <time>2018-03-04T13:42:14Z</time>
      </trkpt>
      <trkpt lat="46.08535" lon="6.81534">
        <ele>1774</ele>
        <time>2018-03-04T13:42:15Z</time>
      </trkpt>
      <trkpt lat="46.08534" lon="6.81529">
        <ele>1773</ele>
        <time>2018-03-04T13:42:16Z</time>
      </trkpt>
      <trkpt lat="46.08535" lon="6.81523">
        <ele>1773</ele>
        <time>2018-03-04T13:42:17Z</time>
      </trkpt>
      <trkpt lat="46.08534" lon="6.81518">
        <ele>1772</ele>
        <time>2018-03-04T13:42:18Z</time>
      </trkpt>
      <trkpt lat="46.08532" lon="6.81513">
        <ele>1772</ele>
        <time>2018-03-04T13:42:19Z</time>
      </trkpt>
      <trkpt lat="46.08533" lon="6.81507">
        <ele>1772</ele>
        <time>2018-03-04T13:42:20Z</time>
      </trkpt>
      <trkpt lat="46.08536" lon="6.81503">
        <ele>1771</ele>
        <time>2018-03-04T13:42:21Z</time>
      </trkpt>
      <trkpt lat="46.08539" lon="6.81498">
        <ele>1757</ele>
        <time>2018-03-04T13:42:22Z</time>
      </trkpt>
      <trkpt lat="46.08542" lon="6.81492">
        <ele>1756</ele>
        <time>2018-03-04T13:42:23Z</time>
      </trkpt>
      <trkpt lat="46.08544" lon="6.81486">
        <ele>1755</ele>
        <time>2018-03-04T13:42:24Z</time>
      </trkpt>
      <trkpt lat="46.08543" lon="6.8148">
        <ele>1755</ele>
        <time>2018-03-04T13:42:25Z</time>
      </trkpt>
      <trkpt lat="46.08541" lon="6.81473">
        <ele>1754</ele>
        <time>2018-03-04T13:42:26Z</time>
      </trkpt>
      <trkpt lat="46.0854" lon="6.81466">
        <ele>1753</ele>
        <time>2018-03-04T13:42:27Z</time>
      </trkpt>
      <trkpt lat="46.08538" lon="6.81458">
        <ele>1752</ele>
        <time>2018-03-04T13:42:28Z</time>
      </trkpt>
      <trkpt lat="46.08538" lon="6.8145">
        <ele>1751</ele>
        <time>2018-03-04T13:42:29Z</time>
      </trkpt>
      <trkpt lat="46.08537" lon="6.81442">
        <ele>1750</ele>
        <time>2018-03-04T13:42:30Z</time>
      </trkpt>
      <trkpt lat="46.08537" lon="6.81434">
        <ele>1749</ele>
        <time>2018-03-04T13:42:31Z</time>
      </trkpt>
      <trkpt lat="46.08538" lon="6.81427">
        <ele>1748</ele>
        <time>2018-03-04T13:42:32Z</time>
      </trkpt>
      <trkpt lat="46.08541" lon="6.81422">
        <ele>1748</ele>
        <time>2018-03-04T13:42:33Z</time>
      </trkpt>
      <trkpt lat="46.08542" lon="6.81416">
        <ele>1732</ele>
        <time>2018-03-04T13:42:34Z</time>
      </trkpt>
      <trkpt lat="46.08542" lon="6.8141">
        <ele>1731</ele>
        <time>2018-03-04T13:42:35Z</time>
      </trkpt>
      <trkpt lat="46.0854" lon="6.81404">
        <ele>1731</ele>
        <time>2018-03-04T13:42:36Z</time>
      </trkpt>
      <trkpt lat="46.08537" lon="6.81401">
        <ele>1731</ele>
        <time>2018-03-04T13:42:37Z</time>
      </trkpt>
      <trkpt lat="46.08532" lon="6.81397">
        <ele>1731</ele>
        <time>2018-03-04T13:42:38Z</time>
      </trkpt>
      <trkpt lat="46.08528" lon="6.81394">
        <ele>1730</ele>
        <time>2018-03-04T13:42:39Z</time>
      </trkpt>
      <trkpt lat="46.08524" lon="6.81389">
        <ele>1730</ele>
        <time>2018-03-04T13:42:40Z</time>
      </trkpt>
      <trkpt lat="46.08521" lon="6.81385">
        <ele>1729</ele>
        <time>2018-03-04T13:42:41Z</time>
      </trkpt>
      <trkpt lat="46.08517" lon="6.8138">
        <ele>1728</ele>
        <time>2018-03-04T13:42:42Z</time>
      </trkpt>
      <trkpt lat="46.08514" lon="6.81375">
        <ele>1727</ele>
        <time>2018-03-04T13:42:43Z</time>
      </trkpt>
      <trkpt lat="46.08511" lon="6.81369">
        <ele>1726</ele>
        <time>2018-03-04T13:42:44Z</time>
      </trkpt>
      <trkpt lat="46.08507" lon="6.81363">
        <ele>1725</ele>
        <time>2018-03-04T13:42:45Z</time>
      </trkpt>
      <trkpt lat="46.08503" lon="6.81359">
        <ele>1723</ele>
        <time>2018-03-04T13:42:46Z</time>
      </trkpt>
      <trkpt lat="46.085" lon="6.81355">
        <ele>1722</ele>
        <time>2018-03-04T13:42:47Z</time>
      </trkpt>
      <trkpt lat="46.08498" lon="6.81352">
        <ele>1721</ele>
        <time>2018-03-04T13:42:48Z</time>
      </trkpt>
      <trkpt lat="46.08496" lon="6.81348">
        <ele>1720</ele>
        <time>2018-03-04T13:42:49Z</time>
      </trkpt>
      <trkpt lat="46.08495" lon="6.81343">
        <ele>1719</ele>
        <time>2018-03-04T13:42:50Z</time>
      </trkpt>
      <trkpt lat="46.08494" lon="6.81337">
        <ele>1717</ele>
        <time>2018-03-04T13:42:51Z</time>
      </trkpt>
      <trkpt lat="46.08493" lon="6.81331">
        <ele>1709</ele>
        <time>2018-03-04T13:42:52Z</time>
      </trkpt>
      <trkpt lat="46.08493" lon="6.81324">
        <ele>1706</ele>
        <time>2018-03-04T13:42:53Z</time>
      </trkpt>
      <trkpt lat="46.08492" lon="6.81317">
        <ele>1702</ele>
        <time>2018-03-04T13:42:54Z</time>
      </trkpt>
      <trkpt lat="46.08492" lon="6.81311">
        <ele>1700</ele>
        <time>2018-03-04T13:42:55Z</time>
      </trkpt>
      <trkpt lat="46.08492" lon="6.81305">
        <ele>1697</ele>
        <time>2018-03-04T13:42:56Z</time>
      </trkpt>
      <trkpt lat="46.08494" lon="6.81299">
        <ele>1695</ele>
        <time>2018-03-04T13:42:57Z</time>
      </trkpt>
      <trkpt lat="46.08495" lon="6.81293">
        <ele>1693</ele>
        <time>2018-03-04T13:42:58Z</time>
      </trkpt>
      <trkpt lat="46.08497" lon="6.81285">
        <ele>1690</ele>
        <time>2018-03-04T13:42:59Z</time>
      </trkpt>
      <trkpt lat="46.085" lon="6.81277">
        <ele>1692</ele>
        <time>2018-03-04T13:43:00Z</time>
      </trkpt>
      <trkpt lat="46.08505" lon="6.81262">
        <ele>1686</ele>
        <time>2018-03-04T13:43:02Z</time>
      </trkpt>
      <trkpt lat="46.08507" lon="6.81255">
        <ele>1683</ele>
        <time>2018-03-04T13:43:03Z</time>
      </trkpt>
      <trkpt lat="46.08512" lon="6.81241">
        <ele>1673</ele>
        <time>2018-03-04T13:43:05Z</time>
      </trkpt>
      <trkpt lat="46.08515" lon="6.81234">
        <ele>1672</ele>
        <time>2018-03-04T13:43:06Z</time>
      </trkpt>
      <trkpt lat="46.08518" lon="6.81227">
        <ele>1671</ele>
        <time>2018-03-04T13:43:07Z</time>
      </trkpt>
      <trkpt lat="46.0852" lon="6.81221">
        <ele>1670</ele>
        <time>2018-03-04T13:43:08Z</time>
      </trkpt>
      <trkpt lat="46.0852" lon="6.81214">
        <ele>1668</ele>
        <time>2018-03-04T13:43:09Z</time>
      </trkpt>
      <trkpt lat="46.08518" lon="6.81206">
        <ele>1667</ele>
        <time>2018-03-04T13:43:10Z</time>
      </trkpt>
      <trkpt lat="46.08514" lon="6.81198">
        <ele>1665</ele>
        <time>2018-03-04T13:43:11Z</time>
      </trkpt>
      <trkpt lat="46.0851" lon="6.8119">
        <ele>1663</ele>
        <time>2018-03-04T13:43:12Z</time>
      </trkpt>
      <trkpt lat="46.08506" lon="6.81186">
        <ele>1662</ele>
        <time>2018-03-04T13:43:13Z</time>
      </trkpt>
      <trkpt lat="46.08503" lon="6.81185">
        <ele>1661</ele>
        <time>2018-03-04T13:43:14Z</time>
      </trkpt>
      <trkpt lat="46.08502" lon="6.81184">
        <ele>1661</ele>
        <time>2018-03-04T13:43:15Z</time>
      </trkpt>
      <trkpt lat="46.08501" lon="6.81184">
        <ele>1661</ele>
        <time>2018-03-04T13:43:16Z</time>
      </trkpt>
      <trkpt lat="46.085" lon="6.81183">
        <ele>1657</ele>
        <time>2018-03-04T13:43:17Z</time>
      </trkpt>
      <trkpt lat="46.0848" lon="6.8116">
        <ele>1644</ele>
        <time>2018-03-04T13:43:28Z</time>
      </trkpt>
      <trkpt lat="46.08479" lon="6.81154">
        <ele>1643</ele>
        <time>2018-03-04T13:43:29Z</time>
      </trkpt>
      <trkpt lat="46.08479" lon="6.81148">
        <ele>1642</ele>
        <time>2018-03-04T13:43:30Z</time>
      </trkpt>
      <trkpt lat="46.08478" lon="6.81141">
        <ele>1641</ele>
        <time>2018-03-04T13:43:31Z</time>
      </trkpt>
      <trkpt lat="46.08478" lon="6.81134">
        <ele>1640</ele>
        <time>2018-03-04T13:43:32Z</time>
      </trkpt>
      <trkpt lat="46.08478" lon="6.81125">
        <ele>1638</ele>
        <time>2018-03-04T13:43:33Z</time>
      </trkpt>
      <trkpt lat="46.08478" lon="6.81115">
        <ele>1637</ele>
        <time>2018-03-04T13:43:34Z</time>
      </trkpt>
      <trkpt lat="46.08479" lon="6.81105">
        <ele>1636</ele>
        <time>2018-03-04T13:43:35Z</time>
      </trkpt>
      <trkpt lat="46.08478" lon="6.81095">
        <ele>1635</ele>
        <time>2018-03-04T13:43:36Z</time>
      </trkpt>
      <trkpt lat="46.08476" lon="6.81075">
        <ele>1624</ele>
        <time>2018-03-04T13:43:38Z</time>
      </trkpt>
      <trkpt lat="46.08473" lon="6.81065">
        <ele>1622</ele>
        <time>2018-03-04T13:43:39Z</time>
      </trkpt>
      <trkpt lat="46.08472" lon="6.81054">
        <ele>1621</ele>
        <time>2018-03-04T13:43:40Z</time>
      </trkpt>
      <trkpt lat="46.08469" lon="6.81043">
        <ele>1620</ele>
        <time>2018-03-04T13:43:41Z</time>
      </trkpt>
      <trkpt lat="46.08467" lon="6.81032">
        <ele>1619</ele>
        <time>2018-03-04T13:43:42Z</time>
      </trkpt>
      <trkpt lat="46.08466" lon="6.81022">
        <ele>1618</ele>
        <time>2018-03-04T13:43:43Z</time>
      </trkpt>
      <trkpt lat="46.08463" lon="6.81012">
        <ele>1617</ele>
        <time>2018-03-04T13:43:44Z</time>
      </trkpt>
      <trkpt lat="46.08461" lon="6.81002">
        <ele>1617</ele>
        <time>2018-03-04T13:43:45Z</time>
      </trkpt>
      <trkpt lat="46.08458" lon="6.80995">
        <ele>1608</ele>
        <time>2018-03-04T13:43:46Z</time>
      </trkpt>
      <trkpt lat="46.08455" lon="6.80979">
        <ele>1607</ele>
        <time>2018-03-04T13:43:48Z</time>
      </trkpt>
      <trkpt lat="46.08451" lon="6.80963">
        <ele>1606</ele>
        <time>2018-03-04T13:43:50Z</time>
      </trkpt>
      <trkpt lat="46.08448" lon="6.80954">
        <ele>1605</ele>
        <time>2018-03-04T13:43:51Z</time>
      </trkpt>
      <trkpt lat="46.08444" lon="6.80948">
        <ele>1604</ele>
        <time>2018-03-04T13:43:52Z</time>
      </trkpt>
      <trkpt lat="46.08439" lon="6.80944">
        <ele>1603</ele>
        <time>2018-03-04T13:43:53Z</time>
      </trkpt>
      <trkpt lat="46.08434" lon="6.80942">
        <ele>1602</ele>
        <time>2018-03-04T13:43:54Z</time>
      </trkpt>
      <trkpt lat="46.0843" lon="6.80939">
        <ele>1601</ele>
        <time>2018-03-04T13:43:55Z</time>
      </trkpt>
      <trkpt lat="46.08428" lon="6.80937">
        <ele>1601</ele>
        <time>2018-03-04T13:43:56Z</time>
      </trkpt>
      <trkpt lat="46.08427" lon="6.80936">
        <ele>1600</ele>
        <time>2018-03-04T13:43:57Z</time>
      </trkpt>
      <trkpt lat="46.08425" lon="6.80934">
        <ele>1600</ele>
        <time>2018-03-04T13:44:00Z</time>
      </trkpt>
      <trkpt lat="46.08425" lon="6.80932">
        <ele>1599</ele>
        <time>2018-03-04T13:44:01Z</time>
      </trkpt>
      <trkpt lat="46.08424" lon="6.80931">
        <ele>1599</ele>
        <time>2018-03-04T13:44:07Z</time>
      </trkpt>
      <trkpt lat="46.08423" lon="6.80928">
        <ele>1598</ele>
        <time>2018-03-04T13:44:08Z</time>
      </trkpt>
      <trkpt lat="46.08423" lon="6.80925">
        <ele>1597</ele>
        <time>2018-03-04T13:44:09Z</time>
      </trkpt>
      <trkpt lat="46.08422" lon="6.80914">
        <ele>1593</ele>
        <time>2018-03-04T13:44:11Z</time>
      </trkpt>
      <trkpt lat="46.08421" lon="6.80907">
        <ele>1594</ele>
        <time>2018-03-04T13:44:12Z</time>
      </trkpt>
      <trkpt lat="46.0842" lon="6.809">
        <ele>1595</ele>
        <time>2018-03-04T13:44:13Z</time>
      </trkpt>
      <trkpt lat="46.08419" lon="6.80893">
        <ele>1595</ele>
        <time>2018-03-04T13:44:14Z</time>
      </trkpt>
      <trkpt lat="46.08419" lon="6.80888">
        <ele>1595</ele>
        <time>2018-03-04T13:44:15Z</time>
      </trkpt>
      <trkpt lat="46.0842" lon="6.80883">
        <ele>1595</ele>
        <time>2018-03-04T13:44:16Z</time>
      </trkpt>
      <trkpt lat="46.08419" lon="6.80877">
        <ele>1595</ele>
        <time>2018-03-04T13:44:17Z</time>
      </trkpt>
      <trkpt lat="46.08417" lon="6.80868">
        <ele>1595</ele>
        <time>2018-03-04T13:44:18Z</time>
      </trkpt>
      <trkpt lat="46.08417" lon="6.8086">
        <ele>1594</ele>
        <time>2018-03-04T13:44:19Z</time>
      </trkpt>
      <trkpt lat="46.08416" lon="6.80852">
        <ele>1585</ele>
        <time>2018-03-04T13:44:20Z</time>
      </trkpt>
      <trkpt lat="46.08414" lon="6.80843">
        <ele>1586</ele>
        <time>2018-03-04T13:44:21Z</time>
      </trkpt>
      <trkpt lat="46.08414" lon="6.80834">
        <ele>1587</ele>
        <time>2018-03-04T13:44:22Z</time>
      </trkpt>
      <trkpt lat="46.08412" lon="6.80825">
        <ele>1585</ele>
        <time>2018-03-04T13:44:23Z</time>
      </trkpt>
      <trkpt lat="46.08411" lon="6.80816">
        <ele>1582</ele>
        <time>2018-03-04T13:44:24Z</time>
      </trkpt>
      <trkpt lat="46.08411" lon="6.80808">
        <ele>1581</ele>
        <time>2018-03-04T13:44:25Z</time>
      </trkpt>
      <trkpt lat="46.08409" lon="6.80801">
        <ele>1580</ele>
        <time>2018-03-04T13:44:26Z</time>
      </trkpt>
      <trkpt lat="46.08407" lon="6.80787">
        <ele>1580</ele>
        <time>2018-03-04T13:44:28Z</time>
      </trkpt>
      <trkpt lat="46.08406" lon="6.8078">
        <ele>1580</ele>
        <time>2018-03-04T13:44:29Z</time>
      </trkpt>
      <trkpt lat="46.08407" lon="6.80763">
        <ele>1581</ele>
        <time>2018-03-04T13:44:31Z</time>
      </trkpt>
      <trkpt lat="46.08407" lon="6.80757">
        <ele>1582</ele>
        <time>2018-03-04T13:44:32Z</time>
      </trkpt>
      <trkpt lat="46.08405" lon="6.8075">
        <ele>1582</ele>
        <time>2018-03-04T13:44:33Z</time>
      </trkpt>
      <trkpt lat="46.08396" lon="6.80743">
        <ele>1574</ele>
        <time>2018-03-04T13:44:35Z</time>
      </trkpt>
      <trkpt lat="46.08393" lon="6.80742">
        <ele>1573</ele>
        <time>2018-03-04T13:44:36Z</time>
      </trkpt>
      <trkpt lat="46.08389" lon="6.8074">
        <ele>1572</ele>
        <time>2018-03-04T13:44:37Z</time>
      </trkpt>
      <trkpt lat="46.08385" lon="6.80736">
        <ele>1571</ele>
        <time>2018-03-04T13:44:38Z</time>
      </trkpt>
      <trkpt lat="46.08382" lon="6.80733">
        <ele>1570</ele>
        <time>2018-03-04T13:44:39Z</time>
      </trkpt>
      <trkpt lat="46.08378" lon="6.80729">
        <ele>1569</ele>
        <time>2018-03-04T13:44:40Z</time>
      </trkpt>
      <trkpt lat="46.08375" lon="6.80726">
        <ele>1568</ele>
        <time>2018-03-04T13:44:41Z</time>
      </trkpt>
      <trkpt lat="46.08371" lon="6.80724">
        <ele>1567</ele>
        <time>2018-03-04T13:44:42Z</time>
      </trkpt>
      <trkpt lat="46.08367" lon="6.80722">
        <ele>1567</ele>
        <time>2018-03-04T13:44:43Z</time>
      </trkpt>
      <trkpt lat="46.08362" lon="6.8072">
        <ele>1566</ele>
        <time>2018-03-04T13:44:44Z</time>
      </trkpt>
      <trkpt lat="46.08358" lon="6.80718">
        <ele>1565</ele>
        <time>2018-03-04T13:44:45Z</time>
      </trkpt>
      <trkpt lat="46.08354" lon="6.80716">
        <ele>1565</ele>
        <time>2018-03-04T13:44:46Z</time>
      </trkpt>
      <trkpt lat="46.08349" lon="6.80714">
        <ele>1564</ele>
        <time>2018-03-04T13:44:47Z</time>
      </trkpt>
      <trkpt lat="46.08345" lon="6.80711">
        <ele>1564</ele>
        <time>2018-03-04T13:44:48Z</time>
      </trkpt>
      <trkpt lat="46.08341" lon="6.80706">
        <ele>1563</ele>
        <time>2018-03-04T13:44:49Z</time>
      </trkpt>
      <trkpt lat="46.08337" lon="6.80702">
        <ele>1562</ele>
        <time>2018-03-04T13:44:50Z</time>
      </trkpt>
      <trkpt lat="46.08333" lon="6.80697">
        <ele>1548</ele>
        <time>2018-03-04T13:44:51Z</time>
      </trkpt>
      <trkpt lat="46.08327" lon="6.80693">
        <ele>1548</ele>
        <time>2018-03-04T13:44:52Z</time>
      </trkpt>
      <trkpt lat="46.08322" lon="6.80691">
        <ele>1547</ele>
        <time>2018-03-04T13:44:53Z</time>
      </trkpt>
      <trkpt lat="46.08316" lon="6.80689">
        <ele>1547</ele>
        <time>2018-03-04T13:44:54Z</time>
      </trkpt>
      <trkpt lat="46.08311" lon="6.80687">
        <ele>1546</ele>
        <time>2018-03-04T13:44:55Z</time>
      </trkpt>
      <trkpt lat="46.08302" lon="6.80683">
        <ele>1545</ele>
        <time>2018-03-04T13:44:57Z</time>
      </trkpt>
      <trkpt lat="46.08297" lon="6.80681">
        <ele>1544</ele>
        <time>2018-03-04T13:44:58Z</time>
      </trkpt>
      <trkpt lat="46.08292" lon="6.80677">
        <ele>1543</ele>
        <time>2018-03-04T13:44:59Z</time>
      </trkpt>
      <trkpt lat="46.08276" lon="6.80667">
        <ele>1530</ele>
        <time>2018-03-04T13:45:02Z</time>
      </trkpt>
      <trkpt lat="46.0827" lon="6.80665">
        <ele>1530</ele>
        <time>2018-03-04T13:45:03Z</time>
      </trkpt>
      <trkpt lat="46.08265" lon="6.80665">
        <ele>1529</ele>
        <time>2018-03-04T13:45:04Z</time>
      </trkpt>
      <trkpt lat="46.08261" lon="6.80666">
        <ele>1529</ele>
        <time>2018-03-04T13:45:05Z</time>
      </trkpt>
      <trkpt lat="46.08258" lon="6.80666">
        <ele>1529</ele>
        <time>2018-03-04T13:45:06Z</time>
      </trkpt>
      <trkpt lat="46.08255" lon="6.80666">
        <ele>1529</ele>
        <time>2018-03-04T13:45:07Z</time>
      </trkpt>
      <trkpt lat="46.08253" lon="6.80665">
        <ele>1529</ele>
        <time>2018-03-04T13:45:08Z</time>
      </trkpt>
      <trkpt lat="46.08249" lon="6.80665">
        <ele>1527</ele>
        <time>2018-03-04T13:45:09Z</time>
      </trkpt>
      <trkpt lat="46.08246" lon="6.80664">
        <ele>1525</ele>
        <time>2018-03-04T13:45:10Z</time>
      </trkpt>
      <trkpt lat="46.08244" lon="6.80661">
        <ele>1523</ele>
        <time>2018-03-04T13:45:11Z</time>
      </trkpt>
      <trkpt lat="46.08241" lon="6.80657">
        <ele>1521</ele>
        <time>2018-03-04T13:45:12Z</time>
      </trkpt>
      <trkpt lat="46.08239" lon="6.80653">
        <ele>1519</ele>
        <time>2018-03-04T13:45:13Z</time>
      </trkpt>
      <trkpt lat="46.08237" lon="6.80649">
        <ele>1517</ele>
        <time>2018-03-04T13:45:14Z</time>
      </trkpt>
      <trkpt lat="46.08236" lon="6.80646">
        <ele>1516</ele>
        <time>2018-03-04T13:45:15Z</time>
      </trkpt>
      <trkpt lat="46.08234" lon="6.80642">
        <ele>1515</ele>
        <time>2018-03-04T13:45:16Z</time>
      </trkpt>
      <trkpt lat="46.08231" lon="6.8064">
        <ele>1514</ele>
        <time>2018-03-04T13:45:17Z</time>
      </trkpt>
      <trkpt lat="46.08227" lon="6.80639">
        <ele>1513</ele>
        <time>2018-03-04T13:45:18Z</time>
      </trkpt>
      <trkpt lat="46.08224" lon="6.80636">
        <ele>1512</ele>
        <time>2018-03-04T13:45:19Z</time>
      </trkpt>
      <trkpt lat="46.08219" lon="6.80634">
        <ele>1511</ele>
        <time>2018-03-04T13:45:20Z</time>
      </trkpt>
      <trkpt lat="46.08216" lon="6.8063">
        <ele>1510</ele>
        <time>2018-03-04T13:45:21Z</time>
      </trkpt>
      <trkpt lat="46.08212" lon="6.80625">
        <ele>1509</ele>
        <time>2018-03-04T13:45:22Z</time>
      </trkpt>
      <trkpt lat="46.08209" lon="6.8062">
        <ele>1508</ele>
        <time>2018-03-04T13:45:23Z</time>
      </trkpt>
      <trkpt lat="46.08205" lon="6.80617">
        <ele>1507</ele>
        <time>2018-03-04T13:45:24Z</time>
      </trkpt>
      <trkpt lat="46.08201" lon="6.80613">
        <ele>1506</ele>
        <time>2018-03-04T13:45:25Z</time>
      </trkpt>
      <trkpt lat="46.08197" lon="6.80611">
        <ele>1505</ele>
        <time>2018-03-04T13:45:26Z</time>
      </trkpt>
      <trkpt lat="46.08193" lon="6.80607">
        <ele>1504</ele>
        <time>2018-03-04T13:45:27Z</time>
      </trkpt>
      <trkpt lat="46.08189" lon="6.80603">
        <ele>1503</ele>
        <time>2018-03-04T13:45:28Z</time>
      </trkpt>
      <trkpt lat="46.08186" lon="6.80598">
        <ele>1501</ele>
        <time>2018-03-04T13:45:29Z</time>
      </trkpt>
      <trkpt lat="46.08182" lon="6.80594">
        <ele>1499</ele>
        <time>2018-03-04T13:45:30Z</time>
      </trkpt>
      <trkpt lat="46.08179" lon="6.8059">
        <ele>1497</ele>
        <time>2018-03-04T13:45:31Z</time>
      </trkpt>
      <trkpt lat="46.08175" lon="6.80585">
        <ele>1494</ele>
        <time>2018-03-04T13:45:32Z</time>
      </trkpt>
      <trkpt lat="46.08167" lon="6.80577">
        <ele>1489</ele>
        <time>2018-03-04T13:45:34Z</time>
      </trkpt>
      <trkpt lat="46.08164" lon="6.80572">
        <ele>1483</ele>
        <time>2018-03-04T13:45:35Z</time>
      </trkpt>
      <trkpt lat="46.08161" lon="6.80566">
        <ele>1481</ele>
        <time>2018-03-04T13:45:36Z</time>
      </trkpt>
      <trkpt lat="46.08158" lon="6.80559">
        <ele>1479</ele>
        <time>2018-03-04T13:45:37Z</time>
      </trkpt>
      <trkpt lat="46.08154" lon="6.80552">
        <ele>1477</ele>
        <time>2018-03-04T13:45:38Z</time>
      </trkpt>
      <trkpt lat="46.08149" lon="6.80546">
        <ele>1476</ele>
        <time>2018-03-04T13:45:39Z</time>
      </trkpt>
      <trkpt lat="46.08146" lon="6.80542">
        <ele>1475</ele>
        <time>2018-03-04T13:45:40Z</time>
      </trkpt>
      <trkpt lat="46.08145" lon="6.80537">
        <ele>1475</ele>
        <time>2018-03-04T13:45:41Z</time>
      </trkpt>
      <trkpt lat="46.08146" lon="6.80531">
        <ele>1474</ele>
        <time>2018-03-04T13:45:42Z</time>
      </trkpt>
      <trkpt lat="46.08147" lon="6.80525">
        <ele>1474</ele>
        <time>2018-03-04T13:45:43Z</time>
      </trkpt>
      <trkpt lat="46.08149" lon="6.80519">
        <ele>1474</ele>
        <time>2018-03-04T13:45:44Z</time>
      </trkpt>
      <trkpt lat="46.08151" lon="6.80514">
        <ele>1473</ele>
        <time>2018-03-04T13:45:45Z</time>
      </trkpt>
      <trkpt lat="46.08154" lon="6.80499">
        <ele>1469</ele>
        <time>2018-03-04T13:45:48Z</time>
      </trkpt>
      <trkpt lat="46.08154" lon="6.80493">
        <ele>1469</ele>
        <time>2018-03-04T13:45:49Z</time>
      </trkpt>
      <trkpt lat="46.08154" lon="6.80485">
        <ele>1468</ele>
        <time>2018-03-04T13:45:50Z</time>
      </trkpt>
      <trkpt lat="46.08156" lon="6.80467">
        <ele>1467</ele>
        <time>2018-03-04T13:45:53Z</time>
      </trkpt>
      <trkpt lat="46.08155" lon="6.80463">
        <ele>1466</ele>
        <time>2018-03-04T13:45:54Z</time>
      </trkpt>
      <trkpt lat="46.08148" lon="6.80438">
        <ele>1465</ele>
        <time>2018-03-04T13:46:03Z</time>
      </trkpt>
      <trkpt lat="46.08146" lon="6.80425">
        <ele>1465</ele>
        <time>2018-03-04T13:46:06Z</time>
      </trkpt>
      <trkpt lat="46.08147" lon="6.80424">
        <ele>1465</ele>
        <time>2018-03-04T13:46:07Z</time>
      </trkpt>
      <trkpt lat="46.08145" lon="6.80416">
        <ele>1460</ele>
        <time>2018-03-04T13:46:15Z</time>
      </trkpt>
      <trkpt lat="46.08145" lon="6.80414">
        <ele>1460</ele>
        <time>2018-03-04T13:46:16Z</time>
      </trkpt>
      <trkpt lat="46.08143" lon="6.80411">
        <ele>1459</ele>
        <time>2018-03-04T13:46:18Z</time>
      </trkpt>
      <trkpt lat="46.0814" lon="6.8041">
        <ele>1459</ele>
        <time>2018-03-04T13:46:19Z</time>
      </trkpt>
      <trkpt lat="46.08137" lon="6.8041">
        <ele>1458</ele>
        <time>2018-03-04T13:46:20Z</time>
      </trkpt>
      <trkpt lat="46.08134" lon="6.8041">
        <ele>1458</ele>
        <time>2018-03-04T13:46:21Z</time>
      </trkpt>
      <trkpt lat="46.08132" lon="6.80411">
        <ele>1457</ele>
        <time>2018-03-04T13:46:22Z</time>
      </trkpt>
      <trkpt lat="46.08129" lon="6.8041">
        <ele>1457</ele>
        <time>2018-03-04T13:46:23Z</time>
      </trkpt>
      <trkpt lat="46.08127" lon="6.80408">
        <ele>1457</ele>
        <time>2018-03-04T13:46:24Z</time>
      </trkpt>
      <trkpt lat="46.08125" lon="6.80405">
        <ele>1456</ele>
        <time>2018-03-04T13:46:25Z</time>
      </trkpt>
      <trkpt lat="46.08123" lon="6.80402">
        <ele>1456</ele>
        <time>2018-03-04T13:46:26Z</time>
      </trkpt>
      <trkpt lat="46.08121" lon="6.804">
        <ele>1455</ele>
        <time>2018-03-04T13:46:27Z</time>
      </trkpt>
      <trkpt lat="46.08119" lon="6.80401">
        <ele>1455</ele>
        <time>2018-03-04T13:46:28Z</time>
      </trkpt>
      <trkpt lat="46.08118" lon="6.80402">
        <ele>1455</ele>
        <time>2018-03-04T13:46:29Z</time>
      </trkpt>
      <trkpt lat="46.08116" lon="6.80403">
        <ele>1455</ele>
        <time>2018-03-04T13:46:30Z</time>
      </trkpt>
      <trkpt lat="46.08114" lon="6.80405">
        <ele>1455</ele>
        <time>2018-03-04T13:46:31Z</time>
      </trkpt>
      <trkpt lat="46.08113" lon="6.80406">
        <ele>1455</ele>
        <time>2018-03-04T13:46:32Z</time>
      </trkpt>
      <trkpt lat="46.08112" lon="6.80406">
        <ele>1455</ele>
        <time>2018-03-04T13:46:34Z</time>
      </trkpt>
      <trkpt lat="46.08111" lon="6.80409">
        <ele>1455</ele>
        <time>2018-03-04T13:46:37Z</time>
      </trkpt>
      <trkpt lat="46.0811" lon="6.8041">
        <ele>1455</ele>
        <time>2018-03-04T13:46:38Z</time>
      </trkpt>
      <trkpt lat="46.08108" lon="6.80411">
        <ele>1455</ele>
        <time>2018-03-04T13:46:39Z</time>
      </trkpt>
      <trkpt lat="46.08105" lon="6.8041">
        <ele>1455</ele>
        <time>2018-03-04T13:46:40Z</time>
      </trkpt>
      <trkpt lat="46.08103" lon="6.80411">
        <ele>1454</ele>
        <time>2018-03-04T13:46:41Z</time>
      </trkpt>
      <trkpt lat="46.08101" lon="6.80415">
        <ele>1454</ele>
        <time>2018-03-04T13:46:42Z</time>
      </trkpt>
      <trkpt lat="46.08098" lon="6.80418">
        <ele>1459</ele>
        <time>2018-03-04T13:46:43Z</time>
      </trkpt>
      <trkpt lat="46.08095" lon="6.80421">
        <ele>1458</ele>
        <time>2018-03-04T13:46:44Z</time>
      </trkpt>
      <trkpt lat="46.08092" lon="6.80425">
        <ele>1458</ele>
        <time>2018-03-04T13:46:45Z</time>
      </trkpt>
      <trkpt lat="46.08088" lon="6.80429">
        <ele>1458</ele>
        <time>2018-03-04T13:46:46Z</time>
      </trkpt>
      <trkpt lat="46.08083" lon="6.8043">
        <ele>1451</ele>
        <time>2018-03-04T13:46:47Z</time>
      </trkpt>
      <trkpt lat="46.08079" lon="6.80428">
        <ele>1451</ele>
        <time>2018-03-04T13:46:48Z</time>
      </trkpt>
      <trkpt lat="46.08076" lon="6.80423">
        <ele>1452</ele>
        <time>2018-03-04T13:46:49Z</time>
      </trkpt>
      <trkpt lat="46.08072" lon="6.80419">
        <ele>1451</ele>
        <time>2018-03-04T13:46:50Z</time>
      </trkpt>
      <trkpt lat="46.08068" lon="6.80416">
        <ele>1446</ele>
        <time>2018-03-04T13:46:51Z</time>
      </trkpt>
      <trkpt lat="46.08066" lon="6.80412">
        <ele>1445</ele>
        <time>2018-03-04T13:46:52Z</time>
      </trkpt>
      <trkpt lat="46.08064" lon="6.80409">
        <ele>1444</ele>
        <time>2018-03-04T13:46:53Z</time>
      </trkpt>
      <trkpt lat="46.08052" lon="6.80392">
        <ele>1439</ele>
        <time>2018-03-04T13:46:58Z</time>
      </trkpt>
      <trkpt lat="46.0805" lon="6.8039">
        <ele>1439</ele>
        <time>2018-03-04T13:46:59Z</time>
      </trkpt>
      <trkpt lat="46.08048" lon="6.8039">
        <ele>1438</ele>
        <time>2018-03-04T13:47:00Z</time>
      </trkpt>
      <trkpt lat="46.08046" lon="6.80394">
        <ele>1438</ele>
        <time>2018-03-04T13:47:01Z</time>
      </trkpt>
      <trkpt lat="46.08042" lon="6.80395">
        <ele>1438</ele>
        <time>2018-03-04T13:47:02Z</time>
      </trkpt>
      <trkpt lat="46.08038" lon="6.80395">
        <ele>1437</ele>
        <time>2018-03-04T13:47:03Z</time>
      </trkpt>
      <trkpt lat="46.08034" lon="6.80394">
        <ele>1437</ele>
        <time>2018-03-04T13:47:04Z</time>
      </trkpt>
      <trkpt lat="46.08031" lon="6.80392">
        <ele>1436</ele>
        <time>2018-03-04T13:47:05Z</time>
      </trkpt>
      <trkpt lat="46.0803" lon="6.80389">
        <ele>1436</ele>
        <time>2018-03-04T13:47:06Z</time>
      </trkpt>
      <trkpt lat="46.08028" lon="6.80386">
        <ele>1435</ele>
        <time>2018-03-04T13:47:07Z</time>
      </trkpt>
      <trkpt lat="46.08026" lon="6.80384">
        <ele>1435</ele>
        <time>2018-03-04T13:47:08Z</time>
      </trkpt>
      <trkpt lat="46.08026" lon="6.80383">
        <ele>1435</ele>
        <time>2018-03-04T13:47:10Z</time>
      </trkpt>
      <trkpt lat="46.0802" lon="6.80387">
        <ele>1435</ele>
        <time>2018-03-04T13:47:19Z</time>
      </trkpt>
      <trkpt lat="46.08018" lon="6.80388">
        <ele>1435</ele>
        <time>2018-03-04T13:47:20Z</time>
      </trkpt>
      <trkpt lat="46.08014" lon="6.8039">
        <ele>1435</ele>
        <time>2018-03-04T13:47:21Z</time>
      </trkpt>
      <trkpt lat="46.0801" lon="6.80391">
        <ele>1434</ele>
        <time>2018-03-04T13:47:22Z</time>
      </trkpt>
      <trkpt lat="46.08006" lon="6.80393">
        <ele>1434</ele>
        <time>2018-03-04T13:47:23Z</time>
      </trkpt>
      <trkpt lat="46.07999" lon="6.80394">
        <ele>1423</ele>
        <time>2018-03-04T13:47:26Z</time>
      </trkpt>
      <trkpt lat="46.07996" lon="6.80394">
        <ele>1423</ele>
        <time>2018-03-04T13:47:27Z</time>
      </trkpt>
      <trkpt lat="46.07995" lon="6.80394">
        <ele>1423</ele>
        <time>2018-03-04T13:47:28Z</time>
      </trkpt>
      <trkpt lat="46.07993" lon="6.80393">
        <ele>1422</ele>
        <time>2018-03-04T13:47:29Z</time>
      </trkpt>
      <trkpt lat="46.07994" lon="6.8039">
        <ele>1422</ele>
        <time>2018-03-04T13:47:30Z</time>
      </trkpt>
      <trkpt lat="46.07994" lon="6.80387">
        <ele>1421</ele>
        <time>2018-03-04T13:47:31Z</time>
      </trkpt>
      <trkpt lat="46.07994" lon="6.80383">
        <ele>1420</ele>
        <time>2018-03-04T13:47:32Z</time>
      </trkpt>
      <trkpt lat="46.07991" lon="6.80382">
        <ele>1420</ele>
        <time>2018-03-04T13:47:33Z</time>
      </trkpt>
      <trkpt lat="46.07988" lon="6.80382">
        <ele>1419</ele>
        <time>2018-03-04T13:47:34Z</time>
      </trkpt>
      <trkpt lat="46.07985" lon="6.80382">
        <ele>1419</ele>
        <time>2018-03-04T13:47:35Z</time>
      </trkpt>
      <trkpt lat="46.07983" lon="6.80383">
        <ele>1419</ele>
        <time>2018-03-04T13:47:36Z</time>
      </trkpt>
      <trkpt lat="46.0798" lon="6.80384">
        <ele>1419</ele>
        <time>2018-03-04T13:47:37Z</time>
      </trkpt>
      <trkpt lat="46.07977" lon="6.80383">
        <ele>1418</ele>
        <time>2018-03-04T13:47:38Z</time>
      </trkpt>
      <trkpt lat="46.07973" lon="6.80383">
        <ele>1418</ele>
        <time>2018-03-04T13:47:39Z</time>
      </trkpt>
      <trkpt lat="46.07969" lon="6.80384">
        <ele>1417</ele>
        <time>2018-03-04T13:47:40Z</time>
      </trkpt>
      <trkpt lat="46.07965" lon="6.80385">
        <ele>1417</ele>
        <time>2018-03-04T13:47:41Z</time>
      </trkpt>
      <trkpt lat="46.07959" lon="6.80386">
        <ele>1416</ele>
        <time>2018-03-04T13:47:42Z</time>
      </trkpt>
      <trkpt lat="46.07939" lon="6.80387">
        <ele>1413</ele>
        <time>2018-03-04T13:47:45Z</time>
      </trkpt>
      <trkpt lat="46.07936" lon="6.80385">
        <ele>1413</ele>
        <time>2018-03-04T13:47:46Z</time>
      </trkpt>
      <trkpt lat="46.07926" lon="6.80377">
        <ele>1411</ele>
        <time>2018-03-04T13:47:51Z</time>
      </trkpt>
      <trkpt lat="46.07925" lon="6.80376">
        <ele>1411</ele>
        <time>2018-03-04T13:47:52Z</time>
      </trkpt>
      <trkpt lat="46.07922" lon="6.80378">
        <ele>1411</ele>
        <time>2018-03-04T13:47:53Z</time>
      </trkpt>
      <trkpt lat="46.0792" lon="6.80379">
        <ele>1411</ele>
        <time>2018-03-04T13:47:54Z</time>
      </trkpt>
      <trkpt lat="46.07917" lon="6.80379">
        <ele>1411</ele>
        <time>2018-03-04T13:47:55Z</time>
      </trkpt>
      <trkpt lat="46.07914" lon="6.80378">
        <ele>1396</ele>
        <time>2018-03-04T13:47:56Z</time>
      </trkpt>
      <trkpt lat="46.0791" lon="6.80376">
        <ele>1396</ele>
        <time>2018-03-04T13:47:57Z</time>
      </trkpt>
      <trkpt lat="46.07907" lon="6.80375">
        <ele>1395</ele>
        <time>2018-03-04T13:47:58Z</time>
      </trkpt>
      <trkpt lat="46.07902" lon="6.80374">
        <ele>1395</ele>
        <time>2018-03-04T13:47:59Z</time>
      </trkpt>
      <trkpt lat="46.07899" lon="6.80373">
        <ele>1394</ele>
        <time>2018-03-04T13:48:00Z</time>
      </trkpt>
      <trkpt lat="46.07885" lon="6.80374">
        <ele>1392</ele>
        <time>2018-03-04T13:48:04Z</time>
      </trkpt>
      <trkpt lat="46.07882" lon="6.80372">
        <ele>1392</ele>
        <time>2018-03-04T13:48:05Z</time>
      </trkpt>
      <trkpt lat="46.07879" lon="6.80369">
        <ele>1391</ele>
        <time>2018-03-04T13:48:06Z</time>
      </trkpt>
      <trkpt lat="46.07877" lon="6.80367">
        <ele>1390</ele>
        <time>2018-03-04T13:48:07Z</time>
      </trkpt>
      <trkpt lat="46.07875" lon="6.80364">
        <ele>1390</ele>
        <time>2018-03-04T13:48:08Z</time>
      </trkpt>
      <trkpt lat="46.07874" lon="6.80361">
        <ele>1389</ele>
        <time>2018-03-04T13:48:09Z</time>
      </trkpt>
      <trkpt lat="46.07872" lon="6.80358">
        <ele>1389</ele>
        <time>2018-03-04T13:48:10Z</time>
      </trkpt>
      <trkpt lat="46.0787" lon="6.80356">
        <ele>1388</ele>
        <time>2018-03-04T13:48:11Z</time>
      </trkpt>
      <trkpt lat="46.07867" lon="6.80352">
        <ele>1387</ele>
        <time>2018-03-04T13:48:12Z</time>
      </trkpt>
      <trkpt lat="46.07865" lon="6.80349">
        <ele>1386</ele>
        <time>2018-03-04T13:48:13Z</time>
      </trkpt>
      <trkpt lat="46.07863" lon="6.80344">
        <ele>1385</ele>
        <time>2018-03-04T13:48:14Z</time>
      </trkpt>
      <trkpt lat="46.0786" lon="6.80339">
        <ele>1384</ele>
        <time>2018-03-04T13:48:15Z</time>
      </trkpt>
      <trkpt lat="46.07857" lon="6.80334">
        <ele>1382</ele>
        <time>2018-03-04T13:48:16Z</time>
      </trkpt>
      <trkpt lat="46.07854" lon="6.8033">
        <ele>1373</ele>
        <time>2018-03-04T13:48:17Z</time>
      </trkpt>
      <trkpt lat="46.07851" lon="6.80326">
        <ele>1372</ele>
        <time>2018-03-04T13:48:18Z</time>
      </trkpt>
      <trkpt lat="46.07848" lon="6.80324">
        <ele>1372</ele>
        <time>2018-03-04T13:48:19Z</time>
      </trkpt>
      <trkpt lat="46.07845" lon="6.80322">
        <ele>1371</ele>
        <time>2018-03-04T13:48:20Z</time>
      </trkpt>
      <trkpt lat="46.07841" lon="6.8032">
        <ele>1371</ele>
        <time>2018-03-04T13:48:21Z</time>
      </trkpt>
      <trkpt lat="46.07837" lon="6.80319">
        <ele>1371</ele>
        <time>2018-03-04T13:48:22Z</time>
      </trkpt>
      <trkpt lat="46.0782" lon="6.80315">
        <ele>1358</ele>
        <time>2018-03-04T13:48:26Z</time>
      </trkpt>
      <trkpt lat="46.07815" lon="6.80313">
        <ele>1357</ele>
        <time>2018-03-04T13:48:27Z</time>
      </trkpt>
      <trkpt lat="46.07807" lon="6.80307">
        <ele>1355</ele>
        <time>2018-03-04T13:48:29Z</time>
      </trkpt>
      <trkpt lat="46.07806" lon="6.80302">
        <ele>1354</ele>
        <time>2018-03-04T13:48:30Z</time>
      </trkpt>
      <trkpt lat="46.07805" lon="6.80298">
        <ele>1353</ele>
        <time>2018-03-04T13:48:31Z</time>
      </trkpt>
      <trkpt lat="46.07805" lon="6.80295">
        <ele>1353</ele>
        <time>2018-03-04T13:48:32Z</time>
      </trkpt>
      <trkpt lat="46.07805" lon="6.80294">
        <ele>1353</ele>
        <time>2018-03-04T13:48:33Z</time>
      </trkpt>
      <trkpt lat="46.07805" lon="6.80295">
        <ele>1353</ele>
        <time>2018-03-04T13:48:35Z</time>
      </trkpt>
      <trkpt lat="46.07803" lon="6.80287">
        <ele>1352</ele>
        <time>2018-03-04T13:48:45Z</time>
      </trkpt>
      <trkpt lat="46.07796" lon="6.80278">
        <ele>1350</ele>
        <time>2018-03-04T13:48:48Z</time>
      </trkpt>
      <trkpt lat="46.07795" lon="6.80272">
        <ele>1350</ele>
        <time>2018-03-04T13:48:49Z</time>
      </trkpt>
      <trkpt lat="46.07793" lon="6.80265">
        <ele>1349</ele>
        <time>2018-03-04T13:48:50Z</time>
      </trkpt>
      <trkpt lat="46.07791" lon="6.8026">
        <ele>1348</ele>
        <time>2018-03-04T13:48:51Z</time>
      </trkpt>
      <trkpt lat="46.07787" lon="6.80254">
        <ele>1347</ele>
        <time>2018-03-04T13:48:52Z</time>
      </trkpt>
      <trkpt lat="46.07784" lon="6.8025">
        <ele>1338</ele>
        <time>2018-03-04T13:48:53Z</time>
      </trkpt>
      <trkpt lat="46.0778" lon="6.80246">
        <ele>1337</ele>
        <time>2018-03-04T13:48:54Z</time>
      </trkpt>
      <trkpt lat="46.07777" lon="6.80242">
        <ele>1337</ele>
        <time>2018-03-04T13:48:55Z</time>
      </trkpt>
      <trkpt lat="46.07771" lon="6.80236">
        <ele>1336</ele>
        <time>2018-03-04T13:48:57Z</time>
      </trkpt>
      <trkpt lat="46.07768" lon="6.80233">
        <ele>1336</ele>
        <time>2018-03-04T13:48:58Z</time>
      </trkpt>
      <trkpt lat="46.07765" lon="6.80231">
        <ele>1336</ele>
        <time>2018-03-04T13:48:59Z</time>
      </trkpt>
      <trkpt lat="46.07762" lon="6.80228">
        <ele>1335</ele>
        <time>2018-03-04T13:49:00Z</time>
      </trkpt>
      <trkpt lat="46.07759" lon="6.80224">
        <ele>1335</ele>
        <time>2018-03-04T13:49:01Z</time>
      </trkpt>
      <trkpt lat="46.07755" lon="6.80221">
        <ele>1335</ele>
        <time>2018-03-04T13:49:02Z</time>
      </trkpt>
      <trkpt lat="46.07752" lon="6.80218">
        <ele>1335</ele>
        <time>2018-03-04T13:49:03Z</time>
      </trkpt>
      <trkpt lat="46.07748" lon="6.80214">
        <ele>1325</ele>
        <time>2018-03-04T13:49:04Z</time>
      </trkpt>
      <trkpt lat="46.07746" lon="6.8021">
        <ele>1324</ele>
        <time>2018-03-04T13:49:05Z</time>
      </trkpt>
      <trkpt lat="46.07736" lon="6.80196">
        <ele>1323</ele>
        <time>2018-03-04T13:49:09Z</time>
      </trkpt>
      <trkpt lat="46.07727" lon="6.80185">
        <ele>1322</ele>
        <time>2018-03-04T13:49:12Z</time>
      </trkpt>
      <trkpt lat="46.07724" lon="6.80182">
        <ele>1322</ele>
        <time>2018-03-04T13:49:13Z</time>
      </trkpt>
      <trkpt lat="46.07716" lon="6.80173">
        <ele>1321</ele>
        <time>2018-03-04T13:49:15Z</time>
      </trkpt>
      <trkpt lat="46.07705" lon="6.80163">
        <ele>1311</ele>
        <time>2018-03-04T13:49:18Z</time>
      </trkpt>
      <trkpt lat="46.07694" lon="6.80152">
        <ele>1309</ele>
        <time>2018-03-04T13:49:21Z</time>
      </trkpt>
      <trkpt lat="46.07691" lon="6.80148">
        <ele>1309</ele>
        <time>2018-03-04T13:49:22Z</time>
      </trkpt>
      <trkpt lat="46.07687" lon="6.80145">
        <ele>1308</ele>
        <time>2018-03-04T13:49:23Z</time>
      </trkpt>
      <trkpt lat="46.07684" lon="6.80142">
        <ele>1308</ele>
        <time>2018-03-04T13:49:24Z</time>
      </trkpt>
      <trkpt lat="46.0768" lon="6.80139">
        <ele>1307</ele>
        <time>2018-03-04T13:49:25Z</time>
      </trkpt>
      <trkpt lat="46.07676" lon="6.80138">
        <ele>1307</ele>
        <time>2018-03-04T13:49:26Z</time>
      </trkpt>
      <trkpt lat="46.07674" lon="6.80136">
        <ele>1307</ele>
        <time>2018-03-04T13:49:27Z</time>
      </trkpt>
      <trkpt lat="46.07671" lon="6.80135">
        <ele>1307</ele>
        <time>2018-03-04T13:49:28Z</time>
      </trkpt>
      <trkpt lat="46.07669" lon="6.80134">
        <ele>1306</ele>
        <time>2018-03-04T13:49:29Z</time>
      </trkpt>
      <trkpt lat="46.07662" lon="6.80132">
        <ele>1294</ele>
        <time>2018-03-04T13:49:31Z</time>
      </trkpt>
      <trkpt lat="46.07659" lon="6.80127">
        <ele>1293</ele>
        <time>2018-03-04T13:49:32Z</time>
      </trkpt>
      <trkpt lat="46.07657" lon="6.80122">
        <ele>1293</ele>
        <time>2018-03-04T13:49:33Z</time>
      </trkpt>
      <trkpt lat="46.07658" lon="6.80117">
        <ele>1292</ele>
        <time>2018-03-04T13:49:34Z</time>
      </trkpt>
      <trkpt lat="46.07661" lon="6.80113">
        <ele>1292</ele>
        <time>2018-03-04T13:49:35Z</time>
      </trkpt>
      <trkpt lat="46.07663" lon="6.80111">
        <ele>1292</ele>
        <time>2018-03-04T13:49:36Z</time>
      </trkpt>
      <trkpt lat="46.07666" lon="6.80109">
        <ele>1292</ele>
        <time>2018-03-04T13:49:37Z</time>
      </trkpt>
      <trkpt lat="46.07669" lon="6.80108">
        <ele>1303</ele>
        <time>2018-03-04T13:49:38Z</time>
      </trkpt>
      <trkpt lat="46.07683" lon="6.80102">
        <ele>1303</ele>
        <time>2018-03-04T13:49:42Z</time>
      </trkpt>
      <trkpt lat="46.07686" lon="6.80098">
        <ele>1303</ele>
        <time>2018-03-04T13:49:43Z</time>
      </trkpt>
      <trkpt lat="46.0769" lon="6.80094">
        <ele>1304</ele>
        <time>2018-03-04T13:49:44Z</time>
      </trkpt>
      <trkpt lat="46.07693" lon="6.80089">
        <ele>1304</ele>
        <time>2018-03-04T13:49:45Z</time>
      </trkpt>
      <trkpt lat="46.07696" lon="6.80083">
        <ele>1299</ele>
        <time>2018-03-04T13:49:46Z</time>
      </trkpt>
      <trkpt lat="46.07699" lon="6.80077">
        <ele>1299</ele>
        <time>2018-03-04T13:49:47Z</time>
      </trkpt>
      <trkpt lat="46.07701" lon="6.80071">
        <ele>1300</ele>
        <time>2018-03-04T13:49:48Z</time>
      </trkpt>
      <trkpt lat="46.07708" lon="6.80055">
        <ele>1300</ele>
        <time>2018-03-04T13:49:51Z</time>
      </trkpt>
      <trkpt lat="46.07708" lon="6.80051">
        <ele>1300</ele>
        <time>2018-03-04T13:49:52Z</time>
      </trkpt>
      <trkpt lat="46.07707" lon="6.80047">
        <ele>1300</ele>
        <time>2018-03-04T13:49:53Z</time>
      </trkpt>
      <trkpt lat="46.07707" lon="6.80044">
        <ele>1300</ele>
        <time>2018-03-04T13:49:54Z</time>
      </trkpt>
      <trkpt lat="46.07707" lon="6.8004">
        <ele>1299</ele>
        <time>2018-03-04T13:49:55Z</time>
      </trkpt>
      <trkpt lat="46.07705" lon="6.80038">
        <ele>1299</ele>
        <time>2018-03-04T13:49:56Z</time>
      </trkpt>
      <trkpt lat="46.07703" lon="6.80037">
        <ele>1299</ele>
        <time>2018-03-04T13:49:57Z</time>
      </trkpt>
      <trkpt lat="46.077" lon="6.80037">
        <ele>1299</ele>
        <time>2018-03-04T13:49:58Z</time>
      </trkpt>
      <trkpt lat="46.07697" lon="6.80037">
        <ele>1298</ele>
        <time>2018-03-04T13:49:59Z</time>
      </trkpt>
      <trkpt lat="46.07688" lon="6.8004">
        <ele>1297</ele>
        <time>2018-03-04T13:50:02Z</time>
      </trkpt>
      <trkpt lat="46.07675" lon="6.80046">
        <ele>1297</ele>
        <time>2018-03-04T13:50:05Z</time>
      </trkpt>
      <trkpt lat="46.07671" lon="6.80048">
        <ele>1296</ele>
        <time>2018-03-04T13:50:06Z</time>
      </trkpt>
      <trkpt lat="46.07668" lon="6.80049">
        <ele>1296</ele>
        <time>2018-03-04T13:50:07Z</time>
      </trkpt>
      <trkpt lat="46.07664" lon="6.8005">
        <ele>1286</ele>
        <time>2018-03-04T13:50:08Z</time>
      </trkpt>
      <trkpt lat="46.0766" lon="6.80051">
        <ele>1286</ele>
        <time>2018-03-04T13:50:09Z</time>
      </trkpt>
      <trkpt lat="46.07656" lon="6.80051">
        <ele>1285</ele>
        <time>2018-03-04T13:50:10Z</time>
      </trkpt>
      <trkpt lat="46.07652" lon="6.80052">
        <ele>1285</ele>
        <time>2018-03-04T13:50:11Z</time>
      </trkpt>
      <trkpt lat="46.07649" lon="6.80053">
        <ele>1285</ele>
        <time>2018-03-04T13:50:12Z</time>
      </trkpt>
      <trkpt lat="46.07645" lon="6.80054">
        <ele>1285</ele>
        <time>2018-03-04T13:50:13Z</time>
      </trkpt>
      <trkpt lat="46.07641" lon="6.80055">
        <ele>1284</ele>
        <time>2018-03-04T13:50:14Z</time>
      </trkpt>
      <trkpt lat="46.07638" lon="6.80056">
        <ele>1284</ele>
        <time>2018-03-04T13:50:15Z</time>
      </trkpt>
      <trkpt lat="46.0762" lon="6.80053">
        <ele>1282</ele>
        <time>2018-03-04T13:50:20Z</time>
      </trkpt>
      <trkpt lat="46.07605" lon="6.80048">
        <ele>1281</ele>
        <time>2018-03-04T13:50:24Z</time>
      </trkpt>
      <trkpt lat="46.07602" lon="6.80047">
        <ele>1281</ele>
        <time>2018-03-04T13:50:25Z</time>
      </trkpt>
      <trkpt lat="46.07598" lon="6.80046">
        <ele>1280</ele>
        <time>2018-03-04T13:50:26Z</time>
      </trkpt>
      <trkpt lat="46.07594" lon="6.80044">
        <ele>1280</ele>
        <time>2018-03-04T13:50:27Z</time>
      </trkpt>
      <trkpt lat="46.07589" lon="6.80043">
        <ele>1280</ele>
        <time>2018-03-04T13:50:28Z</time>
      </trkpt>
      <trkpt lat="46.07584" lon="6.80042">
        <ele>1279</ele>
        <time>2018-03-04T13:50:29Z</time>
      </trkpt>
      <trkpt lat="46.07579" lon="6.8004">
        <ele>1268</ele>
        <time>2018-03-04T13:50:30Z</time>
      </trkpt>
      <trkpt lat="46.07575" lon="6.80039">
        <ele>1268</ele>
        <time>2018-03-04T13:50:31Z</time>
      </trkpt>
      <trkpt lat="46.07571" lon="6.80038">
        <ele>1267</ele>
        <time>2018-03-04T13:50:32Z</time>
      </trkpt>
      <trkpt lat="46.07554" lon="6.80033">
        <ele>1265</ele>
        <time>2018-03-04T13:50:36Z</time>
      </trkpt>
      <trkpt lat="46.0755" lon="6.80032">
        <ele>1265</ele>
        <time>2018-03-04T13:50:37Z</time>
      </trkpt>
      <trkpt lat="46.07531" lon="6.80028">
        <ele>1262</ele>
        <time>2018-03-04T13:50:42Z</time>
      </trkpt>
      <trkpt lat="46.07517" lon="6.80024">
        <ele>1260</ele>
        <time>2018-03-04T13:50:46Z</time>
      </trkpt>
      <trkpt lat="46.075" lon="6.80019">
        <ele>1243</ele>
        <time>2018-03-04T13:50:52Z</time>
      </trkpt>
      <trkpt lat="46.07484" lon="6.80016">
        <ele>1241</ele>
        <time>2018-03-04T13:50:57Z</time>
      </trkpt>
      <trkpt lat="46.07468" lon="6.80015">
        <ele>1237</ele>
        <time>2018-03-04T13:51:02Z</time>
      </trkpt>
      <trkpt lat="46.0746" lon="6.80017">
        <ele>1234</ele>
        <time>2018-03-04T13:51:05Z</time>
      </trkpt>
      <trkpt lat="46.07459" lon="6.80019">
        <ele>1234</ele>
        <time>2018-03-04T13:51:06Z</time>
      </trkpt>
      <trkpt lat="46.07458" lon="6.8002">
        <ele>1234</ele>
        <time>2018-03-04T13:51:07Z</time>
      </trkpt>
      <trkpt lat="46.07458" lon="6.8002">
        <ele>1234</ele>
        <time>2018-03-04T13:51:08Z</time>
      </trkpt>
      <trkpt lat="46.07458" lon="6.80023">
        <ele>1234</ele>
        <time>2018-03-04T13:51:09Z</time>
      </trkpt>
      <trkpt lat="46.07462" lon="6.80038">
        <ele>1235</ele>
        <time>2018-03-04T13:51:13Z</time>
      </trkpt>
      <trkpt lat="46.07464" lon="6.80059">
        <ele>1236</ele>
        <time>2018-03-04T13:51:18Z</time>
      </trkpt>
      <trkpt lat="46.07466" lon="6.80082">
        <ele>1238</ele>
        <time>2018-03-04T13:51:23Z</time>
      </trkpt>
      <trkpt lat="46.07468" lon="6.8011">
        <ele>1239</ele>
        <time>2018-03-04T13:51:29Z</time>
      </trkpt>
      <trkpt lat="46.07467" lon="6.80114">
        <ele>1239</ele>
        <time>2018-03-04T13:51:30Z</time>
      </trkpt>
      <trkpt lat="46.07465" lon="6.80116">
        <ele>1238</ele>
        <time>2018-03-04T13:51:31Z</time>
      </trkpt>
      <trkpt lat="46.07464" lon="6.80116">
        <ele>1238</ele>
        <time>2018-03-04T13:51:32Z</time>
      </trkpt>
      <trkpt lat="46.07463" lon="6.80116">
        <ele>1238</ele>
        <time>2018-03-04T13:51:33Z</time>
      </trkpt>
      <trkpt lat="46.07449" lon="6.80122">
        <ele>1233</ele>
        <time>2018-03-04T13:51:42Z</time>
      </trkpt>
      <trkpt lat="46.07433" lon="6.80127">
        <ele>1229</ele>
        <time>2018-03-04T13:51:46Z</time>
      </trkpt>
      <trkpt lat="46.07428" lon="6.80129">
        <ele>1228</ele>
        <time>2018-03-04T13:51:47Z</time>
      </trkpt>
      <trkpt lat="46.07425" lon="6.80131">
        <ele>1227</ele>
        <time>2018-03-04T13:51:48Z</time>
      </trkpt>
      <trkpt lat="46.07422" lon="6.80134">
        <ele>1226</ele>
        <time>2018-03-04T13:51:49Z</time>
      </trkpt>
      <trkpt lat="46.07419" lon="6.80137">
        <ele>1225</ele>
        <time>2018-03-04T13:51:50Z</time>
      </trkpt>
      <trkpt lat="46.07418" lon="6.80141">
        <ele>1224</ele>
        <time>2018-03-04T13:51:51Z</time>
      </trkpt>
      <trkpt lat="46.07416" lon="6.80144">
        <ele>1207</ele>
        <time>2018-03-04T13:51:52Z</time>
      </trkpt>
      <trkpt lat="46.07414" lon="6.80148">
        <ele>1207</ele>
        <time>2018-03-04T13:51:53Z</time>
      </trkpt>
      <trkpt lat="46.07412" lon="6.8015">
        <ele>1207</ele>
        <time>2018-03-04T13:51:54Z</time>
      </trkpt>
      <trkpt lat="46.07411" lon="6.8015">
        <ele>1207</ele>
        <time>2018-03-04T13:51:55Z</time>
      </trkpt>
      <trkpt lat="46.0741" lon="6.80151">
        <ele>1207</ele>
        <time>2018-03-04T13:51:56Z</time>
      </trkpt>
      <trkpt lat="46.0741" lon="6.80151">
        <ele>1207</ele>
        <time>2018-03-04T13:51:57Z</time>
      </trkpt>
      <trkpt lat="46.07408" lon="6.8015">
        <ele>1207</ele>
        <time>2018-03-04T13:51:58Z</time>
      </trkpt>
      <trkpt lat="46.07407" lon="6.80148">
        <ele>1207</ele>
        <time>2018-03-04T13:51:59Z</time>
      </trkpt>
      <trkpt lat="46.07406" lon="6.80147">
        <ele>1207</ele>
        <time>2018-03-04T13:52:00Z</time>
      </trkpt>
      <trkpt lat="46.07407" lon="6.80145">
        <ele>1207</ele>
        <time>2018-03-04T13:52:02Z</time>
      </trkpt>
      <trkpt lat="46.07407" lon="6.80144">
        <ele>1207</ele>
        <time>2018-03-04T13:52:03Z</time>
      </trkpt>
      <trkpt lat="46.07406" lon="6.80142">
        <ele>1207</ele>
        <time>2018-03-04T13:52:04Z</time>
      </trkpt>
      <trkpt lat="46.07405" lon="6.80139">
        <ele>1207</ele>
        <time>2018-03-04T13:52:05Z</time>
      </trkpt>
      <trkpt lat="46.07404" lon="6.80135">
        <ele>1207</ele>
        <time>2018-03-04T13:52:06Z</time>
      </trkpt>
      <trkpt lat="46.07403" lon="6.80132">
        <ele>1207</ele>
        <time>2018-03-04T13:52:07Z</time>
      </trkpt>
      <trkpt lat="46.07398" lon="6.80115">
        <ele>1206</ele>
        <time>2018-03-04T13:52:12Z</time>
      </trkpt>
      <trkpt lat="46.07397" lon="6.80112">
        <ele>1207</ele>
        <time>2018-03-04T13:52:13Z</time>
      </trkpt>
      <trkpt lat="46.07396" lon="6.80107">
        <ele>1207</ele>
        <time>2018-03-04T13:52:14Z</time>
      </trkpt>
      <trkpt lat="46.07395" lon="6.80102">
        <ele>1207</ele>
        <time>2018-03-04T13:52:15Z</time>
      </trkpt>
      <trkpt lat="46.07392" lon="6.80099">
        <ele>1206</ele>
        <time>2018-03-04T13:52:16Z</time>
      </trkpt>
      <trkpt lat="46.07389" lon="6.80095">
        <ele>1206</ele>
        <time>2018-03-04T13:52:17Z</time>
      </trkpt>
      <trkpt lat="46.07379" lon="6.80077">
        <ele>1199</ele>
        <time>2018-03-04T13:52:21Z</time>
      </trkpt>
      <trkpt lat="46.07373" lon="6.80066">
        <ele>1198</ele>
        <time>2018-03-04T13:52:28Z</time>
      </trkpt>
      <trkpt lat="46.07372" lon="6.80065">
        <ele>1197</ele>
        <time>2018-03-04T13:52:29Z</time>
      </trkpt>
      <trkpt lat="46.07371" lon="6.80064">
        <ele>1197</ele>
        <time>2018-03-04T13:52:30Z</time>
      </trkpt>
      <trkpt lat="46.07357" lon="6.80055">
        <ele>1194</ele>
        <time>2018-03-04T13:52:35Z</time>
      </trkpt>
      <trkpt lat="46.07346" lon="6.8005">
        <ele>1193</ele>
        <time>2018-03-04T13:52:38Z</time>
      </trkpt>
      <trkpt lat="46.07334" lon="6.80043">
        <ele>1192</ele>
        <time>2018-03-04T13:52:44Z</time>
      </trkpt>
      <trkpt lat="46.07333" lon="6.80039">
        <ele>1177</ele>
        <time>2018-03-04T13:52:46Z</time>
      </trkpt>
      <trkpt lat="46.07331" lon="6.80036">
        <ele>1177</ele>
        <time>2018-03-04T13:52:47Z</time>
      </trkpt>
      <trkpt lat="46.07328" lon="6.80034">
        <ele>1177</ele>
        <time>2018-03-04T13:52:48Z</time>
      </trkpt>
      <trkpt lat="46.07325" lon="6.80032">
        <ele>1177</ele>
        <time>2018-03-04T13:52:49Z</time>
      </trkpt>
      <trkpt lat="46.07321" lon="6.80031">
        <ele>1177</ele>
        <time>2018-03-04T13:52:50Z</time>
      </trkpt>
      <trkpt lat="46.07319" lon="6.80029">
        <ele>1177</ele>
        <time>2018-03-04T13:52:51Z</time>
      </trkpt>
      <trkpt lat="46.07305" lon="6.80027">
        <ele>1175</ele>
        <time>2018-03-04T13:52:55Z</time>
      </trkpt>
      <trkpt lat="46.07298" lon="6.80026">
        <ele>1174</ele>
        <time>2018-03-04T13:52:57Z</time>
      </trkpt>
      <trkpt lat="46.07298" lon="6.80025">
        <ele>1174</ele>
        <time>2018-03-04T13:52:58Z</time>
      </trkpt>
      <trkpt lat="46.07297" lon="6.80024">
        <ele>1174</ele>
        <time>2018-03-04T13:52:59Z</time>
      </trkpt>
      <trkpt lat="46.07297" lon="6.80023">
        <ele>1174</ele>
        <time>2018-03-04T13:53:00Z</time>
      </trkpt>
      <trkpt lat="46.07295" lon="6.80022">
        <ele>1173</ele>
        <time>2018-03-04T13:53:01Z</time>
      </trkpt>
      <trkpt lat="46.07292" lon="6.80022">
        <ele>1173</ele>
        <time>2018-03-04T13:53:02Z</time>
      </trkpt>
      <trkpt lat="46.07291" lon="6.80022">
        <ele>1173</ele>
        <time>2018-03-04T13:53:03Z</time>
      </trkpt>
      <trkpt lat="46.07288" lon="6.80021">
        <ele>1172</ele>
        <time>2018-03-04T13:53:06Z</time>
      </trkpt>
      <trkpt lat="46.07285" lon="6.8002">
        <ele>1171</ele>
        <time>2018-03-04T13:53:07Z</time>
      </trkpt>
      <trkpt lat="46.07283" lon="6.80019">
        <ele>1171</ele>
        <time>2018-03-04T13:53:08Z</time>
      </trkpt>
      <trkpt lat="46.0728" lon="6.80017">
        <ele>1170</ele>
        <time>2018-03-04T13:53:09Z</time>
      </trkpt>
      <trkpt lat="46.07277" lon="6.80016">
        <ele>1169</ele>
        <time>2018-03-04T13:53:10Z</time>
      </trkpt>
      <trkpt lat="46.07275" lon="6.80013">
        <ele>1168</ele>
        <time>2018-03-04T13:53:11Z</time>
      </trkpt>
      <trkpt lat="46.07272" lon="6.8001">
        <ele>1166</ele>
        <time>2018-03-04T13:53:12Z</time>
      </trkpt>
      <trkpt lat="46.07269" lon="6.80007">
        <ele>1165</ele>
        <time>2018-03-04T13:53:13Z</time>
      </trkpt>
      <trkpt lat="46.07267" lon="6.80003">
        <ele>1163</ele>
        <time>2018-03-04T13:53:14Z</time>
      </trkpt>
      <trkpt lat="46.07266" lon="6.8">
        <ele>1158</ele>
        <time>2018-03-04T13:53:15Z</time>
      </trkpt>
      <trkpt lat="46.07265" lon="6.79997">
        <ele>1157</ele>
        <time>2018-03-04T13:53:16Z</time>
      </trkpt>
      <trkpt lat="46.07265" lon="6.79993">
        <ele>1158</ele>
        <time>2018-03-04T13:53:17Z</time>
      </trkpt>
      <trkpt lat="46.07265" lon="6.7999">
        <ele>1158</ele>
        <time>2018-03-04T13:53:18Z</time>
      </trkpt>
      <trkpt lat="46.07265" lon="6.79986">
        <ele>1159</ele>
        <time>2018-03-04T13:53:19Z</time>
      </trkpt>
      <trkpt lat="46.07266" lon="6.79962">
        <ele>1161</ele>
        <time>2018-03-04T13:53:24Z</time>
      </trkpt>
      <trkpt lat="46.07265" lon="6.79939">
        <ele>1159</ele>
        <time>2018-03-04T13:53:28Z</time>
      </trkpt>
      <trkpt lat="46.07263" lon="6.79934">
        <ele>1159</ele>
        <time>2018-03-04T13:53:29Z</time>
      </trkpt>
      <trkpt lat="46.07261" lon="6.79929">
        <ele>1157</ele>
        <time>2018-03-04T13:53:30Z</time>
      </trkpt>
      <trkpt lat="46.0726" lon="6.79924">
        <ele>1156</ele>
        <time>2018-03-04T13:53:31Z</time>
      </trkpt>
      <trkpt lat="46.07259" lon="6.79919">
        <ele>1155</ele>
        <time>2018-03-04T13:53:32Z</time>
      </trkpt>
      <trkpt lat="46.07259" lon="6.79914">
        <ele>1156</ele>
        <time>2018-03-04T13:53:33Z</time>
      </trkpt>
      <trkpt lat="46.07259" lon="6.79908">
        <ele>1157</ele>
        <time>2018-03-04T13:53:34Z</time>
      </trkpt>
      <trkpt lat="46.0726" lon="6.79902">
        <ele>1158</ele>
        <time>2018-03-04T13:53:36Z</time>
      </trkpt>
      <trkpt lat="46.0726" lon="6.799">
        <ele>1159</ele>
        <time>2018-03-04T13:53:37Z</time>
      </trkpt>
      <trkpt lat="46.07261" lon="6.79899">
        <ele>1159</ele>
        <time>2018-03-04T13:53:38Z</time>
      </trkpt>
      <trkpt lat="46.07263" lon="6.79895">
        <ele>1160</ele>
        <time>2018-03-04T13:53:41Z</time>
      </trkpt>
      <trkpt lat="46.07265" lon="6.79888">
        <ele>1161</ele>
        <time>2018-03-04T13:53:44Z</time>
      </trkpt>
      <trkpt lat="46.07275" lon="6.7987">
        <ele>1163</ele>
        <time>2018-03-04T13:53:51Z</time>
      </trkpt>
      <trkpt lat="46.07276" lon="6.79869">
        <ele>1163</ele>
        <time>2018-03-04T13:53:52Z</time>
      </trkpt>
      <trkpt lat="46.07276" lon="6.79867">
        <ele>1163</ele>
        <time>2018-03-04T13:53:53Z</time>
      </trkpt>
      <trkpt lat="46.07278" lon="6.79864">
        <ele>1164</ele>
        <time>2018-03-04T13:53:55Z</time>
      </trkpt>
      <trkpt lat="46.07279" lon="6.79862">
        <ele>1164</ele>
        <time>2018-03-04T13:53:56Z</time>
      </trkpt>
      <trkpt lat="46.07281" lon="6.7986">
        <ele>1164</ele>
        <time>2018-03-04T13:53:57Z</time>
      </trkpt>
      <trkpt lat="46.07282" lon="6.79857">
        <ele>1164</ele>
        <time>2018-03-04T13:53:58Z</time>
      </trkpt>
      <trkpt lat="46.07285" lon="6.79853">
        <ele>1165</ele>
        <time>2018-03-04T13:53:59Z</time>
      </trkpt>
      <trkpt lat="46.07287" lon="6.7985">
        <ele>1165</ele>
        <time>2018-03-04T13:54:00Z</time>
      </trkpt>
      <trkpt lat="46.07301" lon="6.79826">
        <ele>1168</ele>
        <time>2018-03-04T13:54:09Z</time>
      </trkpt>
      <trkpt lat="46.07308" lon="6.79802">
        <ele>1167</ele>
        <time>2018-03-04T13:54:14Z</time>
      </trkpt>
      <trkpt lat="46.0731" lon="6.79779">
        <ele>1166</ele>
        <time>2018-03-04T13:54:18Z</time>
      </trkpt>
      <trkpt lat="46.07309" lon="6.79749">
        <ele>1159</ele>
        <time>2018-03-04T13:54:25Z</time>
      </trkpt>
      <trkpt lat="46.07308" lon="6.79744">
        <ele>1158</ele>
        <time>2018-03-04T13:54:28Z</time>
      </trkpt>
      <trkpt lat="46.07307" lon="6.79743">
        <ele>1158</ele>
        <time>2018-03-04T13:54:29Z</time>
      </trkpt>
      <trkpt lat="46.07303" lon="6.79721">
        <ele>1155</ele>
        <time>2018-03-04T13:54:37Z</time>
      </trkpt>
      <trkpt lat="46.07312" lon="6.79698">
        <ele>1153</ele>
        <time>2018-03-04T13:54:44Z</time>
      </trkpt>
      <trkpt lat="46.07313" lon="6.79695">
        <ele>1153</ele>
        <time>2018-03-04T13:54:45Z</time>
      </trkpt>
      <trkpt lat="46.07313" lon="6.79692">
        <ele>1152</ele>
        <time>2018-03-04T13:54:46Z</time>
      </trkpt>
      <trkpt lat="46.07314" lon="6.79689">
        <ele>1152</ele>
        <time>2018-03-04T13:54:47Z</time>
      </trkpt>
      <trkpt lat="46.07314" lon="6.79686">
        <ele>1152</ele>
        <time>2018-03-04T13:54:48Z</time>
      </trkpt>
      <trkpt lat="46.07314" lon="6.79682">
        <ele>1152</ele>
        <time>2018-03-04T13:54:49Z</time>
      </trkpt>
      <trkpt lat="46.07314" lon="6.79679">
        <ele>1152</ele>
        <time>2018-03-04T13:54:50Z</time>
      </trkpt>
      <trkpt lat="46.07291" lon="6.79635">
        <ele>1135</ele>
        <time>2018-03-04T13:55:05Z</time>
      </trkpt>
      <trkpt lat="46.07281" lon="6.7961">
        <ele>1131</ele>
        <time>2018-03-04T13:55:11Z</time>
      </trkpt>
      <trkpt lat="46.0728" lon="6.79604">
        <ele>1131</ele>
        <time>2018-03-04T13:55:13Z</time>
      </trkpt>
      <trkpt lat="46.07282" lon="6.79587">
        <ele>1129</ele>
        <time>2018-03-04T13:55:18Z</time>
      </trkpt>
      <trkpt lat="46.07291" lon="6.79567">
        <ele>1122</ele>
        <time>2018-03-04T13:55:25Z</time>
      </trkpt>
      <trkpt lat="46.07292" lon="6.79561">
        <ele>1122</ele>
        <time>2018-03-04T13:55:28Z</time>
      </trkpt>
      <trkpt lat="46.07292" lon="6.79556">
        <ele>1121</ele>
        <time>2018-03-04T13:55:31Z</time>
      </trkpt>
      <trkpt lat="46.07291" lon="6.79555">
        <ele>1121</ele>
        <time>2018-03-04T13:55:32Z</time>
      </trkpt>
      <trkpt lat="46.07289" lon="6.79553">
        <ele>1121</ele>
        <time>2018-03-04T13:55:33Z</time>
      </trkpt>
      <trkpt lat="46.07287" lon="6.7955">
        <ele>1120</ele>
        <time>2018-03-04T13:55:34Z</time>
      </trkpt>
      <trkpt lat="46.07284" lon="6.79547">
        <ele>1120</ele>
        <time>2018-03-04T13:55:35Z</time>
      </trkpt>
      <trkpt lat="46.07276" lon="6.79541">
        <ele>1118</ele>
        <time>2018-03-04T13:55:37Z</time>
      </trkpt>
      <trkpt lat="46.0725" lon="6.79532">
        <ele>1115</ele>
        <time>2018-03-04T13:55:45Z</time>
      </trkpt>
      <trkpt lat="46.07232" lon="6.79523">
        <ele>1098</ele>
        <time>2018-03-04T13:55:51Z</time>
      </trkpt>
      <trkpt lat="46.0723" lon="6.7952">
        <ele>1097</ele>
        <time>2018-03-04T13:55:52Z</time>
      </trkpt>
      <trkpt lat="46.07214" lon="6.79502">
        <ele>1094</ele>
        <time>2018-03-04T13:56:00Z</time>
      </trkpt>
      <trkpt lat="46.07212" lon="6.79505">
        <ele>1094</ele>
        <time>2018-03-04T13:56:01Z</time>
      </trkpt>
      <trkpt lat="46.07212" lon="6.79508">
        <ele>1094</ele>
        <time>2018-03-04T13:56:02Z</time>
      </trkpt>
      <trkpt lat="46.07212" lon="6.79512">
        <ele>1094</ele>
        <time>2018-03-04T13:56:03Z</time>
      </trkpt>
      <trkpt lat="46.07211" lon="6.79517">
        <ele>1094</ele>
        <time>2018-03-04T13:56:04Z</time>
      </trkpt>
      <trkpt lat="46.07212" lon="6.79521">
        <ele>1094</ele>
        <time>2018-03-04T13:56:05Z</time>
      </trkpt>
      <trkpt lat="46.07213" lon="6.79526">
        <ele>1095</ele>
        <time>2018-03-04T13:56:06Z</time>
      </trkpt>
      <trkpt lat="46.07219" lon="6.79538">
        <ele>1097</ele>
        <time>2018-03-04T13:56:09Z</time>
      </trkpt>
      <trkpt lat="46.07224" lon="6.79544">
        <ele>1098</ele>
        <time>2018-03-04T13:56:12Z</time>
      </trkpt>
      <trkpt lat="46.07225" lon="6.79552">
        <ele>1099</ele>
        <time>2018-03-04T13:56:14Z</time>
      </trkpt>
      <trkpt lat="46.07223" lon="6.79555">
        <ele>1099</ele>
        <time>2018-03-04T13:56:15Z</time>
      </trkpt>
      <trkpt lat="46.0722" lon="6.79555">
        <ele>1098</ele>
        <time>2018-03-04T13:56:16Z</time>
      </trkpt>
      <trkpt lat="46.07217" lon="6.79554">
        <ele>1098</ele>
        <time>2018-03-04T13:56:17Z</time>
      </trkpt>
      <trkpt lat="46.07214" lon="6.79553">
        <ele>1097</ele>
        <time>2018-03-04T13:56:18Z</time>
      </trkpt>
      <trkpt lat="46.07208" lon="6.7955">
        <ele>1096</ele>
        <time>2018-03-04T13:56:21Z</time>
      </trkpt>
      <trkpt lat="46.07195" lon="6.79544">
        <ele>1093</ele>
        <time>2018-03-04T13:56:26Z</time>
      </trkpt>
      <trkpt lat="46.07183" lon="6.79538">
        <ele>1091</ele>
        <time>2018-03-04T13:56:30Z</time>
      </trkpt>
      <trkpt lat="46.07172" lon="6.79528">
        <ele>1088</ele>
        <time>2018-03-04T13:56:36Z</time>
      </trkpt>
      <trkpt lat="46.07172" lon="6.79523">
        <ele>1087</ele>
        <time>2018-03-04T13:56:43Z</time>
      </trkpt>
      <trkpt lat="46.07171" lon="6.7952">
        <ele>1086</ele>
        <time>2018-03-04T13:56:44Z</time>
      </trkpt>
      <trkpt lat="46.07169" lon="6.79519">
        <ele>1085</ele>
        <time>2018-03-04T13:56:45Z</time>
      </trkpt>
      <trkpt lat="46.07168" lon="6.79518">
        <ele>1085</ele>
        <time>2018-03-04T13:56:46Z</time>
      </trkpt>
      <trkpt lat="46.07166" lon="6.79519">
        <ele>1071</ele>
        <time>2018-03-04T13:56:47Z</time>
      </trkpt>
      <trkpt lat="46.07165" lon="6.79521">
        <ele>1070</ele>
        <time>2018-03-04T13:56:48Z</time>
      </trkpt>
      <trkpt lat="46.07164" lon="6.79523">
        <ele>1070</ele>
        <time>2018-03-04T13:56:49Z</time>
      </trkpt>
      <trkpt lat="46.07164" lon="6.79526">
        <ele>1070</ele>
        <time>2018-03-04T13:56:50Z</time>
      </trkpt>
      <trkpt lat="46.07164" lon="6.79529">
        <ele>1070</ele>
        <time>2018-03-04T13:56:51Z</time>
      </trkpt>
      <trkpt lat="46.07163" lon="6.79531">
        <ele>1070</ele>
        <time>2018-03-04T13:56:52Z</time>
      </trkpt>
      <trkpt lat="46.07162" lon="6.79533">
        <ele>1070</ele>
        <time>2018-03-04T13:56:53Z</time>
      </trkpt>
      <trkpt lat="46.0716" lon="6.79533">
        <ele>1070</ele>
        <time>2018-03-04T13:56:54Z</time>
      </trkpt>
      <trkpt lat="46.0716" lon="6.79533">
        <ele>1070</ele>
        <time>2018-03-04T13:56:55Z</time>
      </trkpt>
      <trkpt lat="46.07158" lon="6.79531">
        <ele>1070</ele>
        <time>2018-03-04T13:56:56Z</time>
      </trkpt>
      <trkpt lat="46.07158" lon="6.79528">
        <ele>1069</ele>
        <time>2018-03-04T13:56:57Z</time>
      </trkpt>
      <trkpt lat="46.07157" lon="6.79526">
        <ele>1069</ele>
        <time>2018-03-04T13:56:58Z</time>
      </trkpt>
      <trkpt lat="46.07156" lon="6.79523">
        <ele>1069</ele>
        <time>2018-03-04T13:56:59Z</time>
      </trkpt>
      <trkpt lat="46.07156" lon="6.79519">
        <ele>1069</ele>
        <time>2018-03-04T13:57:00Z</time>
      </trkpt>
      <trkpt lat="46.07155" lon="6.79514">
        <ele>1070</ele>
        <time>2018-03-04T13:57:01Z</time>
      </trkpt>
      <trkpt lat="46.07154" lon="6.79509">
        <ele>1070</ele>
        <time>2018-03-04T13:57:02Z</time>
      </trkpt>
      <trkpt lat="46.07152" lon="6.79503">
        <ele>1070</ele>
        <time>2018-03-04T13:57:03Z</time>
      </trkpt>
      <trkpt lat="46.0715" lon="6.79498">
        <ele>1065</ele>
        <time>2018-03-04T13:57:04Z</time>
      </trkpt>
      <trkpt lat="46.07148" lon="6.79494">
        <ele>1064</ele>
        <time>2018-03-04T13:57:05Z</time>
      </trkpt>
      <trkpt lat="46.07147" lon="6.7949">
        <ele>1063</ele>
        <time>2018-03-04T13:57:06Z</time>
      </trkpt>
      <trkpt lat="46.07145" lon="6.79487">
        <ele>1062</ele>
        <time>2018-03-04T13:57:07Z</time>
      </trkpt>
      <trkpt lat="46.07143" lon="6.79484">
        <ele>1061</ele>
        <time>2018-03-04T13:57:08Z</time>
      </trkpt>
      <trkpt lat="46.07142" lon="6.79482">
        <ele>1061</ele>
        <time>2018-03-04T13:57:09Z</time>
      </trkpt>
      <trkpt lat="46.07141" lon="6.79481">
        <ele>1061</ele>
        <time>2018-03-04T13:57:10Z</time>
      </trkpt>
      <trkpt lat="46.07138" lon="6.79476">
        <ele>1059</ele>
        <time>2018-03-04T13:57:20Z</time>
      </trkpt>
      <trkpt lat="46.07133" lon="6.79478">
        <ele>1058</ele>
        <time>2018-03-04T13:57:28Z</time>
      </trkpt>
      <trkpt lat="46.07131" lon="6.79479">
        <ele>1058</ele>
        <time>2018-03-04T13:57:29Z</time>
      </trkpt>
      <trkpt lat="46.07126" lon="6.7948">
        <ele>1056</ele>
        <time>2018-03-04T13:57:34Z</time>
      </trkpt>
      <trkpt lat="46.07125" lon="6.79481">
        <ele>1056</ele>
        <time>2018-03-04T13:57:36Z</time>
      </trkpt>
      <trkpt lat="46.07121" lon="6.7948">
        <ele>1055</ele>
        <time>2018-03-04T13:57:39Z</time>
      </trkpt>
      <trkpt lat="46.07119" lon="6.79479">
        <ele>1055</ele>
        <time>2018-03-04T13:57:40Z</time>
      </trkpt>
      <trkpt lat="46.07117" lon="6.79478">
        <ele>1054</ele>
        <time>2018-03-04T13:57:41Z</time>
      </trkpt>
      <trkpt lat="46.07115" lon="6.79476">
        <ele>1054</ele>
        <time>2018-03-04T13:57:42Z</time>
      </trkpt>
      <trkpt lat="46.07113" lon="6.79474">
        <ele>1053</ele>
        <time>2018-03-04T13:57:43Z</time>
      </trkpt>
      <trkpt lat="46.07111" lon="6.79473">
        <ele>1053</ele>
        <time>2018-03-04T13:57:44Z</time>
      </trkpt>
      <trkpt lat="46.07109" lon="6.79471">
        <ele>1052</ele>
        <time>2018-03-04T13:57:45Z</time>
      </trkpt>
      <trkpt lat="46.07106" lon="6.7947">
        <ele>1052</ele>
        <time>2018-03-04T13:57:46Z</time>
      </trkpt>
      <trkpt lat="46.07096" lon="6.7946">
        <ele>1051</ele>
        <time>2018-03-04T13:57:50Z</time>
      </trkpt>
      <trkpt lat="46.07084" lon="6.79441">
        <ele>1048</ele>
        <time>2018-03-04T13:57:56Z</time>
      </trkpt>
      <trkpt lat="46.0708" lon="6.79434">
        <ele>1034</ele>
        <time>2018-03-04T13:57:58Z</time>
      </trkpt>
      <trkpt lat="46.07078" lon="6.79432">
        <ele>1035</ele>
        <time>2018-03-04T13:57:59Z</time>
      </trkpt>
      <trkpt lat="46.07075" lon="6.79432">
        <ele>1034</ele>
        <time>2018-03-04T13:58:00Z</time>
      </trkpt>
      <trkpt lat="46.07073" lon="6.79433">
        <ele>1034</ele>
        <time>2018-03-04T13:58:01Z</time>
      </trkpt>
      <trkpt lat="46.07072" lon="6.79435">
        <ele>1033</ele>
        <time>2018-03-04T13:58:02Z</time>
      </trkpt>
      <trkpt lat="46.07072" lon="6.79438">
        <ele>1033</ele>
        <time>2018-03-04T13:58:04Z</time>
      </trkpt>
      <trkpt lat="46.07072" lon="6.79439">
        <ele>1033</ele>
        <time>2018-03-04T13:58:05Z</time>
      </trkpt>
      <trkpt lat="46.07073" lon="6.7944">
        <ele>1033</ele>
        <time>2018-03-04T13:58:06Z</time>
      </trkpt>
      <trkpt lat="46.07074" lon="6.79445">
        <ele>1032</ele>
        <time>2018-03-04T13:58:13Z</time>
      </trkpt>
      <trkpt lat="46.07076" lon="6.79453">
        <ele>1032</ele>
        <time>2018-03-04T13:58:24Z</time>
      </trkpt>
      <trkpt lat="46.07077" lon="6.79457">
        <ele>1032</ele>
        <time>2018-03-04T13:58:25Z</time>
      </trkpt>
      <trkpt lat="46.07076" lon="6.79461">
        <ele>1032</ele>
        <time>2018-03-04T13:58:26Z</time>
      </trkpt>
      <trkpt lat="46.07076" lon="6.79465">
        <ele>1032</ele>
        <time>2018-03-04T13:58:27Z</time>
      </trkpt>
      <trkpt lat="46.07076" lon="6.7947">
        <ele>1032</ele>
        <time>2018-03-04T13:58:28Z</time>
      </trkpt>
      <trkpt lat="46.07077" lon="6.79474">
        <ele>1032</ele>
        <time>2018-03-04T13:58:29Z</time>
      </trkpt>
      <trkpt lat="46.07078" lon="6.79477">
        <ele>1033</ele>
        <time>2018-03-04T13:58:30Z</time>
      </trkpt>
      <trkpt lat="46.07079" lon="6.7948">
        <ele>1033</ele>
        <time>2018-03-04T13:58:31Z</time>
      </trkpt>
      <trkpt lat="46.07081" lon="6.79482">
        <ele>1034</ele>
        <time>2018-03-04T13:58:34Z</time>
      </trkpt>
      <trkpt lat="46.07082" lon="6.79484">
        <ele>1034</ele>
        <time>2018-03-04T13:58:35Z</time>
      </trkpt>
      <trkpt lat="46.07084" lon="6.79488">
        <ele>1045</ele>
        <time>2018-03-04T13:58:39Z</time>
      </trkpt>
      <trkpt lat="46.07089" lon="6.79505">
        <ele>1045</ele>
        <time>2018-03-04T13:58:44Z</time>
      </trkpt>
      <trkpt lat="46.07088" lon="6.79515">
        <ele>1050</ele>
        <time>2018-03-04T13:58:46Z</time>
      </trkpt>
      <trkpt lat="46.07087" lon="6.79519">
        <ele>1052</ele>
        <time>2018-03-04T13:58:47Z</time>
      </trkpt>
      <trkpt lat="46.07082" lon="6.79544">
        <ele>1041</ele>
        <time>2018-03-04T13:58:53Z</time>
      </trkpt>
      <trkpt lat="46.07078" lon="6.79544">
        <ele>1041</ele>
        <time>2018-03-04T13:58:54Z</time>
      </trkpt>
      <trkpt lat="46.07076" lon="6.79543">
        <ele>1041</ele>
        <time>2018-03-04T13:58:55Z</time>
      </trkpt>
      <trkpt lat="46.07075" lon="6.7954">
        <ele>1040</ele>
        <time>2018-03-04T13:58:57Z</time>
      </trkpt>
      <trkpt lat="46.07074" lon="6.79538">
        <ele>1040</ele>
        <time>2018-03-04T13:58:58Z</time>
      </trkpt>
      <trkpt lat="46.07074" lon="6.79536">
        <ele>1040</ele>
        <time>2018-03-04T13:58:59Z</time>
      </trkpt>
      <trkpt lat="46.07071" lon="6.79526">
        <ele>1039</ele>
        <time>2018-03-04T13:59:03Z</time>
      </trkpt>
      <trkpt lat="46.0707" lon="6.79524">
        <ele>1038</ele>
        <time>2018-03-04T13:59:04Z</time>
      </trkpt>
      <trkpt lat="46.07069" lon="6.79523">
        <ele>1038</ele>
        <time>2018-03-04T13:59:05Z</time>
      </trkpt>
      <trkpt lat="46.07062" lon="6.79518">
        <ele>1037</ele>
        <time>2018-03-04T13:59:07Z</time>
      </trkpt>
      <trkpt lat="46.07058" lon="6.79515">
        <ele>1037</ele>
        <time>2018-03-04T13:59:08Z</time>
      </trkpt>
      <trkpt lat="46.07055" lon="6.79513">
        <ele>1036</ele>
        <time>2018-03-04T13:59:09Z</time>
      </trkpt>
      <trkpt lat="46.07052" lon="6.79511">
        <ele>1036</ele>
        <time>2018-03-04T13:59:10Z</time>
      </trkpt>
      <trkpt lat="46.07049" lon="6.79508">
        <ele>1036</ele>
        <time>2018-03-04T13:59:11Z</time>
      </trkpt>
      <trkpt lat="46.07047" lon="6.79504">
        <ele>1035</ele>
        <time>2018-03-04T13:59:12Z</time>
      </trkpt>
      <trkpt lat="46.07046" lon="6.79502">
        <ele>1035</ele>
        <time>2018-03-04T13:59:13Z</time>
      </trkpt>
      <trkpt lat="46.07028" lon="6.79484">
        <ele>1026</ele>
        <time>2018-03-04T13:59:23Z</time>
      </trkpt>
      <trkpt lat="46.07015" lon="6.79471">
        <ele>1025</ele>
        <time>2018-03-04T13:59:30Z</time>
      </trkpt>
      <trkpt lat="46.07012" lon="6.79467">
        <ele>1025</ele>
        <time>2018-03-04T13:59:33Z</time>
      </trkpt>
      <trkpt lat="46.06998" lon="6.79454">
        <ele>1017</ele>
        <time>2018-03-04T13:59:46Z</time>
      </trkpt>
      <trkpt lat="46.06991" lon="6.79447">
        <ele>1017</ele>
        <time>2018-03-04T13:59:50Z</time>
      </trkpt>
      <trkpt lat="46.0699" lon="6.79446">
        <ele>1017</ele>
        <time>2018-03-04T13:59:51Z</time>
      </trkpt>
      <trkpt lat="46.06989" lon="6.79444">
        <ele>1017</ele>
        <time>2018-03-04T13:59:52Z</time>
      </trkpt>
      <trkpt lat="46.06988" lon="6.7944">
        <ele>1017</ele>
        <time>2018-03-04T13:59:53Z</time>
      </trkpt>
      <trkpt lat="46.06986" lon="6.79434">
        <ele>1016</ele>
        <time>2018-03-04T13:59:54Z</time>
      </trkpt>
      <trkpt lat="46.06985" lon="6.79431">
        <ele>1016</ele>
        <time>2018-03-04T13:59:55Z</time>
      </trkpt>
      <trkpt lat="46.06984" lon="6.79429">
        <ele>1016</ele>
        <time>2018-03-04T13:59:56Z</time>
      </trkpt>
      <trkpt lat="46.06984" lon="6.79425">
        <ele>1016</ele>
        <time>2018-03-04T13:59:58Z</time>
      </trkpt>
      <trkpt lat="46.06983" lon="6.79422">
        <ele>1016</ele>
        <time>2018-03-04T13:59:59Z</time>
      </trkpt>
      <trkpt lat="46.06983" lon="6.79419">
        <ele>1016</ele>
        <time>2018-03-04T14:00:00Z</time>
      </trkpt>
      <trkpt lat="46.06981" lon="6.79416">
        <ele>1015</ele>
        <time>2018-03-04T14:00:01Z</time>
      </trkpt>
      <trkpt lat="46.0698" lon="6.79412">
        <ele>1015</ele>
        <time>2018-03-04T14:00:02Z</time>
      </trkpt>
      <trkpt lat="46.06979" lon="6.79408">
        <ele>1015</ele>
        <time>2018-03-04T14:00:03Z</time>
      </trkpt>
      <trkpt lat="46.06978" lon="6.79406">
        <ele>1015</ele>
        <time>2018-03-04T14:00:04Z</time>
      </trkpt>
      <trkpt lat="46.06977" lon="6.79402">
        <ele>1015</ele>
        <time>2018-03-04T14:00:07Z</time>
      </trkpt>
      <trkpt lat="46.06976" lon="6.79399">
        <ele>1015</ele>
        <time>2018-03-04T14:00:08Z</time>
      </trkpt>
      <trkpt lat="46.06976" lon="6.79397">
        <ele>1014</ele>
        <time>2018-03-04T14:00:09Z</time>
      </trkpt>
      <trkpt lat="46.06975" lon="6.79395">
        <ele>1014</ele>
        <time>2018-03-04T14:00:10Z</time>
      </trkpt>
      <trkpt lat="46.06974" lon="6.79393">
        <ele>1014</ele>
        <time>2018-03-04T14:00:11Z</time>
      </trkpt>
      <trkpt lat="46.06973" lon="6.79389">
        <ele>1014</ele>
        <time>2018-03-04T14:00:15Z</time>
      </trkpt>
      <trkpt lat="46.06972" lon="6.79385">
        <ele>1014</ele>
        <time>2018-03-04T14:00:26Z</time>
      </trkpt>
      <trkpt lat="46.06971" lon="6.79383">
        <ele>1014</ele>
        <time>2018-03-04T14:00:33Z</time>
      </trkpt>
      <trkpt lat="46.0697" lon="6.79381">
        <ele>1014</ele>
        <time>2018-03-04T14:00:34Z</time>
      </trkpt>
      <trkpt lat="46.06968" lon="6.79379">
        <ele>1014</ele>
        <time>2018-03-04T14:00:35Z</time>
      </trkpt>
      <trkpt lat="46.06967" lon="6.79378">
        <ele>1014</ele>
        <time>2018-03-04T14:00:36Z</time>
      </trkpt>
      <trkpt lat="46.06966" lon="6.79377">
        <ele>1014</ele>
        <time>2018-03-04T14:00:38Z</time>
      </trkpt>
      <trkpt lat="46.06965" lon="6.79384">
        <ele>1014</ele>
        <time>2018-03-04T14:00:40Z</time>
      </trkpt>
      <trkpt lat="46.06964" lon="6.794">
        <ele>1014</ele>
        <time>2018-03-04T14:00:45Z</time>
      </trkpt>
      <trkpt lat="46.06964" lon="6.79417">
        <ele>1016</ele>
        <time>2018-03-04T14:00:55Z</time>
      </trkpt>
      <trkpt lat="46.06965" lon="6.79424">
        <ele>1016</ele>
        <time>2018-03-04T14:01:00Z</time>
      </trkpt>
      <trkpt lat="46.06966" lon="6.79429">
        <ele>1016</ele>
        <time>2018-03-04T14:01:01Z</time>
      </trkpt>
      <trkpt lat="46.06967" lon="6.79446">
        <ele>1017</ele>
        <time>2018-03-04T14:01:08Z</time>
      </trkpt>
      <trkpt lat="46.06967" lon="6.79448">
        <ele>1017</ele>
        <time>2018-03-04T14:01:09Z</time>
      </trkpt>
      <trkpt lat="46.06967" lon="6.79458">
        <ele>1017</ele>
        <time>2018-03-04T14:01:14Z</time>
      </trkpt>
      <trkpt lat="46.06967" lon="6.79461">
        <ele>1017</ele>
        <time>2018-03-04T14:01:15Z</time>
      </trkpt>
      <trkpt lat="46.06968" lon="6.79464">
        <ele>1017</ele>
        <time>2018-03-04T14:01:16Z</time>
      </trkpt>
      <trkpt lat="46.06967" lon="6.79474">
        <ele>1017</ele>
        <time>2018-03-04T14:01:18Z</time>
      </trkpt>
      <trkpt lat="46.06957" lon="6.79499">
        <ele>1017</ele>
        <time>2018-03-04T14:01:26Z</time>
      </trkpt>
      <trkpt lat="46.06956" lon="6.79513">
        <ele>1021</ele>
        <time>2018-03-04T14:01:31Z</time>
      </trkpt>
      <trkpt lat="46.06955" lon="6.79516">
        <ele>1021</ele>
        <time>2018-03-04T14:01:33Z</time>
      </trkpt>
      <trkpt lat="46.06949" lon="6.79524">
        <ele>1022</ele>
        <time>2018-03-04T14:01:41Z</time>
      </trkpt>
      <trkpt lat="46.06949" lon="6.79523">
        <ele>1022</ele>
        <time>2018-03-04T14:01:42Z</time>
      </trkpt>
      <trkpt lat="46.06946" lon="6.79522">
        <ele>1021</ele>
        <time>2018-03-04T14:02:13Z</time>
      </trkpt>
      <trkpt lat="46.06945" lon="6.79523">
        <ele>1021</ele>
        <time>2018-03-04T14:02:17Z</time>
      </trkpt>
      <trkpt lat="46.06943" lon="6.79522">
        <ele>1021</ele>
        <time>2018-03-04T14:02:23Z</time>
      </trkpt>
      <trkpt lat="46.06942" lon="6.79518">
        <ele>1021</ele>
        <time>2018-03-04T14:02:33Z</time>
      </trkpt>
      <trkpt lat="46.06939" lon="6.79512">
        <ele>1020</ele>
        <time>2018-03-04T14:02:56Z</time>
      </trkpt>
      <trkpt lat="46.0694" lon="6.79512">
        <ele>1020</ele>
        <time>2018-03-04T14:03:03Z</time>
      </trkpt>
      <trkpt lat="46.0694" lon="6.79511">
        <ele>1020</ele>
        <time>2018-03-04T14:03:05Z</time>
      </trkpt>
      <trkpt lat="46.06941" lon="6.79511">
        <ele>1021</ele>
        <time>2018-03-04T14:03:09Z</time>
      </trkpt>
      <trkpt lat="46.06944" lon="6.79508">
        <ele>1021</ele>
        <time>2018-03-04T14:03:15Z</time>
      </trkpt>
      <trkpt lat="46.06945" lon="6.79506">
        <ele>1021</ele>
        <time>2018-03-04T14:03:17Z</time>
      </trkpt>
      <trkpt lat="46.06946" lon="6.79505">
        <ele>1021</ele>
        <time>2018-03-04T14:03:19Z</time>
      </trkpt>
      <trkpt lat="46.0695" lon="6.79504">
        <ele>1021</ele>
        <time>2018-03-04T14:03:39Z</time>
      </trkpt>
      <trkpt lat="46.06949" lon="6.79502">
        <ele>1021</ele>
        <time>2018-03-04T14:03:49Z</time>
      </trkpt>
      <trkpt lat="46.06949" lon="6.79503">
        <ele>1021</ele>
        <time>2018-03-04T14:04:00Z</time>
      </trkpt>
      <trkpt lat="46.06946" lon="6.79505">
        <ele>1021</ele>
        <time>2018-03-04T14:04:08Z</time>
      </trkpt>
      <trkpt lat="46.06946" lon="6.79504">
        <ele>1021</ele>
        <time>2018-03-04T14:04:13Z</time>
      </trkpt>
      <trkpt lat="46.06946" lon="6.79506">
        <ele>1021</ele>
        <time>2018-03-04T14:04:18Z</time>
      </trkpt>
      <trkpt lat="46.06947" lon="6.79503">
        <ele>1021</ele>
        <time>2018-03-04T14:04:29Z</time>
      </trkpt>
      <trkpt lat="46.06946" lon="6.79506">
        <ele>1021</ele>
        <time>2018-03-04T14:04:45Z</time>
      </trkpt>
      <trkpt lat="46.06946" lon="6.79506">
        <ele>1021</ele>
        <time>2018-03-04T14:04:48Z</time>
      </trkpt>
      <trkpt lat="46.06945" lon="6.79506">
        <ele>1021</ele>
        <time>2018-03-04T14:04:54Z</time>
      </trkpt>
      <trkpt lat="46.06946" lon="6.79506">
        <ele>1021</ele>
        <time>2018-03-04T14:04:57Z</time>
      </trkpt>
      <trkpt lat="46.06946" lon="6.79508">
        <ele>1021</ele>
        <time>2018-03-04T14:04:59Z</time>
      </trkpt>
      <trkpt lat="46.06944" lon="6.7951">
        <ele>1021</ele>
        <time>2018-03-04T14:05:06Z</time>
      </trkpt>
      <trkpt lat="46.06942" lon="6.79512">
        <ele>1021</ele>
        <time>2018-03-04T14:05:13Z</time>
      </trkpt>
      <trkpt lat="46.06942" lon="6.79511">
        <ele>1021</ele>
        <time>2018-03-04T14:05:18Z</time>
      </trkpt>
      <trkpt lat="46.06941" lon="6.79511">
        <ele>1021</ele>
        <time>2018-03-04T14:05:22Z</time>
      </trkpt>
      <trkpt lat="46.06941" lon="6.79512">
        <ele>1021</ele>
        <time>2018-03-04T14:05:31Z</time>
      </trkpt>
      <trkpt lat="46.06941" lon="6.79511">
        <ele>1020</ele>
        <time>2018-03-04T14:05:35Z</time>
      </trkpt>
      <trkpt lat="46.06938" lon="6.79508">
        <ele>1020</ele>
        <time>2018-03-04T14:05:38Z</time>
      </trkpt>
      <trkpt lat="46.06937" lon="6.79507">
        <ele>1020</ele>
        <time>2018-03-04T14:05:39Z</time>
      </trkpt>
      <trkpt lat="46.0693" lon="6.79491">
        <ele>1017</ele>
        <time>2018-03-04T14:05:50Z</time>
      </trkpt>
      <trkpt lat="46.06927" lon="6.79471">
        <ele>1017</ele>
        <time>2018-03-04T14:06:01Z</time>
      </trkpt>
      <trkpt lat="46.06922" lon="6.79454">
        <ele>1016</ele>
        <time>2018-03-04T14:06:12Z</time>
      </trkpt>
      <trkpt lat="46.06916" lon="6.7944">
        <ele>1000</ele>
        <time>2018-03-04T14:06:23Z</time>
      </trkpt>
      <trkpt lat="46.06913" lon="6.79425">
        <ele>1006</ele>
        <time>2018-03-04T14:06:31Z</time>
      </trkpt>
      <trkpt lat="46.06905" lon="6.79414">
        <ele>1008</ele>
        <time>2018-03-04T14:06:41Z</time>
      </trkpt>
      <trkpt lat="46.06898" lon="6.79399">
        <ele>1003</ele>
        <time>2018-03-04T14:07:05Z</time>
      </trkpt>
      <trkpt lat="46.06897" lon="6.79395">
        <ele>1002</ele>
        <time>2018-03-04T14:07:08Z</time>
      </trkpt>
      <trkpt lat="46.0689" lon="6.79386">
        <ele>1001</ele>
        <time>2018-03-04T14:07:14Z</time>
      </trkpt>
      <trkpt lat="46.06889" lon="6.79385">
        <ele>1000</ele>
        <time>2018-03-04T14:07:15Z</time>
      </trkpt>
      <trkpt lat="46.06888" lon="6.79384">
        <ele>1000</ele>
        <time>2018-03-04T14:07:16Z</time>
      </trkpt>
      <trkpt lat="46.06887" lon="6.79382">
        <ele>1000</ele>
        <time>2018-03-04T14:07:17Z</time>
      </trkpt>
      <trkpt lat="46.06887" lon="6.7938">
        <ele>1000</ele>
        <time>2018-03-04T14:07:18Z</time>
      </trkpt>
      <trkpt lat="46.06886" lon="6.79377">
        <ele>1000</ele>
        <time>2018-03-04T14:07:19Z</time>
      </trkpt>
      <trkpt lat="46.06883" lon="6.79362">
        <ele>1001</ele>
        <time>2018-03-04T14:07:26Z</time>
      </trkpt>
      <trkpt lat="46.06881" lon="6.79343">
        <ele>1002</ele>
        <time>2018-03-04T14:07:35Z</time>
      </trkpt>
      <trkpt lat="46.0688" lon="6.79341">
        <ele>1002</ele>
        <time>2018-03-04T14:07:36Z</time>
      </trkpt>
      <trkpt lat="46.0688" lon="6.79339">
        <ele>1002</ele>
        <time>2018-03-04T14:07:37Z</time>
      </trkpt>
      <trkpt lat="46.06879" lon="6.79337">
        <ele>1002</ele>
        <time>2018-03-04T14:07:38Z</time>
      </trkpt>
      <trkpt lat="46.06876" lon="6.7932">
        <ele>1011</ele>
        <time>2018-03-04T14:07:48Z</time>
      </trkpt>
      <trkpt lat="46.06874" lon="6.79303">
        <ele>1012</ele>
        <time>2018-03-04T14:07:56Z</time>
      </trkpt>
      <trkpt lat="46.06871" lon="6.79287">
        <ele>1014</ele>
        <time>2018-03-04T14:08:04Z</time>
      </trkpt>
      <trkpt lat="46.06873" lon="6.79263">
        <ele>1015</ele>
        <time>2018-03-04T14:08:18Z</time>
      </trkpt>
      <trkpt lat="46.06873" lon="6.79261">
        <ele>1015</ele>
        <time>2018-03-04T14:08:19Z</time>
      </trkpt>
      <trkpt lat="46.06872" lon="6.7926">
        <ele>1016</ele>
        <time>2018-03-04T14:08:21Z</time>
      </trkpt>
      <trkpt lat="46.0687" lon="6.79258">
        <ele>1017</ele>
        <time>2018-03-04T14:08:22Z</time>
      </trkpt>
      <trkpt lat="46.06869" lon="6.79257">
        <ele>1017</ele>
        <time>2018-03-04T14:08:23Z</time>
      </trkpt>
      <trkpt lat="46.06867" lon="6.79256">
        <ele>1018</ele>
        <time>2018-03-04T14:08:24Z</time>
      </trkpt>
      <trkpt lat="46.06866" lon="6.79255">
        <ele>1019</ele>
        <time>2018-03-04T14:08:25Z</time>
      </trkpt>
      <trkpt lat="46.06865" lon="6.79253">
        <ele>1020</ele>
        <time>2018-03-04T14:08:26Z</time>
      </trkpt>
      <trkpt lat="46.06863" lon="6.79252">
        <ele>1020</ele>
        <time>2018-03-04T14:08:27Z</time>
      </trkpt>
      <trkpt lat="46.06862" lon="6.7925">
        <ele>1021</ele>
        <time>2018-03-04T14:08:28Z</time>
      </trkpt>
      <trkpt lat="46.06862" lon="6.79249">
        <ele>1030</ele>
        <time>2018-03-04T14:08:29Z</time>
      </trkpt>
      <trkpt lat="46.0686" lon="6.79248">
        <ele>1031</ele>
        <time>2018-03-04T14:08:30Z</time>
      </trkpt>
      <trkpt lat="46.06859" lon="6.79247">
        <ele>1031</ele>
        <time>2018-03-04T14:08:31Z</time>
      </trkpt>
      <trkpt lat="46.06858" lon="6.79246">
        <ele>1032</ele>
        <time>2018-03-04T14:08:32Z</time>
      </trkpt>
      <trkpt lat="46.06857" lon="6.79245">
        <ele>1032</ele>
        <time>2018-03-04T14:08:33Z</time>
      </trkpt>
      <trkpt lat="46.06856" lon="6.79243">
        <ele>1033</ele>
        <time>2018-03-04T14:08:35Z</time>
      </trkpt>
      <trkpt lat="46.06856" lon="6.79242">
        <ele>1033</ele>
        <time>2018-03-04T14:08:36Z</time>
      </trkpt>
      <trkpt lat="46.06856" lon="6.79241">
        <ele>1033</ele>
        <time>2018-03-04T14:08:37Z</time>
      </trkpt>
      <trkpt lat="46.06855" lon="6.79241">
        <ele>1033</ele>
        <time>2018-03-04T14:08:38Z</time>
      </trkpt>
      <trkpt lat="46.06854" lon="6.79241">
        <ele>1033</ele>
        <time>2018-03-04T14:08:39Z</time>
      </trkpt>
      <trkpt lat="46.06853" lon="6.7924">
        <ele>1034</ele>
        <time>2018-03-04T14:08:40Z</time>
      </trkpt>
      <trkpt lat="46.06852" lon="6.79239">
        <ele>1034</ele>
        <time>2018-03-04T14:08:41Z</time>
      </trkpt>
      <trkpt lat="46.06851" lon="6.79239">
        <ele>1035</ele>
        <time>2018-03-04T14:08:42Z</time>
      </trkpt>
      <trkpt lat="46.0685" lon="6.79237">
        <ele>1035</ele>
        <time>2018-03-04T14:08:43Z</time>
      </trkpt>
      <trkpt lat="46.06848" lon="6.79234">
        <ele>1035</ele>
        <time>2018-03-04T14:08:47Z</time>
      </trkpt>
      <trkpt lat="46.06848" lon="6.79231">
        <ele>1035</ele>
        <time>2018-03-04T14:08:48Z</time>
      </trkpt>
      <trkpt lat="46.06847" lon="6.7923">
        <ele>1034</ele>
        <time>2018-03-04T14:08:49Z</time>
      </trkpt>
      <trkpt lat="46.06847" lon="6.79227">
        <ele>1034</ele>
        <time>2018-03-04T14:08:50Z</time>
      </trkpt>
      <trkpt lat="46.06846" lon="6.79226">
        <ele>1034</ele>
        <time>2018-03-04T14:08:51Z</time>
      </trkpt>
      <trkpt lat="46.06845" lon="6.79225">
        <ele>1034</ele>
        <time>2018-03-04T14:08:52Z</time>
      </trkpt>
      <trkpt lat="46.06843" lon="6.79226">
        <ele>1035</ele>
        <time>2018-03-04T14:08:53Z</time>
      </trkpt>
      <trkpt lat="46.06842" lon="6.79225">
        <ele>1035</ele>
        <time>2018-03-04T14:08:54Z</time>
      </trkpt>
      <trkpt lat="46.06835" lon="6.7922">
        <ele>1036</ele>
        <time>2018-03-04T14:09:04Z</time>
      </trkpt>
      <trkpt lat="46.0683" lon="6.79212">
        <ele>1039</ele>
        <time>2018-03-04T14:09:10Z</time>
      </trkpt>
      <trkpt lat="46.06827" lon="6.79205">
        <ele>1039</ele>
        <time>2018-03-04T14:09:15Z</time>
      </trkpt>
      <trkpt lat="46.06827" lon="6.79203">
        <ele>1040</ele>
        <time>2018-03-04T14:09:16Z</time>
      </trkpt>
      <trkpt lat="46.06826" lon="6.79201">
        <ele>1040</ele>
        <time>2018-03-04T14:09:17Z</time>
      </trkpt>
      <trkpt lat="46.06826" lon="6.79199">
        <ele>1040</ele>
        <time>2018-03-04T14:09:18Z</time>
      </trkpt>
      <trkpt lat="46.06825" lon="6.79199">
        <ele>1040</ele>
        <time>2018-03-04T14:09:19Z</time>
      </trkpt>
      <trkpt lat="46.06822" lon="6.79196">
        <ele>1040</ele>
        <time>2018-03-04T14:09:22Z</time>
      </trkpt>
      <trkpt lat="46.06821" lon="6.79195">
        <ele>1040</ele>
        <time>2018-03-04T14:09:23Z</time>
      </trkpt>
      <trkpt lat="46.0682" lon="6.79194">
        <ele>1040</ele>
        <time>2018-03-04T14:09:24Z</time>
      </trkpt>
      <trkpt lat="46.06818" lon="6.79194">
        <ele>1040</ele>
        <time>2018-03-04T14:09:25Z</time>
      </trkpt>
      <trkpt lat="46.06817" lon="6.79194">
        <ele>1040</ele>
        <time>2018-03-04T14:09:26Z</time>
      </trkpt>
      <trkpt lat="46.06815" lon="6.79194">
        <ele>1039</ele>
        <time>2018-03-04T14:09:27Z</time>
      </trkpt>
      <trkpt lat="46.06814" lon="6.79194">
        <ele>1039</ele>
        <time>2018-03-04T14:09:28Z</time>
      </trkpt>
      <trkpt lat="46.06814" lon="6.79193">
        <ele>1039</ele>
        <time>2018-03-04T14:09:29Z</time>
      </trkpt>
      <trkpt lat="46.06812" lon="6.7919">
        <ele>1039</ele>
        <time>2018-03-04T14:09:32Z</time>
      </trkpt>
      <trkpt lat="46.0681" lon="6.79189">
        <ele>1039</ele>
        <time>2018-03-04T14:09:33Z</time>
      </trkpt>
      <trkpt lat="46.0681" lon="6.79188">
        <ele>1039</ele>
        <time>2018-03-04T14:09:34Z</time>
      </trkpt>
      <trkpt lat="46.06809" lon="6.79187">
        <ele>1039</ele>
        <time>2018-03-04T14:09:35Z</time>
      </trkpt>
      <trkpt lat="46.06808" lon="6.79186">
        <ele>1039</ele>
        <time>2018-03-04T14:09:36Z</time>
      </trkpt>
      <trkpt lat="46.06804" lon="6.79175">
        <ele>1039</ele>
        <time>2018-03-04T14:09:45Z</time>
      </trkpt>
      <trkpt lat="46.068" lon="6.79172">
        <ele>1038</ele>
        <time>2018-03-04T14:09:52Z</time>
      </trkpt>
      <trkpt lat="46.06797" lon="6.79173">
        <ele>1037</ele>
        <time>2018-03-04T14:09:55Z</time>
      </trkpt>
      <trkpt lat="46.06796" lon="6.79175">
        <ele>1037</ele>
        <time>2018-03-04T14:09:56Z</time>
      </trkpt>
      <trkpt lat="46.06796" lon="6.79176">
        <ele>1036</ele>
        <time>2018-03-04T14:09:57Z</time>
      </trkpt>
      <trkpt lat="46.06796" lon="6.79177">
        <ele>1036</ele>
        <time>2018-03-04T14:09:58Z</time>
      </trkpt>
      <trkpt lat="46.06796" lon="6.79179">
        <ele>1036</ele>
        <time>2018-03-04T14:09:59Z</time>
      </trkpt>
      <trkpt lat="46.06797" lon="6.79181">
        <ele>1036</ele>
        <time>2018-03-04T14:10:00Z</time>
      </trkpt>
      <trkpt lat="46.06798" lon="6.79182">
        <ele>1036</ele>
        <time>2018-03-04T14:10:01Z</time>
      </trkpt>
      <trkpt lat="46.06798" lon="6.79183">
        <ele>1037</ele>
        <time>2018-03-04T14:10:02Z</time>
      </trkpt>
      <trkpt lat="46.06799" lon="6.79184">
        <ele>1037</ele>
        <time>2018-03-04T14:10:03Z</time>
      </trkpt>
      <trkpt lat="46.06802" lon="6.79206">
        <ele>1035</ele>
        <time>2018-03-04T14:10:15Z</time>
      </trkpt>
      <trkpt lat="46.06806" lon="6.7922">
        <ele>1035</ele>
        <time>2018-03-04T14:10:21Z</time>
      </trkpt>
      <trkpt lat="46.06807" lon="6.79223">
        <ele>1036</ele>
        <time>2018-03-04T14:10:23Z</time>
      </trkpt>
      <trkpt lat="46.06809" lon="6.79225">
        <ele>1036</ele>
        <time>2018-03-04T14:10:24Z</time>
      </trkpt>
      <trkpt lat="46.06812" lon="6.79235">
        <ele>1037</ele>
        <time>2018-03-04T14:10:29Z</time>
      </trkpt>
      <trkpt lat="46.06812" lon="6.79236">
        <ele>1037</ele>
        <time>2018-03-04T14:10:30Z</time>
      </trkpt>
      <trkpt lat="46.06812" lon="6.79237">
        <ele>1037</ele>
        <time>2018-03-04T14:10:31Z</time>
      </trkpt>
      <trkpt lat="46.06811" lon="6.79236">
        <ele>1037</ele>
        <time>2018-03-04T14:10:32Z</time>
      </trkpt>
      <trkpt lat="46.0681" lon="6.79236">
        <ele>1036</ele>
        <time>2018-03-04T14:10:33Z</time>
      </trkpt>
      <trkpt lat="46.06809" lon="6.79235">
        <ele>1036</ele>
        <time>2018-03-04T14:10:34Z</time>
      </trkpt>
      <trkpt lat="46.06809" lon="6.79235">
        <ele>1036</ele>
        <time>2018-03-04T14:10:35Z</time>
      </trkpt>
      <trkpt lat="46.06808" lon="6.79234">
        <ele>1036</ele>
        <time>2018-03-04T14:10:36Z</time>
      </trkpt>
      <trkpt lat="46.06807" lon="6.79232">
        <ele>1035</ele>
        <time>2018-03-04T14:10:37Z</time>
      </trkpt>
      <trkpt lat="46.06806" lon="6.7923">
        <ele>1035</ele>
        <time>2018-03-04T14:10:38Z</time>
      </trkpt>
      <trkpt lat="46.06805" lon="6.79228">
        <ele>1035</ele>
        <time>2018-03-04T14:10:39Z</time>
      </trkpt>
      <trkpt lat="46.06805" lon="6.79227">
        <ele>1035</ele>
        <time>2018-03-04T14:10:40Z</time>
      </trkpt>
      <trkpt lat="46.06804" lon="6.79226">
        <ele>1035</ele>
        <time>2018-03-04T14:10:41Z</time>
      </trkpt>
      <trkpt lat="46.06803" lon="6.79225">
        <ele>1034</ele>
        <time>2018-03-04T14:10:42Z</time>
      </trkpt>
      <trkpt lat="46.06801" lon="6.79222">
        <ele>1034</ele>
        <time>2018-03-04T14:10:44Z</time>
      </trkpt>
      <trkpt lat="46.06801" lon="6.7922">
        <ele>1034</ele>
        <time>2018-03-04T14:10:45Z</time>
      </trkpt>
      <trkpt lat="46.068" lon="6.79219">
        <ele>1034</ele>
        <time>2018-03-04T14:10:46Z</time>
      </trkpt>
      <trkpt lat="46.06799" lon="6.79218">
        <ele>1034</ele>
        <time>2018-03-04T14:10:47Z</time>
      </trkpt>
      <trkpt lat="46.06798" lon="6.79218">
        <ele>1034</ele>
        <time>2018-03-04T14:10:48Z</time>
      </trkpt>
      <trkpt lat="46.06797" lon="6.79217">
        <ele>1033</ele>
        <time>2018-03-04T14:10:49Z</time>
      </trkpt>
      <trkpt lat="46.06796" lon="6.79216">
        <ele>1033</ele>
        <time>2018-03-04T14:10:50Z</time>
      </trkpt>
      <trkpt lat="46.06795" lon="6.79216">
        <ele>1033</ele>
        <time>2018-03-04T14:10:51Z</time>
      </trkpt>
      <trkpt lat="46.06794" lon="6.79215">
        <ele>1033</ele>
        <time>2018-03-04T14:10:52Z</time>
      </trkpt>
      <trkpt lat="46.06793" lon="6.79214">
        <ele>1033</ele>
        <time>2018-03-04T14:10:53Z</time>
      </trkpt>
      <trkpt lat="46.06792" lon="6.79213">
        <ele>1033</ele>
        <time>2018-03-04T14:10:54Z</time>
      </trkpt>
      <trkpt lat="46.06791" lon="6.79213">
        <ele>1032</ele>
        <time>2018-03-04T14:10:55Z</time>
      </trkpt>
      <trkpt lat="46.06789" lon="6.79212">
        <ele>1032</ele>
        <time>2018-03-04T14:10:56Z</time>
      </trkpt>
      <trkpt lat="46.06788" lon="6.79211">
        <ele>1032</ele>
        <time>2018-03-04T14:10:57Z</time>
      </trkpt>
      <trkpt lat="46.0678" lon="6.79205">
        <ele>1031</ele>
        <time>2018-03-04T14:11:05Z</time>
      </trkpt>
      <trkpt lat="46.06778" lon="6.79203">
        <ele>1031</ele>
        <time>2018-03-04T14:11:07Z</time>
      </trkpt>
      <trkpt lat="46.06771" lon="6.79195">
        <ele>1030</ele>
        <time>2018-03-04T14:11:14Z</time>
      </trkpt>
      <trkpt lat="46.06768" lon="6.79191">
        <ele>1030</ele>
        <time>2018-03-04T14:11:18Z</time>
      </trkpt>
      <trkpt lat="46.06767" lon="6.7919">
        <ele>1030</ele>
        <time>2018-03-04T14:11:19Z</time>
      </trkpt>
      <trkpt lat="46.06765" lon="6.79189">
        <ele>1030</ele>
        <time>2018-03-04T14:11:20Z</time>
      </trkpt>
      <trkpt lat="46.06764" lon="6.79187">
        <ele>1030</ele>
        <time>2018-03-04T14:11:21Z</time>
      </trkpt>
      <trkpt lat="46.06763" lon="6.79186">
        <ele>1029</ele>
        <time>2018-03-04T14:11:22Z</time>
      </trkpt>
      <trkpt lat="46.06762" lon="6.79184">
        <ele>1029</ele>
        <time>2018-03-04T14:11:23Z</time>
      </trkpt>
      <trkpt lat="46.06761" lon="6.79183">
        <ele>1029</ele>
        <time>2018-03-04T14:11:24Z</time>
      </trkpt>
      <trkpt lat="46.06756" lon="6.79175">
        <ele>1028</ele>
        <time>2018-03-04T14:11:31Z</time>
      </trkpt>
      <trkpt lat="46.0675" lon="6.79162">
        <ele>1023</ele>
        <time>2018-03-04T14:11:38Z</time>
      </trkpt>
      <trkpt lat="46.06748" lon="6.79162">
        <ele>1023</ele>
        <time>2018-03-04T14:11:40Z</time>
      </trkpt>
      <trkpt lat="46.06746" lon="6.79159">
        <ele>1021</ele>
        <time>2018-03-04T14:11:43Z</time>
      </trkpt>
      <trkpt lat="46.06745" lon="6.79158">
        <ele>1020</ele>
        <time>2018-03-04T14:11:44Z</time>
      </trkpt>
      <trkpt lat="46.06744" lon="6.79157">
        <ele>1020</ele>
        <time>2018-03-04T14:11:45Z</time>
      </trkpt>
      <trkpt lat="46.06741" lon="6.79153">
        <ele>1018</ele>
        <time>2018-03-04T14:11:49Z</time>
      </trkpt>
      <trkpt lat="46.0674" lon="6.79153">
        <ele>1017</ele>
        <time>2018-03-04T14:11:50Z</time>
      </trkpt>
      <trkpt lat="46.06738" lon="6.7915">
        <ele>1016</ele>
        <time>2018-03-04T14:11:52Z</time>
      </trkpt>
      <trkpt lat="46.06737" lon="6.79148">
        <ele>1016</ele>
        <time>2018-03-04T14:12:01Z</time>
      </trkpt>
      <trkpt lat="46.06737" lon="6.79143">
        <ele>1015</ele>
        <time>2018-03-04T14:12:06Z</time>
      </trkpt>
      <trkpt lat="46.06737" lon="6.79144">
        <ele>1015</ele>
        <time>2018-03-04T14:12:15Z</time>
      </trkpt>
      <trkpt lat="46.06736" lon="6.79145">
        <ele>1015</ele>
        <time>2018-03-04T14:12:21Z</time>
      </trkpt>
      <trkpt lat="46.06736" lon="6.79145">
        <ele>1015</ele>
        <time>2018-03-04T14:12:24Z</time>
      </trkpt>
      <trkpt lat="46.06736" lon="6.79146">
        <ele>1015</ele>
        <time>2018-03-04T14:12:28Z</time>
      </trkpt>
      <trkpt lat="46.06733" lon="6.79147">
        <ele>1014</ele>
        <time>2018-03-04T14:12:54Z</time>
      </trkpt>
      <trkpt lat="46.06733" lon="6.79145">
        <ele>1014</ele>
        <time>2018-03-04T14:12:57Z</time>
      </trkpt>
      <trkpt lat="46.06732" lon="6.79144">
        <ele>1014</ele>
        <time>2018-03-04T14:13:01Z</time>
      </trkpt>
      <trkpt lat="46.06731" lon="6.79139">
        <ele>1014</ele>
        <time>2018-03-04T14:13:09Z</time>
      </trkpt>
      <trkpt lat="46.06729" lon="6.79135">
        <ele>1013</ele>
        <time>2018-03-04T14:13:13Z</time>
      </trkpt>
      <trkpt lat="46.06728" lon="6.79133">
        <ele>1013</ele>
        <time>2018-03-04T14:13:15Z</time>
      </trkpt>
      <trkpt lat="46.06724" lon="6.79127">
        <ele>1012</ele>
        <time>2018-03-04T14:13:20Z</time>
      </trkpt>
      <trkpt lat="46.06718" lon="6.79122">
        <ele>1011</ele>
        <time>2018-03-04T14:13:26Z</time>
      </trkpt>
      <trkpt lat="46.06715" lon="6.79115">
        <ele>1011</ele>
        <time>2018-03-04T14:13:31Z</time>
      </trkpt>
      <trkpt lat="46.06714" lon="6.79114">
        <ele>1011</ele>
        <time>2018-03-04T14:13:32Z</time>
      </trkpt>
      <trkpt lat="46.06711" lon="6.79104">
        <ele>1010</ele>
        <time>2018-03-04T14:13:39Z</time>
      </trkpt>
      <trkpt lat="46.06708" lon="6.79097">
        <ele>1010</ele>
        <time>2018-03-04T14:13:44Z</time>
      </trkpt>
      <trkpt lat="46.06708" lon="6.79095">
        <ele>1010</ele>
        <time>2018-03-04T14:13:45Z</time>
      </trkpt>
      <trkpt lat="46.06707" lon="6.79094">
        <ele>1009</ele>
        <time>2018-03-04T14:13:46Z</time>
      </trkpt>
      <trkpt lat="46.06706" lon="6.79093">
        <ele>1009</ele>
        <time>2018-03-04T14:13:47Z</time>
      </trkpt>
      <trkpt lat="46.06699" lon="6.79083">
        <ele>1016</ele>
        <time>2018-03-04T14:13:58Z</time>
      </trkpt>
      <trkpt lat="46.06698" lon="6.79083">
        <ele>1015</ele>
        <time>2018-03-04T14:13:59Z</time>
      </trkpt>
      <trkpt lat="46.06693" lon="6.79078">
        <ele>1012</ele>
        <time>2018-03-04T14:14:04Z</time>
      </trkpt>
      <trkpt lat="46.06684" lon="6.7907">
        <ele>1009</ele>
        <time>2018-03-04T14:14:13Z</time>
      </trkpt>
      <trkpt lat="46.06673" lon="6.79052">
        <ele>1012</ele>
        <time>2018-03-04T14:14:23Z</time>
      </trkpt>
      <trkpt lat="46.06672" lon="6.79052">
        <ele>1012</ele>
        <time>2018-03-04T14:14:24Z</time>
      </trkpt>
      <trkpt lat="46.06671" lon="6.7905">
        <ele>1012</ele>
        <time>2018-03-04T14:14:25Z</time>
      </trkpt>
      <trkpt lat="46.06667" lon="6.79046">
        <ele>1013</ele>
        <time>2018-03-04T14:14:28Z</time>
      </trkpt>
      <trkpt lat="46.06665" lon="6.79045">
        <ele>987</ele>
        <time>2018-03-04T14:14:29Z</time>
      </trkpt>
      <trkpt lat="46.06663" lon="6.79045">
        <ele>987</ele>
        <time>2018-03-04T14:14:30Z</time>
      </trkpt>
      <trkpt lat="46.06658" lon="6.79037">
        <ele>987</ele>
        <time>2018-03-04T14:14:35Z</time>
      </trkpt>
      <trkpt lat="46.06657" lon="6.79035">
        <ele>988</ele>
        <time>2018-03-04T14:14:37Z</time>
      </trkpt>
      <trkpt lat="46.06655" lon="6.79034">
        <ele>988</ele>
        <time>2018-03-04T14:14:38Z</time>
      </trkpt>
      <trkpt lat="46.06653" lon="6.79033">
        <ele>988</ele>
        <time>2018-03-04T14:14:39Z</time>
      </trkpt>
      <trkpt lat="46.06652" lon="6.79031">
        <ele>988</ele>
        <time>2018-03-04T14:14:40Z</time>
      </trkpt>
      <trkpt lat="46.06651" lon="6.79029">
        <ele>988</ele>
        <time>2018-03-04T14:14:41Z</time>
      </trkpt>
      <trkpt lat="46.06646" lon="6.79022">
        <ele>989</ele>
        <time>2018-03-04T14:14:45Z</time>
      </trkpt>
      <trkpt lat="46.06645" lon="6.7902">
        <ele>989</ele>
        <time>2018-03-04T14:14:46Z</time>
      </trkpt>
      <trkpt lat="46.06643" lon="6.79019">
        <ele>988</ele>
        <time>2018-03-04T14:14:47Z</time>
      </trkpt>
      <trkpt lat="46.06641" lon="6.79018">
        <ele>988</ele>
        <time>2018-03-04T14:14:48Z</time>
      </trkpt>
      <trkpt lat="46.06639" lon="6.79018">
        <ele>987</ele>
        <time>2018-03-04T14:14:49Z</time>
      </trkpt>
      <trkpt lat="46.06638" lon="6.79018">
        <ele>987</ele>
        <time>2018-03-04T14:14:50Z</time>
      </trkpt>
      <trkpt lat="46.06637" lon="6.79017">
        <ele>987</ele>
        <time>2018-03-04T14:14:51Z</time>
      </trkpt>
      <trkpt lat="46.06636" lon="6.79017">
        <ele>986</ele>
        <time>2018-03-04T14:14:52Z</time>
      </trkpt>
      <trkpt lat="46.06635" lon="6.79016">
        <ele>986</ele>
        <time>2018-03-04T14:14:53Z</time>
      </trkpt>
      <trkpt lat="46.06634" lon="6.79014">
        <ele>986</ele>
        <time>2018-03-04T14:14:54Z</time>
      </trkpt>
      <trkpt lat="46.06633" lon="6.79013">
        <ele>986</ele>
        <time>2018-03-04T14:14:55Z</time>
      </trkpt>
      <trkpt lat="46.06632" lon="6.79011">
        <ele>986</ele>
        <time>2018-03-04T14:14:56Z</time>
      </trkpt>
      <trkpt lat="46.06628" lon="6.79003">
        <ele>985</ele>
        <time>2018-03-04T14:15:01Z</time>
      </trkpt>
      <trkpt lat="46.06627" lon="6.79002">
        <ele>984</ele>
        <time>2018-03-04T14:15:02Z</time>
      </trkpt>
      <trkpt lat="46.06621" lon="6.78986">
        <ele>993</ele>
        <time>2018-03-04T14:15:10Z</time>
      </trkpt>
      <trkpt lat="46.0662" lon="6.78984">
        <ele>993</ele>
        <time>2018-03-04T14:15:11Z</time>
      </trkpt>
      <trkpt lat="46.06614" lon="6.78973">
        <ele>993</ele>
        <time>2018-03-04T14:15:17Z</time>
      </trkpt>
      <trkpt lat="46.06613" lon="6.78972">
        <ele>992</ele>
        <time>2018-03-04T14:15:18Z</time>
      </trkpt>
      <trkpt lat="46.06612" lon="6.78971">
        <ele>992</ele>
        <time>2018-03-04T14:15:19Z</time>
      </trkpt>
      <trkpt lat="46.06602" lon="6.78966">
        <ele>990</ele>
        <time>2018-03-04T14:15:27Z</time>
      </trkpt>
      <trkpt lat="46.06598" lon="6.78961">
        <ele>990</ele>
        <time>2018-03-04T14:15:30Z</time>
      </trkpt>
      <trkpt lat="46.06596" lon="6.78959">
        <ele>990</ele>
        <time>2018-03-04T14:15:32Z</time>
      </trkpt>
      <trkpt lat="46.06594" lon="6.78959">
        <ele>990</ele>
        <time>2018-03-04T14:15:33Z</time>
      </trkpt>
      <trkpt lat="46.06593" lon="6.78959">
        <ele>989</ele>
        <time>2018-03-04T14:15:34Z</time>
      </trkpt>
      <trkpt lat="46.06592" lon="6.7896">
        <ele>989</ele>
        <time>2018-03-04T14:15:35Z</time>
      </trkpt>
      <trkpt lat="46.06591" lon="6.78961">
        <ele>989</ele>
        <time>2018-03-04T14:15:36Z</time>
      </trkpt>
      <trkpt lat="46.06589" lon="6.78962">
        <ele>989</ele>
        <time>2018-03-04T14:15:37Z</time>
      </trkpt>
      <trkpt lat="46.06588" lon="6.78962">
        <ele>988</ele>
        <time>2018-03-04T14:15:38Z</time>
      </trkpt>
      <trkpt lat="46.06586" lon="6.78963">
        <ele>988</ele>
        <time>2018-03-04T14:15:39Z</time>
      </trkpt>
      <trkpt lat="46.06585" lon="6.78963">
        <ele>988</ele>
        <time>2018-03-04T14:15:41Z</time>
      </trkpt>
      <trkpt lat="46.06583" lon="6.78963">
        <ele>988</ele>
        <time>2018-03-04T14:15:42Z</time>
      </trkpt>
      <trkpt lat="46.06571" lon="6.78971">
        <ele>968</ele>
        <time>2018-03-04T14:15:51Z</time>
      </trkpt>
      <trkpt lat="46.06569" lon="6.7897">
        <ele>968</ele>
        <time>2018-03-04T14:15:53Z</time>
      </trkpt>
      <trkpt lat="46.06568" lon="6.78969">
        <ele>968</ele>
        <time>2018-03-04T14:15:54Z</time>
      </trkpt>
      <trkpt lat="46.06566" lon="6.78968">
        <ele>968</ele>
        <time>2018-03-04T14:15:55Z</time>
      </trkpt>
      <trkpt lat="46.06564" lon="6.78967">
        <ele>968</ele>
        <time>2018-03-04T14:15:56Z</time>
      </trkpt>
      <trkpt lat="46.06563" lon="6.78966">
        <ele>968</ele>
        <time>2018-03-04T14:15:57Z</time>
      </trkpt>
      <trkpt lat="46.0656" lon="6.78959">
        <ele>968</ele>
        <time>2018-03-04T14:16:00Z</time>
      </trkpt>
      <trkpt lat="46.06559" lon="6.78955">
        <ele>968</ele>
        <time>2018-03-04T14:16:02Z</time>
      </trkpt>
      <trkpt lat="46.06559" lon="6.78953">
        <ele>968</ele>
        <time>2018-03-04T14:16:03Z</time>
      </trkpt>
      <trkpt lat="46.06558" lon="6.78951">
        <ele>968</ele>
        <time>2018-03-04T14:16:04Z</time>
      </trkpt>
      <trkpt lat="46.06555" lon="6.78945">
        <ele>968</ele>
        <time>2018-03-04T14:16:07Z</time>
      </trkpt>
      <trkpt lat="46.06551" lon="6.7894">
        <ele>968</ele>
        <time>2018-03-04T14:16:11Z</time>
      </trkpt>
      <trkpt lat="46.0655" lon="6.7894">
        <ele>968</ele>
        <time>2018-03-04T14:16:12Z</time>
      </trkpt>
      <trkpt lat="46.06548" lon="6.78939">
        <ele>967</ele>
        <time>2018-03-04T14:16:13Z</time>
      </trkpt>
      <trkpt lat="46.06547" lon="6.78938">
        <ele>967</ele>
        <time>2018-03-04T14:16:14Z</time>
      </trkpt>
      <trkpt lat="46.06545" lon="6.78938">
        <ele>967</ele>
        <time>2018-03-04T14:16:15Z</time>
      </trkpt>
      <trkpt lat="46.06543" lon="6.78937">
        <ele>967</ele>
        <time>2018-03-04T14:16:16Z</time>
      </trkpt>
      <trkpt lat="46.06537" lon="6.78933">
        <ele>966</ele>
        <time>2018-03-04T14:16:20Z</time>
      </trkpt>
      <trkpt lat="46.06535" lon="6.78932">
        <ele>966</ele>
        <time>2018-03-04T14:16:21Z</time>
      </trkpt>
      <trkpt lat="46.06534" lon="6.7893">
        <ele>966</ele>
        <time>2018-03-04T14:16:22Z</time>
      </trkpt>
      <trkpt lat="46.06533" lon="6.78928">
        <ele>966</ele>
        <time>2018-03-04T14:16:23Z</time>
      </trkpt>
      <trkpt lat="46.06533" lon="6.78926">
        <ele>966</ele>
        <time>2018-03-04T14:16:24Z</time>
      </trkpt>
      <trkpt lat="46.06533" lon="6.78924">
        <ele>966</ele>
        <time>2018-03-04T14:16:25Z</time>
      </trkpt>
      <trkpt lat="46.06533" lon="6.78922">
        <ele>966</ele>
        <time>2018-03-04T14:16:26Z</time>
      </trkpt>
      <trkpt lat="46.06537" lon="6.78906">
        <ele>973</ele>
        <time>2018-03-04T14:16:35Z</time>
      </trkpt>
      <trkpt lat="46.06538" lon="6.78904">
        <ele>973</ele>
        <time>2018-03-04T14:16:36Z</time>
      </trkpt>
      <trkpt lat="46.06539" lon="6.78901">
        <ele>973</ele>
        <time>2018-03-04T14:16:38Z</time>
      </trkpt>
      <trkpt lat="46.0654" lon="6.78899">
        <ele>973</ele>
        <time>2018-03-04T14:16:39Z</time>
      </trkpt>
      <trkpt lat="46.06544" lon="6.78887">
        <ele>975</ele>
        <time>2018-03-04T14:16:44Z</time>
      </trkpt>
      <trkpt lat="46.06543" lon="6.78884">
        <ele>975</ele>
        <time>2018-03-04T14:16:45Z</time>
      </trkpt>
      <trkpt lat="46.06543" lon="6.78881">
        <ele>975</ele>
        <time>2018-03-04T14:16:46Z</time>
      </trkpt>
      <trkpt lat="46.06542" lon="6.78879">
        <ele>975</ele>
        <time>2018-03-04T14:16:47Z</time>
      </trkpt>
      <trkpt lat="46.06542" lon="6.78877">
        <ele>975</ele>
        <time>2018-03-04T14:16:48Z</time>
      </trkpt>
      <trkpt lat="46.06541" lon="6.78875">
        <ele>975</ele>
        <time>2018-03-04T14:16:49Z</time>
      </trkpt>
      <trkpt lat="46.0654" lon="6.78874">
        <ele>975</ele>
        <time>2018-03-04T14:16:50Z</time>
      </trkpt>
      <trkpt lat="46.06538" lon="6.78873">
        <ele>975</ele>
        <time>2018-03-04T14:16:51Z</time>
      </trkpt>
      <trkpt lat="46.06537" lon="6.78872">
        <ele>975</ele>
        <time>2018-03-04T14:16:52Z</time>
      </trkpt>
      <trkpt lat="46.06536" lon="6.78873">
        <ele>974</ele>
        <time>2018-03-04T14:16:53Z</time>
      </trkpt>
      <trkpt lat="46.06535" lon="6.78873">
        <ele>974</ele>
        <time>2018-03-04T14:16:54Z</time>
      </trkpt>
      <trkpt lat="46.06533" lon="6.78873">
        <ele>974</ele>
        <time>2018-03-04T14:16:55Z</time>
      </trkpt>
      <trkpt lat="46.06532" lon="6.78873">
        <ele>974</ele>
        <time>2018-03-04T14:16:56Z</time>
      </trkpt>
      <trkpt lat="46.06516" lon="6.78879">
        <ele>971</ele>
        <time>2018-03-04T14:17:07Z</time>
      </trkpt>
      <trkpt lat="46.06501" lon="6.7888">
        <ele>970</ele>
        <time>2018-03-04T14:17:17Z</time>
      </trkpt>
      <trkpt lat="46.0649" lon="6.78881">
        <ele>956</ele>
        <time>2018-03-04T14:17:25Z</time>
      </trkpt>
      <trkpt lat="46.06482" lon="6.78889">
        <ele>955</ele>
        <time>2018-03-04T14:17:33Z</time>
      </trkpt>
      <trkpt lat="46.06481" lon="6.78891">
        <ele>955</ele>
        <time>2018-03-04T14:17:34Z</time>
      </trkpt>
      <trkpt lat="46.06479" lon="6.78893">
        <ele>955</ele>
        <time>2018-03-04T14:17:35Z</time>
      </trkpt>
      <trkpt lat="46.06478" lon="6.78894">
        <ele>955</ele>
        <time>2018-03-04T14:17:36Z</time>
      </trkpt>
      <trkpt lat="46.06477" lon="6.78895">
        <ele>955</ele>
        <time>2018-03-04T14:17:37Z</time>
      </trkpt>
      <trkpt lat="46.06476" lon="6.78897">
        <ele>955</ele>
        <time>2018-03-04T14:17:38Z</time>
      </trkpt>
      <trkpt lat="46.06475" lon="6.78898">
        <ele>955</ele>
        <time>2018-03-04T14:17:39Z</time>
      </trkpt>
      <trkpt lat="46.06466" lon="6.78903">
        <ele>954</ele>
        <time>2018-03-04T14:17:44Z</time>
      </trkpt>
      <trkpt lat="46.06453" lon="6.78893">
        <ele>952</ele>
        <time>2018-03-04T14:17:56Z</time>
      </trkpt>
      <trkpt lat="46.06442" lon="6.78888">
        <ele>951</ele>
        <time>2018-03-04T14:18:05Z</time>
      </trkpt>
      <trkpt lat="46.06436" lon="6.78884">
        <ele>951</ele>
        <time>2018-03-04T14:18:10Z</time>
      </trkpt>
      <trkpt lat="46.06429" lon="6.78883">
        <ele>950</ele>
        <time>2018-03-04T14:18:18Z</time>
      </trkpt>
      <trkpt lat="46.06419" lon="6.78885">
        <ele>949</ele>
        <time>2018-03-04T14:18:26Z</time>
      </trkpt>
      <trkpt lat="46.06408" lon="6.78886">
        <ele>935</ele>
        <time>2018-03-04T14:18:33Z</time>
      </trkpt>
      <trkpt lat="46.06397" lon="6.78885">
        <ele>934</ele>
        <time>2018-03-04T14:18:41Z</time>
      </trkpt>
      <trkpt lat="46.06388" lon="6.78881">
        <ele>933</ele>
        <time>2018-03-04T14:18:48Z</time>
      </trkpt>
      <trkpt lat="46.06387" lon="6.78881">
        <ele>933</ele>
        <time>2018-03-04T14:18:49Z</time>
      </trkpt>
      <trkpt lat="46.06383" lon="6.78881">
        <ele>932</ele>
        <time>2018-03-04T14:18:53Z</time>
      </trkpt>
      <trkpt lat="46.06382" lon="6.78882">
        <ele>932</ele>
        <time>2018-03-04T14:18:54Z</time>
      </trkpt>
      <trkpt lat="46.0638" lon="6.78882">
        <ele>932</ele>
        <time>2018-03-04T14:18:55Z</time>
      </trkpt>
      <trkpt lat="46.06379" lon="6.78883">
        <ele>931</ele>
        <time>2018-03-04T14:18:56Z</time>
      </trkpt>
      <trkpt lat="46.06378" lon="6.78883">
        <ele>931</ele>
        <time>2018-03-04T14:18:57Z</time>
      </trkpt>
      <trkpt lat="46.06377" lon="6.78883">
        <ele>931</ele>
        <time>2018-03-04T14:18:58Z</time>
      </trkpt>
      <trkpt lat="46.06376" lon="6.78883">
        <ele>931</ele>
        <time>2018-03-04T14:18:59Z</time>
      </trkpt>
      <trkpt lat="46.06375" lon="6.78884">
        <ele>931</ele>
        <time>2018-03-04T14:19:00Z</time>
      </trkpt>
      <trkpt lat="46.06366" lon="6.78887">
        <ele>929</ele>
        <time>2018-03-04T14:19:07Z</time>
      </trkpt>
      <trkpt lat="46.06364" lon="6.78888">
        <ele>929</ele>
        <time>2018-03-04T14:19:08Z</time>
      </trkpt>
      <trkpt lat="46.06363" lon="6.78889">
        <ele>928</ele>
        <time>2018-03-04T14:19:09Z</time>
      </trkpt>
      <trkpt lat="46.06355" lon="6.78893">
        <ele>927</ele>
        <time>2018-03-04T14:19:15Z</time>
      </trkpt>
      <trkpt lat="46.06353" lon="6.78895">
        <ele>926</ele>
        <time>2018-03-04T14:19:20Z</time>
      </trkpt>
      <trkpt lat="46.06352" lon="6.78895">
        <ele>926</ele>
        <time>2018-03-04T14:19:21Z</time>
      </trkpt>
      <trkpt lat="46.06351" lon="6.78895">
        <ele>926</ele>
        <time>2018-03-04T14:19:22Z</time>
      </trkpt>
      <trkpt lat="46.0635" lon="6.78896">
        <ele>925</ele>
        <time>2018-03-04T14:19:23Z</time>
      </trkpt>
      <trkpt lat="46.06348" lon="6.78896">
        <ele>925</ele>
        <time>2018-03-04T14:19:24Z</time>
      </trkpt>
      <trkpt lat="46.06347" lon="6.78897">
        <ele>925</ele>
        <time>2018-03-04T14:19:25Z</time>
      </trkpt>
      <trkpt lat="46.06346" lon="6.78897">
        <ele>924</ele>
        <time>2018-03-04T14:19:26Z</time>
      </trkpt>
      <trkpt lat="46.06344" lon="6.78898">
        <ele>924</ele>
        <time>2018-03-04T14:19:28Z</time>
      </trkpt>
      <trkpt lat="46.06343" lon="6.78899">
        <ele>924</ele>
        <time>2018-03-04T14:19:29Z</time>
      </trkpt>
      <trkpt lat="46.06342" lon="6.78899">
        <ele>923</ele>
        <time>2018-03-04T14:19:30Z</time>
      </trkpt>
      <trkpt lat="46.0634" lon="6.789">
        <ele>923</ele>
        <time>2018-03-04T14:19:31Z</time>
      </trkpt>
      <trkpt lat="46.06339" lon="6.78901">
        <ele>923</ele>
        <time>2018-03-04T14:19:32Z</time>
      </trkpt>
      <trkpt lat="46.06338" lon="6.78902">
        <ele>922</ele>
        <time>2018-03-04T14:19:33Z</time>
      </trkpt>
      <trkpt lat="46.06336" lon="6.78903">
        <ele>922</ele>
        <time>2018-03-04T14:19:34Z</time>
      </trkpt>
      <trkpt lat="46.06335" lon="6.78902">
        <ele>922</ele>
        <time>2018-03-04T14:19:35Z</time>
      </trkpt>
      <trkpt lat="46.06333" lon="6.78903">
        <ele>921</ele>
        <time>2018-03-04T14:19:37Z</time>
      </trkpt>
      <trkpt lat="46.06332" lon="6.78904">
        <ele>911</ele>
        <time>2018-03-04T14:19:38Z</time>
      </trkpt>
      <trkpt lat="46.06331" lon="6.78905">
        <ele>911</ele>
        <time>2018-03-04T14:19:39Z</time>
      </trkpt>
      <trkpt lat="46.0633" lon="6.78905">
        <ele>911</ele>
        <time>2018-03-04T14:19:40Z</time>
      </trkpt>
      <trkpt lat="46.06325" lon="6.78906">
        <ele>911</ele>
        <time>2018-03-04T14:19:44Z</time>
      </trkpt>
      <trkpt lat="46.06323" lon="6.78906">
        <ele>910</ele>
        <time>2018-03-04T14:19:45Z</time>
      </trkpt>
      <trkpt lat="46.06322" lon="6.78905">
        <ele>910</ele>
        <time>2018-03-04T14:19:46Z</time>
      </trkpt>
      <trkpt lat="46.0632" lon="6.78905">
        <ele>910</ele>
        <time>2018-03-04T14:19:47Z</time>
      </trkpt>
      <trkpt lat="46.06319" lon="6.78905">
        <ele>909</ele>
        <time>2018-03-04T14:19:48Z</time>
      </trkpt>
      <trkpt lat="46.06316" lon="6.78907">
        <ele>909</ele>
        <time>2018-03-04T14:19:49Z</time>
      </trkpt>
      <trkpt lat="46.06314" lon="6.78907">
        <ele>909</ele>
        <time>2018-03-04T14:19:50Z</time>
      </trkpt>
      <trkpt lat="46.06312" lon="6.78908">
        <ele>908</ele>
        <time>2018-03-04T14:19:51Z</time>
      </trkpt>
      <trkpt lat="46.063" lon="6.7891">
        <ele>906</ele>
        <time>2018-03-04T14:20:00Z</time>
      </trkpt>
      <trkpt lat="46.06298" lon="6.7891">
        <ele>905</ele>
        <time>2018-03-04T14:20:02Z</time>
      </trkpt>
      <trkpt lat="46.06296" lon="6.78911">
        <ele>905</ele>
        <time>2018-03-04T14:20:03Z</time>
      </trkpt>
      <trkpt lat="46.06295" lon="6.78911">
        <ele>905</ele>
        <time>2018-03-04T14:20:04Z</time>
      </trkpt>
      <trkpt lat="46.0629" lon="6.78913">
        <ele>904</ele>
        <time>2018-03-04T14:20:08Z</time>
      </trkpt>
      <trkpt lat="46.06284" lon="6.78913">
        <ele>903</ele>
        <time>2018-03-04T14:20:13Z</time>
      </trkpt>
      <trkpt lat="46.06283" lon="6.78912">
        <ele>902</ele>
        <time>2018-03-04T14:20:14Z</time>
      </trkpt>
      <trkpt lat="46.06283" lon="6.7891">
        <ele>902</ele>
        <time>2018-03-04T14:20:15Z</time>
      </trkpt>
      <trkpt lat="46.06282" lon="6.78909">
        <ele>902</ele>
        <time>2018-03-04T14:20:16Z</time>
      </trkpt>
      <trkpt lat="46.06281" lon="6.78908">
        <ele>902</ele>
        <time>2018-03-04T14:20:17Z</time>
      </trkpt>
      <trkpt lat="46.0628" lon="6.78907">
        <ele>902</ele>
        <time>2018-03-04T14:20:18Z</time>
      </trkpt>
      <trkpt lat="46.06279" lon="6.78905">
        <ele>902</ele>
        <time>2018-03-04T14:20:19Z</time>
      </trkpt>
      <trkpt lat="46.06279" lon="6.78903">
        <ele>902</ele>
        <time>2018-03-04T14:20:20Z</time>
      </trkpt>
      <trkpt lat="46.06278" lon="6.78901">
        <ele>902</ele>
        <time>2018-03-04T14:20:21Z</time>
      </trkpt>
      <trkpt lat="46.06278" lon="6.789">
        <ele>902</ele>
        <time>2018-03-04T14:20:22Z</time>
      </trkpt>
      <trkpt lat="46.06277" lon="6.78898">
        <ele>902</ele>
        <time>2018-03-04T14:20:23Z</time>
      </trkpt>
      <trkpt lat="46.06276" lon="6.78897">
        <ele>901</ele>
        <time>2018-03-04T14:20:24Z</time>
      </trkpt>
      <trkpt lat="46.06274" lon="6.78896">
        <ele>901</ele>
        <time>2018-03-04T14:20:25Z</time>
      </trkpt>
      <trkpt lat="46.06273" lon="6.78896">
        <ele>901</ele>
        <time>2018-03-04T14:20:26Z</time>
      </trkpt>
      <trkpt lat="46.06266" lon="6.78892">
        <ele>900</ele>
        <time>2018-03-04T14:20:31Z</time>
      </trkpt>
      <trkpt lat="46.06264" lon="6.78891">
        <ele>900</ele>
        <time>2018-03-04T14:20:32Z</time>
      </trkpt>
      <trkpt lat="46.06263" lon="6.78889">
        <ele>900</ele>
        <time>2018-03-04T14:20:33Z</time>
      </trkpt>
      <trkpt lat="46.06262" lon="6.78887">
        <ele>900</ele>
        <time>2018-03-04T14:20:34Z</time>
      </trkpt>
      <trkpt lat="46.06262" lon="6.78884">
        <ele>900</ele>
        <time>2018-03-04T14:20:35Z</time>
      </trkpt>
      <trkpt lat="46.06261" lon="6.78882">
        <ele>900</ele>
        <time>2018-03-04T14:20:36Z</time>
      </trkpt>
      <trkpt lat="46.06261" lon="6.7888">
        <ele>900</ele>
        <time>2018-03-04T14:20:37Z</time>
      </trkpt>
      <trkpt lat="46.06261" lon="6.78878">
        <ele>900</ele>
        <time>2018-03-04T14:20:38Z</time>
      </trkpt>
      <trkpt lat="46.0626" lon="6.78876">
        <ele>900</ele>
        <time>2018-03-04T14:20:39Z</time>
      </trkpt>
      <trkpt lat="46.0626" lon="6.78873">
        <ele>900</ele>
        <time>2018-03-04T14:20:40Z</time>
      </trkpt>
      <trkpt lat="46.0626" lon="6.78872">
        <ele>900</ele>
        <time>2018-03-04T14:20:41Z</time>
      </trkpt>
      <trkpt lat="46.0626" lon="6.7887">
        <ele>900</ele>
        <time>2018-03-04T14:20:42Z</time>
      </trkpt>
      <trkpt lat="46.0626" lon="6.78867">
        <ele>900</ele>
        <time>2018-03-04T14:20:44Z</time>
      </trkpt>
      <trkpt lat="46.06261" lon="6.78866">
        <ele>900</ele>
        <time>2018-03-04T14:20:45Z</time>
      </trkpt>
      <trkpt lat="46.06261" lon="6.78864">
        <ele>900</ele>
        <time>2018-03-04T14:20:46Z</time>
      </trkpt>
      <trkpt lat="46.06262" lon="6.78862">
        <ele>900</ele>
        <time>2018-03-04T14:20:47Z</time>
      </trkpt>
      <trkpt lat="46.06262" lon="6.78857">
        <ele>899</ele>
        <time>2018-03-04T14:20:51Z</time>
      </trkpt>
      <trkpt lat="46.06262" lon="6.78853">
        <ele>898</ele>
        <time>2018-03-04T14:20:53Z</time>
      </trkpt>
      <trkpt lat="46.06262" lon="6.78851">
        <ele>898</ele>
        <time>2018-03-04T14:20:54Z</time>
      </trkpt>
      <trkpt lat="46.06262" lon="6.78848">
        <ele>898</ele>
        <time>2018-03-04T14:20:56Z</time>
      </trkpt>
      <trkpt lat="46.0626" lon="6.78844">
        <ele>896</ele>
        <time>2018-03-04T14:20:59Z</time>
      </trkpt>
      <trkpt lat="46.06257" lon="6.78834">
        <ele>894</ele>
        <time>2018-03-04T14:21:04Z</time>
      </trkpt>
      <trkpt lat="46.06253" lon="6.78818">
        <ele>898</ele>
        <time>2018-03-04T14:21:12Z</time>
      </trkpt>
      <trkpt lat="46.06253" lon="6.78816">
        <ele>899</ele>
        <time>2018-03-04T14:21:13Z</time>
      </trkpt>
      <trkpt lat="46.06253" lon="6.7881">
        <ele>901</ele>
        <time>2018-03-04T14:21:17Z</time>
      </trkpt>
      <trkpt lat="46.06252" lon="6.78808">
        <ele>901</ele>
        <time>2018-03-04T14:21:18Z</time>
      </trkpt>
      <trkpt lat="46.06252" lon="6.78806">
        <ele>901</ele>
        <time>2018-03-04T14:21:19Z</time>
      </trkpt>
      <trkpt lat="46.06252" lon="6.78805">
        <ele>902</ele>
        <time>2018-03-04T14:21:20Z</time>
      </trkpt>
      <trkpt lat="46.06251" lon="6.78803">
        <ele>902</ele>
        <time>2018-03-04T14:21:21Z</time>
      </trkpt>
      <trkpt lat="46.0625" lon="6.78801">
        <ele>887</ele>
        <time>2018-03-04T14:21:22Z</time>
      </trkpt>
      <trkpt lat="46.06249" lon="6.788">
        <ele>887</ele>
        <time>2018-03-04T14:21:23Z</time>
      </trkpt>
      <trkpt lat="46.06249" lon="6.78798">
        <ele>887</ele>
        <time>2018-03-04T14:21:24Z</time>
      </trkpt>
      <trkpt lat="46.06247" lon="6.78796">
        <ele>887</ele>
        <time>2018-03-04T14:21:25Z</time>
      </trkpt>
      <trkpt lat="46.06246" lon="6.78796">
        <ele>887</ele>
        <time>2018-03-04T14:21:26Z</time>
      </trkpt>
      <trkpt lat="46.06245" lon="6.78796">
        <ele>887</ele>
        <time>2018-03-04T14:21:27Z</time>
      </trkpt>
      <trkpt lat="46.06243" lon="6.78795">
        <ele>886</ele>
        <time>2018-03-04T14:21:28Z</time>
      </trkpt>
      <trkpt lat="46.06241" lon="6.78794">
        <ele>886</ele>
        <time>2018-03-04T14:21:29Z</time>
      </trkpt>
      <trkpt lat="46.06239" lon="6.78794">
        <ele>886</ele>
        <time>2018-03-04T14:21:30Z</time>
      </trkpt>
      <trkpt lat="46.06225" lon="6.7879">
        <ele>885</ele>
        <time>2018-03-04T14:21:39Z</time>
      </trkpt>
      <trkpt lat="46.06212" lon="6.78793">
        <ele>884</ele>
        <time>2018-03-04T14:21:48Z</time>
      </trkpt>
      <trkpt lat="46.06196" lon="6.78791">
        <ele>882</ele>
        <time>2018-03-04T14:21:58Z</time>
      </trkpt>
      <trkpt lat="46.06196" lon="6.78789">
        <ele>882</ele>
        <time>2018-03-04T14:21:59Z</time>
      </trkpt>
      <trkpt lat="46.06195" lon="6.78787">
        <ele>882</ele>
        <time>2018-03-04T14:22:00Z</time>
      </trkpt>
      <trkpt lat="46.06194" lon="6.78786">
        <ele>881</ele>
        <time>2018-03-04T14:22:01Z</time>
      </trkpt>
      <trkpt lat="46.06193" lon="6.78785">
        <ele>881</ele>
        <time>2018-03-04T14:22:02Z</time>
      </trkpt>
      <trkpt lat="46.06192" lon="6.78783">
        <ele>881</ele>
        <time>2018-03-04T14:22:03Z</time>
      </trkpt>
      <trkpt lat="46.06191" lon="6.78783">
        <ele>881</ele>
        <time>2018-03-04T14:22:04Z</time>
      </trkpt>
      <trkpt lat="46.0619" lon="6.78782">
        <ele>881</ele>
        <time>2018-03-04T14:22:05Z</time>
      </trkpt>
      <trkpt lat="46.06189" lon="6.78781">
        <ele>881</ele>
        <time>2018-03-04T14:22:06Z</time>
      </trkpt>
      <trkpt lat="46.06189" lon="6.78779">
        <ele>880</ele>
        <time>2018-03-04T14:22:08Z</time>
      </trkpt>
      <trkpt lat="46.06189" lon="6.78777">
        <ele>880</ele>
        <time>2018-03-04T14:22:09Z</time>
      </trkpt>
      <trkpt lat="46.06187" lon="6.78776">
        <ele>880</ele>
        <time>2018-03-04T14:22:11Z</time>
      </trkpt>
      <trkpt lat="46.06186" lon="6.78775">
        <ele>880</ele>
        <time>2018-03-04T14:22:12Z</time>
      </trkpt>
      <trkpt lat="46.06185" lon="6.78775">
        <ele>880</ele>
        <time>2018-03-04T14:22:13Z</time>
      </trkpt>
      <trkpt lat="46.06183" lon="6.78775">
        <ele>879</ele>
        <time>2018-03-04T14:22:14Z</time>
      </trkpt>
      <trkpt lat="46.06181" lon="6.78775">
        <ele>879</ele>
        <time>2018-03-04T14:22:15Z</time>
      </trkpt>
      <trkpt lat="46.06169" lon="6.78769">
        <ele>877</ele>
        <time>2018-03-04T14:22:23Z</time>
      </trkpt>
      <trkpt lat="46.0616" lon="6.78755">
        <ele>868</ele>
        <time>2018-03-04T14:22:32Z</time>
      </trkpt>
      <trkpt lat="46.06162" lon="6.78741">
        <ele>866</ele>
        <time>2018-03-04T14:22:40Z</time>
      </trkpt>
      <trkpt lat="46.06162" lon="6.78739">
        <ele>865</ele>
        <time>2018-03-04T14:22:41Z</time>
      </trkpt>
      <trkpt lat="46.06162" lon="6.78736">
        <ele>864</ele>
        <time>2018-03-04T14:22:42Z</time>
      </trkpt>
      <trkpt lat="46.06162" lon="6.78735">
        <ele>864</ele>
        <time>2018-03-04T14:22:43Z</time>
      </trkpt>
      <trkpt lat="46.06161" lon="6.78725">
        <ele>862</ele>
        <time>2018-03-04T14:22:47Z</time>
      </trkpt>
      <trkpt lat="46.06161" lon="6.78724">
        <ele>862</ele>
        <time>2018-03-04T14:22:48Z</time>
      </trkpt>
      <trkpt lat="46.06161" lon="6.78723">
        <ele>862</ele>
        <time>2018-03-04T14:22:49Z</time>
      </trkpt>
      <trkpt lat="46.06161" lon="6.78721">
        <ele>862</ele>
        <time>2018-03-04T14:22:50Z</time>
      </trkpt>
      <trkpt lat="46.06161" lon="6.78719">
        <ele>861</ele>
        <time>2018-03-04T14:22:51Z</time>
      </trkpt>
      <trkpt lat="46.06161" lon="6.78716">
        <ele>861</ele>
        <time>2018-03-04T14:22:52Z</time>
      </trkpt>
      <trkpt lat="46.06162" lon="6.78713">
        <ele>861</ele>
        <time>2018-03-04T14:22:53Z</time>
      </trkpt>
      <trkpt lat="46.06162" lon="6.78707">
        <ele>861</ele>
        <time>2018-03-04T14:22:55Z</time>
      </trkpt>
      <trkpt lat="46.06161" lon="6.78705">
        <ele>861</ele>
        <time>2018-03-04T14:22:56Z</time>
      </trkpt>
      <trkpt lat="46.06161" lon="6.7869">
        <ele>861</ele>
        <time>2018-03-04T14:23:02Z</time>
      </trkpt>
      <trkpt lat="46.06161" lon="6.78687">
        <ele>862</ele>
        <time>2018-03-04T14:23:03Z</time>
      </trkpt>
      <trkpt lat="46.06161" lon="6.78684">
        <ele>862</ele>
        <time>2018-03-04T14:23:04Z</time>
      </trkpt>
      <trkpt lat="46.06161" lon="6.78682">
        <ele>862</ele>
        <time>2018-03-04T14:23:05Z</time>
      </trkpt>
      <trkpt lat="46.06161" lon="6.78679">
        <ele>863</ele>
        <time>2018-03-04T14:23:06Z</time>
      </trkpt>
      <trkpt lat="46.06161" lon="6.78676">
        <ele>863</ele>
        <time>2018-03-04T14:23:07Z</time>
      </trkpt>
      <trkpt lat="46.06161" lon="6.78673">
        <ele>864</ele>
        <time>2018-03-04T14:23:08Z</time>
      </trkpt>
      <trkpt lat="46.0616" lon="6.78667">
        <ele>865</ele>
        <time>2018-03-04T14:23:11Z</time>
      </trkpt>
      <trkpt lat="46.0616" lon="6.78664">
        <ele>865</ele>
        <time>2018-03-04T14:23:12Z</time>
      </trkpt>
      <trkpt lat="46.06159" lon="6.78663">
        <ele>864</ele>
        <time>2018-03-04T14:23:13Z</time>
      </trkpt>
      <trkpt lat="46.06159" lon="6.78661">
        <ele>864</ele>
        <time>2018-03-04T14:23:14Z</time>
      </trkpt>
      <trkpt lat="46.06158" lon="6.78658">
        <ele>863</ele>
        <time>2018-03-04T14:23:15Z</time>
      </trkpt>
      <trkpt lat="46.06157" lon="6.78656">
        <ele>863</ele>
        <time>2018-03-04T14:23:16Z</time>
      </trkpt>
      <trkpt lat="46.06157" lon="6.78653">
        <ele>863</ele>
        <time>2018-03-04T14:23:17Z</time>
      </trkpt>
      <trkpt lat="46.06156" lon="6.78651">
        <ele>862</ele>
        <time>2018-03-04T14:23:18Z</time>
      </trkpt>
      <trkpt lat="46.06155" lon="6.78649">
        <ele>862</ele>
        <time>2018-03-04T14:23:19Z</time>
      </trkpt>
      <trkpt lat="46.06154" lon="6.78648">
        <ele>862</ele>
        <time>2018-03-04T14:23:20Z</time>
      </trkpt>
      <trkpt lat="46.06153" lon="6.78646">
        <ele>862</ele>
        <time>2018-03-04T14:23:21Z</time>
      </trkpt>
      <trkpt lat="46.06152" lon="6.78645">
        <ele>862</ele>
        <time>2018-03-04T14:23:22Z</time>
      </trkpt>
      <trkpt lat="46.06149" lon="6.78643">
        <ele>861</ele>
        <time>2018-03-04T14:23:25Z</time>
      </trkpt>
      <trkpt lat="46.06147" lon="6.78642">
        <ele>861</ele>
        <time>2018-03-04T14:23:26Z</time>
      </trkpt>
      <trkpt lat="46.06145" lon="6.78642">
        <ele>860</ele>
        <time>2018-03-04T14:23:27Z</time>
      </trkpt>
      <trkpt lat="46.06143" lon="6.78641">
        <ele>860</ele>
        <time>2018-03-04T14:23:28Z</time>
      </trkpt>
      <trkpt lat="46.06141" lon="6.7864">
        <ele>860</ele>
        <time>2018-03-04T14:23:29Z</time>
      </trkpt>
      <trkpt lat="46.06139" lon="6.7864">
        <ele>859</ele>
        <time>2018-03-04T14:23:30Z</time>
      </trkpt>
      <trkpt lat="46.06138" lon="6.78639">
        <ele>859</ele>
        <time>2018-03-04T14:23:31Z</time>
      </trkpt>
      <trkpt lat="46.06136" lon="6.78638">
        <ele>859</ele>
        <time>2018-03-04T14:23:32Z</time>
      </trkpt>
      <trkpt lat="46.06133" lon="6.78636">
        <ele>858</ele>
        <time>2018-03-04T14:23:34Z</time>
      </trkpt>
      <trkpt lat="46.06132" lon="6.78635">
        <ele>858</ele>
        <time>2018-03-04T14:23:35Z</time>
      </trkpt>
      <trkpt lat="46.06131" lon="6.78633">
        <ele>858</ele>
        <time>2018-03-04T14:23:36Z</time>
      </trkpt>
      <trkpt lat="46.06122" lon="6.78626">
        <ele>856</ele>
        <time>2018-03-04T14:23:44Z</time>
      </trkpt>
      <trkpt lat="46.0612" lon="6.78625">
        <ele>855</ele>
        <time>2018-03-04T14:23:45Z</time>
      </trkpt>
      <trkpt lat="46.0611" lon="6.78615">
        <ele>853</ele>
        <time>2018-03-04T14:23:53Z</time>
      </trkpt>
      <trkpt lat="46.06109" lon="6.78613">
        <ele>852</ele>
        <time>2018-03-04T14:23:54Z</time>
      </trkpt>
      <trkpt lat="46.06108" lon="6.78611">
        <ele>852</ele>
        <time>2018-03-04T14:23:55Z</time>
      </trkpt>
      <trkpt lat="46.06107" lon="6.78609">
        <ele>851</ele>
        <time>2018-03-04T14:23:56Z</time>
      </trkpt>
      <trkpt lat="46.06107" lon="6.78606">
        <ele>851</ele>
        <time>2018-03-04T14:23:57Z</time>
      </trkpt>
      <trkpt lat="46.06105" lon="6.78604">
        <ele>850</ele>
        <time>2018-03-04T14:23:58Z</time>
      </trkpt>
      <trkpt lat="46.06105" lon="6.78602">
        <ele>849</ele>
        <time>2018-03-04T14:23:59Z</time>
      </trkpt>
      <trkpt lat="46.06104" lon="6.786">
        <ele>849</ele>
        <time>2018-03-04T14:24:00Z</time>
      </trkpt>
      <trkpt lat="46.06103" lon="6.78599">
        <ele>848</ele>
        <time>2018-03-04T14:24:01Z</time>
      </trkpt>
      <trkpt lat="46.06102" lon="6.78597">
        <ele>848</ele>
        <time>2018-03-04T14:24:02Z</time>
      </trkpt>
      <trkpt lat="46.06102" lon="6.78595">
        <ele>847</ele>
        <time>2018-03-04T14:24:03Z</time>
      </trkpt>
      <trkpt lat="46.06101" lon="6.78593">
        <ele>846</ele>
        <time>2018-03-04T14:24:04Z</time>
      </trkpt>
      <trkpt lat="46.061" lon="6.78591">
        <ele>845</ele>
        <time>2018-03-04T14:24:05Z</time>
      </trkpt>
      <trkpt lat="46.06099" lon="6.78589">
        <ele>844</ele>
        <time>2018-03-04T14:24:06Z</time>
      </trkpt>
      <trkpt lat="46.06095" lon="6.78582">
        <ele>846</ele>
        <time>2018-03-04T14:24:11Z</time>
      </trkpt>
      <trkpt lat="46.06093" lon="6.78581">
        <ele>844</ele>
        <time>2018-03-04T14:24:14Z</time>
      </trkpt>
      <trkpt lat="46.0609" lon="6.78581">
        <ele>840</ele>
        <time>2018-03-04T14:24:18Z</time>
      </trkpt>
      <trkpt lat="46.06085" lon="6.78586">
        <ele>834</ele>
        <time>2018-03-04T14:24:24Z</time>
      </trkpt>
      <trkpt lat="46.06083" lon="6.78592">
        <ele>830</ele>
        <time>2018-03-04T14:24:30Z</time>
      </trkpt>
    </trkseg>
  </trk>
</gpx>